GFSNGP_sfc_rhum_000.txt.gz
RH
71 67 57 48 46 60 52 54 58 56 56 48 70 76 78 76 75 72 68 60 58 50 42 40 41 46 43 48 51 52 52 57 68 79 80 83 87 90 91 89 81 86 85 67
80 76 70 58 49 53 60 56 62 69 61 71 77 79 79 76 74 71 65 56 50 44 32 36 41 43 42 45 49 53 56 60 71 78 82 86 90 92 93 88 90 74 56 63
51 80 66 56 52 52 54 55 57 73 57 81 85 78 76 80 74 70 61 51 46 36 30 32 40 42 42 44 49 53 60 62 74 81 85 87 91 94 95 93 84 77 67 71
80 74 53 42 51 55 55 63 68 72 74 74 78 83 76 74 72 72 60 50 47 43 29 28 39 41 46 45 48 54 59 65 77 82 84 88 92 92 93 93 91 67 79 80
73 78 49 36 69 70 64 54 74 71 80 79 82 77 76 72 70 68 62 54 49 42 26 29 36 39 43 47 51 55 60 67 74 82 86 90 93 93 93 93 81 77 75 79
92 61 50 43 53 58 54 73 75 74 79 82 79 93 70 71 70 64 55 42 33 30 31 34 37 44 49 52 57 61 65 66 74 82 86 92 92 91 91 70 70 71 75 74
99 81 67 49 58 56 69 62 84 75 76 86 84 78 71 75 69 60 44 31 38 38 39 42 48 52 56 60 63 61 65 70 76 80 84 86 84 80 68 80 78 89 86 81
97 92 60 54 59 65 65 75 81 82 81 77 79 74 77 71 55 38 39 39 41 44 46 51 55 59 64 67 62 67 72 75 78 80 77 68 78 69 78 84 80 94 97 96
70 72 56 56 64 62 67 64 81 83 84 76 83 78 74 55 41 41 38 39 43 46 50 51 57 64 70 71 74 78 84 83 80 80 74 75 76 75 80 82 92 90 86 95
75 57 64 63 60 66 72 72 79 84 85 82 82 81 61 49 45 43 41 42 46 50 52 59 64 67 77 78 82 90 90 85 84 83 77 78 68 67 75 96 96 87 95 92
82 70 72 66 74 70 77 84 86 87 84 81 75 61 45 46 47 45 45 49 51 54 63 67 71 78 83 83 90 94 94 93 93 89 86 76 67 72 80 73 80 92 93 92
80 56 59 58 55 79 84 86 89 85 82 61 54 46 47 51 52 53 54 56 56 61 72 76 82 89 90 90 93 96 91 76 90 90 97 93 71 77 74 74 74 75 75 84
60 66 67 66 81 82 84 89 88 75 53 46 43 46 52 65 64 62 59 61 66 72 80 88 92 93 90 91 94 92 92 89 84 95 98 98 93 92 92 82 75 78 80 76
76 83 80 86 81 88 85 76 54 45 44 49 56 64 71 63 61 63 65 68 74 81 88 92 91 88 82 86 91 92 95 95 95 97 99 99 98 95 95 96 96 94 82 85
76 81 80 85 69 53 50 48 53 59 65 71 79 78 73 62 63 66 70 77 82 88 90 88 89 84 81 87 92 93 97 97 95 97 98 98 99 99 98 96 95 96 97 96
88 87 76 59 50 54 57 70 86 93 95 90 87 78 64 62 67 74 76 82 94 94 88 94 94 84 85 90 92 94 98 98 97 94 92 97 98 98 98 97 97 96 97 96
85 74 70 83 85 85 87 83 89 95 93 89 74 72 65 80 86 78 81 93 96 96 94 95 93 87 88 92 93 96 98 98 98 97 94 93 96 98 97 98 98 96 95 95
77 79 80 84 91 95 97 86 90 92 87 72 84 91 92 94 85 86 90 95 98 96 94 92 92 89 93 95 95 96 98 99 98 97 96 96 95 96 97 98 98 97 96 97
85 92 92 94 94 96 95 91 89 84 92 93 94 92 91 90 94 96 98 99 100 99 89 91 91 94 93 91 94 98 99 98 98 97 97 98 100 98 96 97 98 98 97 96
82 82 79 68 75 86 85 92 92 88 83 95 96 97 97 92 97 99 99 99 97 94 94 94 95 95 93 92 94 99 98 98 98 97 97 97 98 98 98 98 96 96 97 96
74 78 85 85 87 93 95 95 95 92 94 100 100 97 96 94 98 96 97 98 94 94 94 97 97 96 95 95 96 97 98 98 98 97 97 97 97 96 95 93 93 94 94 95
75 84 86 88 90 90 92 95 99 99 98 98 98 98 100 98 98 99 94 95 91 96 99 98 97 97 97 95 96 98 98 98 98 98 97 97 97 97 96 96 96 96 96 96
85 89 92 93 93 92 95 96 96 97 96 95 94 94 97 94 97 100 97 92 95 98 99 98 95 95 96 98 96 98 97 98 98 98 98 98 97 97 97 96 96 97 96 96
94 82 94 96 99 96 92 89 92 94 96 95 95 94 98 98 94 97 95 94 98 96 98 95 96 97 99 94 95 98 99 97 98 97 98 98 97 96 96 96 96 93 95 96
93 91 94 94 96 98 97 96 98 97 98 98 98 98 99 98 98 93 95 95 97 97 98 98 98 99 98 97 96 95 95 95 96 96 96 96 97 97 95 94 93 92 92 93
96 98 98 97 98 96 95 92 93 86 85 87 86 88 91 93 95 98 96 96 95 96 98 99 97 97 97 97 98 98 98 96 96 96 97 96 95 94 93 93 94 94 93 93
88 85 86 86 84 81 84 84 88 90 87 90 93 85 80 82 89 90 95 98 92 99 97 96 96 97 96 96 96 96 97 97 98 98 98 97 95 95 94 93 93 92 93 94

GFSNGP_sfc_rhum_003.txt.gz
RH
57 56 46 35 44 46 38 42 51 42 43 33 39 49 55 58 56 54 52 50 46 36 28 30 35 35 32 34 37 38 37 37 45 54 57 57 62 64 67 71 70 70 64 45
66 61 57 49 40 43 50 48 43 46 46 37 51 53 61 59 57 55 52 48 44 37 27 29 32 34 33 34 36 39 40 44 45 57 57 59 62 67 68 69 69 57 55 52
56 63 53 58 51 44 48 44 44 55 39 57 62 60 57 59 56 55 54 49 42 38 30 26 31 35 32 30 35 38 42 43 48 55 59 61 62 60 64 67 69 67 56 55
73 73 60 34 44 40 42 42 42 48 49 53 54 60 55 51 55 57 54 49 43 36 31 25 26 30 33 30 33 38 39 42 47 54 58 59 62 60 67 66 64 63 56 54
80 60 44 30 43 56 56 39 47 47 50 63 66 61 58 55 56 55 54 50 41 33 30 24 23 28 30 30 34 38 41 43 44 52 56 60 59 63 62 60 59 60 55 57
76 68 61 42 34 52 43 55 44 55 64 71 61 77 48 57 58 59 53 46 38 33 22 21 24 29 34 38 42 40 42 44 46 49 57 59 60 62 60 56 45 52 56 48
81 81 60 41 44 46 57 50 58 63 63 70 67 62 53 59 62 54 46 30 33 26 25 27 33 40 41 42 42 41 48 51 51 52 56 58 60 55 52 49 57 68 66 59
85 77 66 45 49 64 58 60 58 66 64 71 60 62 58 60 50 40 31 32 30 34 36 40 41 42 40 43 43 50 54 57 58 60 58 56 58 54 50 55 62 72 83 75
64 67 53 48 60 55 56 55 55 65 62 64 68 63 61 51 38 34 31 31 32 34 41 41 40 43 43 45 56 61 63 63 65 65 62 58 57 53 52 56 61 66 63 72
73 51 55 55 51 52 50 55 55 60 58 69 66 65 57 42 38 35 32 32 36 38 38 42 46 50 55 63 63 68 69 69 70 68 67 56 54 50 52 63 64 62 66 67
71 62 59 52 56 55 55 63 67 66 69 70 69 64 47 42 43 42 50 63 41 43 46 48 53 58 64 66 69 72 73 66 66 73 71 66 55 50 57 52 58 62 64 68
78 51 53 51 43 50 61 61 64 73 77 69 58 50 42 44 51 77 78 48 46 49 52 57 62 67 69 69 76 80 77 67 73 77 76 77 84 65 72 74 75 76 76 80
51 53 55 55 53 57 63 67 75 77 58 47 42 45 53 72 84 85 55 50 51 51 58 65 69 73 70 72 77 80 80 78 78 85 83 87 88 84 71 69 74 80 82 83
64 68 71 68 67 76 72 53 47 43 46 63 74 77 85 89 87 71 57 55 59 64 68 72 75 73 71 70 73 78 81 91 87 85 82 85 87 89 88 83 92 84 81 74
79 73 73 63 49 47 45 49 60 70 80 87 91 96 96 92 74 63 66 67 70 71 73 76 73 68 67 70 70 76 79 83 94 94 92 87 84 87 91 92 92 89 81 84
66 55 53 56 54 60 65 78 93 97 97 98 97 95 88 75 59 62 73 74 85 82 74 86 88 70 71 72 74 77 81 96 96 94 92 84 83 87 87 90 91 88 85 85
81 71 78 83 83 82 89 91 94 97 96 96 93 84 65 72 84 76 78 84 91 92 92 92 88 70 77 75 80 80 81 85 88 98 93 90 87 86 85 88 87 85 86 98
79 82 83 92 96 97 99 98 97 96 94 83 91 91 88 91 89 89 88 89 94 96 93 90 88 82 77 77 82 87 89 88 94 96 93 94 93 92 87 85 84 85 86 92
89 94 92 91 91 97 98 98 99 88 90 91 92 93 93 93 91 88 94 99 96 94 82 89 88 91 85 82 87 88 92 97 97 95 95 94 97 92 95 94 91 90 86 86
81 82 74 66 76 89 88 94 94 89 85 92 94 93 92 91 91 94 98 99 91 83 90 87 90 92 92 84 90 86 100 100 98 98 100 96 96 96 97 94 90 92 92 91
64 75 85 85 87 90 91 92 94 93 92 97 98 95 95 94 95 97 99 95 86 94 91 94 89 84 79 85 84 99 100 100 100 100 98 100 98 96 97 98 98 98 98 98
71 82 88 88 91 89 92 94 95 98 94 95 95 97 97 95 94 94 96 94 79 94 92 92 88 88 87 93 90 100 99 99 100 99 99 100 100 100 100 100 100 100 100 100
82 86 91 92 94 95 92 93 95 95 97 96 97 97 97 93 92 96 93 84 85 92 90 95 94 93 94 100 100 100 100 99 99 98 100 100 100 100 97 94 97 98 96 92
85 85 89 93 97 95 97 95 96 95 94 92 91 90 97 97 94 87 90 89 86 88 94 98 98 98 99 100 100 100 100 97 96 97 96 93 96 95 92 91 90 92 91 86
95 94 96 96 94 91 86 78 79 79 80 78 80 79 79 72 96 89 86 91 86 92 94 88 91 97 99 97 96 95 95 94 94 94 93 92 91 91 90 89 89 87 90 91
90 90 88 84 82 76 74 76 82 81 86 90 87 89 89 86 84 82 82 81 85 83 96 98 95 96 96 94 93 93 92 91 92 92 92 90 90 90 91 90 91 91 91 90
80 79 76 75 72 75 80 79 88 91 89 91 88 87 86 85 87 83 85 88 90 98 95 95 94 94 93 93 92 91 90 91 92 91 90 90 90 91 92 92 92 92 92 92

GFSNGP_sfc_rhum_006.txt.gz
RH
34 35 31 26 26 28 25 25 33 17 20 14 17 19 23 31 35 36 40 39 37 33 29 26 26 29 29 28 27 26 24 24 30 35 38 38 41 40 43 49 47 46 46 42
49 40 35 35 25 25 26 24 26 20 23 16 20 26 30 36 38 38 39 37 36 33 28 26 26 28 27 25 26 26 27 29 30 34 38 41 40 45 44 44 44 44 47 50
42 47 45 72 40 25 24 24 27 30 22 25 30 32 31 34 38 38 37 36 36 35 30 26 25 29 26 23 25 27 27 29 31 35 40 39 37 37 38 42 45 44 45 51
68 69 83 21 28 26 24 22 21 22 25 24 25 30 33 31 34 37 35 36 35 34 31 26 23 26 23 20 22 25 27 28 31 35 36 34 35 38 41 42 43 41 41 46
92 45 31 15 23 28 33 20 22 22 21 28 40 41 36 34 34 36 36 36 35 33 30 27 23 23 22 21 21 24 30 30 25 29 32 32 34 40 42 42 41 40 43 46
71 89 88 30 27 38 34 30 28 33 34 41 43 58 22 34 36 38 36 36 36 32 28 25 23 22 22 20 26 31 29 27 29 30 31 34 37 42 44 44 42 37 44 46
70 91 46 26 32 36 41 34 33 38 36 43 45 34 36 40 38 38 36 37 35 29 24 23 21 21 25 30 32 26 31 34 30 31 34 37 41 43 44 44 43 55 56 54
76 95 79 29 40 50 37 41 38 38 38 46 40 42 44 41 42 41 39 34 29 25 27 26 25 30 29 28 24 32 35 36 36 39 42 42 46 45 45 45 47 61 89 72
46 44 34 33 36 34 39 42 39 41 34 40 42 41 43 42 37 37 31 23 24 31 35 35 32 28 23 25 36 40 42 42 44 47 47 46 48 49 45 44 50 58 55 63
55 32 32 32 31 31 33 38 34 33 36 40 45 42 45 43 35 31 25 25 29 37 34 40 37 35 36 38 43 45 49 49 49 50 58 52 46 44 46 50 54 52 56 55
48 38 34 32 34 35 33 36 40 38 43 48 49 48 47 39 33 28 40 50 53 56 52 37 35 39 40 46 48 49 53 53 52 55 58 60 61 50 50 48 51 55 53 55
59 29 39 35 32 38 42 41 43 49 50 53 54 52 44 36 36 60 59 60 56 43 45 48 47 47 50 50 54 63 64 58 55 60 59 60 62 63 76 71 73 73 75 80
43 42 44 44 43 52 55 58 54 52 49 45 41 38 44 78 83 87 79 69 54 45 47 56 59 63 55 58 65 71 65 61 60 66 61 62 66 77 78 74 77 80 80 82
55 57 52 57 57 49 46 45 52 50 54 58 66 74 83 92 92 83 74 64 58 62 66 70 70 63 58 60 65 65 65 82 67 63 62 64 67 80 80 85 93 89 87 75
55 55 61 48 45 49 49 53 68 85 92 94 93 95 91 81 70 66 59 55 64 69 67 64 61 56 54 57 54 59 62 61 70 80 84 84 82 74 72 77 86 83 77 83
53 49 51 60 61 68 76 87 94 97 96 96 81 78 66 66 67 59 54 61 83 74 64 89 92 64 56 57 58 60 63 85 90 83 84 83 83 75 72 80 84 79 76 70
69 70 70 70 76 90 96 96 96 95 86 77 80 85 78 73 76 62 67 73 99 100 100 100 93 58 61 64 61 60 62 66 77 73 72 90 98 93 85 89 86 78 84 98
63 67 74 92 94 94 96 89 82 80 82 78 99 100 100 100 97 100 99 100 100 100 97 92 89 74 65 63 66 65 67 70 73 82 80 88 80 80 90 91 89 88 90 89
76 83 79 71 69 80 85 86 95 88 99 100 99 100 100 100 100 96 96 99 100 98 72 84 84 91 74 72 77 72 81 92 95 91 88 89 98 86 92 100 99 100 96 92
62 59 51 53 70 93 85 100 100 79 71 91 100 100 100 100 100 100 100 99 94 82 84 77 81 82 83 75 85 75 98 100 97 95 100 96 100 96 98 96 99 100 100 100
55 67 92 92 99 100 100 100 100 100 87 100 100 100 98 100 100 100 98 77 65 91 79 84 81 74 67 70 69 97 100 100 100 100 100 100 100 100 100 100 100 100 100 100
65 83 100 97 100 94 100 100 100 100 100 100 98 98 97 96 95 94 96 96 76 86 81 81 78 80 83 87 85 99 100 99 100 100 99 100 100 100 100 100 100 100 100 100
72 78 92 99 100 95 95 93 94 93 91 92 90 92 87 79 78 86 85 70 76 81 85 81 88 92 94 100 100 100 100 100 100 100 98 99 100 100 100 100 99 100 100 97
80 85 91 95 90 87 78 62 68 74 81 82 83 85 83 88 93 67 73 76 74 77 85 88 87 90 97 100 100 100 100 100 100 96 92 89 94 94 92 92 86 86 85 83
90 88 86 82 70 59 57 57 57 59 65 64 67 65 72 67 83 85 91 88 81 84 94 90 93 95 97 97 98 99 98 94 93 90 89 89 90 92 92 89 86 86 87 87
74 70 66 62 60 57 58 58 66 63 66 72 70 76 78 75 76 79 81 81 81 84 88 90 91 92 92 92 93 94 94 88 88 86 87 87 88 89 90 87 86 87 88 88
61 64 58 58 56 59 67 66 76 78 77 84 83 79 76 80 84 80 81 83 85 87 89 90 91 91 92 92 92 92 92 90 87 85 87 87 86 87 87 87 88 88 88 88

GFSNGP_sfc_rhum_009.txt.gz
RH
24 24 20 18 18 18 18 19 29 20 10 9 10 12 13 16 20 20 26 29 31 34 35 36 33 29 27 30 29 24 21 20 25 29 32 32 35 36 35 39 37 36 37 42
46 26 25 25 18 15 16 17 14 13 14 10 13 14 16 18 22 23 26 28 31 32 32 32 30 27 28 30 28 26 25 26 27 29 29 32 36 38 38 36 34 34 35 39
38 38 37 64 40 22 17 15 16 24 17 17 19 18 19 19 22 25 26 29 31 31 30 29 28 28 30 27 26 26 26 25 27 30 30 34 33 30 32 35 36 36 35 35
53 68 82 19 18 16 20 16 14 14 14 13 16 20 21 20 21 26 27 28 29 29 30 28 26 26 28 23 23 25 25 26 28 28 29 29 29 29 31 35 36 36 35 37
90 41 25 16 15 19 22 18 16 18 14 15 23 28 24 22 23 25 25 26 26 27 29 29 26 24 27 23 21 22 28 27 26 24 24 26 27 29 32 35 36 36 34 35
55 84 88 33 23 27 24 24 20 19 22 21 25 41 23 25 24 24 23 24 27 28 29 29 26 24 26 24 30 31 24 26 22 23 24 26 28 31 33 35 36 34 36 38
62 81 46 21 23 26 35 37 26 27 23 26 31 27 31 32 30 24 25 26 28 30 31 29 25 23 25 33 27 25 27 28 26 24 26 29 33 35 37 39 40 50 52 50
69 95 79 21 28 41 39 29 26 28 27 34 35 33 30 30 31 29 30 29 32 33 31 25 22 26 34 38 30 27 31 30 30 31 32 33 42 42 42 43 48 53 81 63
40 42 30 24 24 23 28 32 30 31 28 30 31 30 30 30 33 31 31 29 29 27 30 35 35 39 43 39 38 35 37 38 38 39 41 42 46 48 48 42 49 60 64 74
44 23 23 23 22 23 25 29 28 28 31 33 37 36 36 34 36 32 26 23 23 31 36 54 68 66 58 36 40 48 49 46 49 51 49 50 47 46 43 48 55 58 63 59
37 27 22 23 24 28 29 31 33 33 36 38 44 40 38 40 34 28 26 34 41 66 69 64 46 38 46 52 47 51 60 58 54 63 58 49 47 52 61 48 51 62 60 60
52 31 39 32 33 38 41 44 46 47 45 42 42 43 39 33 34 48 56 65 72 70 65 51 47 46 49 52 59 66 69 66 65 60 60 53 53 58 70 76 77 69 71 78
42 41 43 41 41 42 44 42 41 42 40 41 40 46 58 73 75 88 88 79 69 57 47 46 48 61 62 61 64 67 66 68 66 72 58 54 67 76 79 71 78 76 75 76
47 50 49 46 48 43 47 51 62 62 64 68 76 86 94 93 82 76 69 58 52 50 56 62 65 64 59 50 54 64 68 79 62 61 65 74 73 77 80 86 91 90 85 74
46 46 46 44 45 52 58 68 86 91 87 80 72 68 63 60 54 49 44 46 51 55 55 53 53 51 45 50 52 59 57 58 65 76 83 83 84 82 79 82 83 81 78 90
48 46 48 56 61 69 74 80 85 81 69 64 58 56 48 45 45 48 46 45 63 61 54 89 94 63 56 51 49 54 57 74 81 79 82 85 81 79 80 82 84 83 83 79
66 65 63 68 73 78 81 80 70 65 62 62 66 82 77 76 73 50 55 59 97 100 100 98 94 59 64 56 51 54 60 67 82 83 76 76 81 82 78 84 84 82 87 97
56 60 64 69 75 82 73 72 84 81 77 66 98 100 100 100 99 98 96 100 100 100 93 81 78 70 62 56 57 61 68 72 76 84 86 91 86 81 84 83 82 84 86 90
61 63 62 62 64 75 70 70 87 88 99 100 100 100 100 100 100 96 96 100 100 92 61 71 81 84 72 70 75 70 79 88 87 85 93 96 100 90 92 98 93 96 92 90
49 45 47 57 78 91 85 100 99 79 74 94 100 100 100 100 100 100 100 98 89 80 78 77 77 73 73 68 78 72 89 97 94 93 99 95 100 100 100 96 94 98 100 100
55 67 86 96 100 100 100 100 100 98 88 97 98 95 94 93 92 93 90 72 61 80 73 73 69 70 68 78 85 99 100 100 100 100 100 100 100 99 99 100 100 100 100 100
68 85 100 98 100 94 94 92 92 92 92 95 94 90 89 76 84 87 97 79 63 73 70 71 70 72 75 77 80 95 98 98 99 100 100 100 100 98 100 100 100 100 100 100
70 80 94 97 95 89 81 82 94 89 85 84 85 83 79 71 63 73 74 60 66 74 74 80 88 89 88 96 98 96 99 99 98 100 100 100 98 99 96 95 95 96 97 94
79 84 87 88 82 71 62 53 56 63 76 75 77 80 69 73 76 60 66 71 77 78 81 93 84 81 83 93 94 96 96 96 96 98 96 96 92 86 85 87 86 86 88 88
81 79 78 72 56 53 50 48 48 50 54 54 58 56 63 61 76 73 79 79 74 78 84 84 80 81 90 90 91 92 92 94 95 94 96 95 92 88 92 88 86 86 85 84
69 63 56 54 54 51 52 50 61 58 61 68 66 73 74 71 71 76 77 77 78 79 82 85 86 85 87 87 90 91 92 90 92 92 93 92 86 87 89 85 84 83 83 83
59 62 53 53 49 51 62 60 71 73 72 81 77 73 69 76 80 77 80 83 84 84 86 87 87 83 83 86 86 88 89 89 89 88 90 86 82 83 83 83 82 82 83 86

GFSNGP_sfc_rhum_015.txt.gz
RH
40 39 31 35 33 32 26 39 50 41 37 28 28 28 28 29 29 28 27 33 41 44 54 48 50 55 55 64 52 49 46 41 48 53 53 49 51 50 52 55 50 51 57 61
65 42 43 44 37 34 34 32 31 28 30 23 25 23 24 25 24 27 28 29 34 50 52 52 58 63 61 59 56 47 42 43 47 53 53 55 54 54 55 58 55 55 57 58
74 55 50 59 44 38 36 33 36 37 28 27 34 30 29 28 28 31 30 34 36 43 54 54 61 61 57 52 52 46 49 46 51 54 55 61 58 54 53 56 57 57 56 57
83 76 60 41 29 24 32 30 29 30 33 32 31 34 41 39 41 39 37 36 37 40 45 54 60 60 56 49 47 47 45 49 57 62 60 58 59 54 54 55 55 58 60 60
77 84 54 35 31 38 35 38 33 36 34 32 33 38 52 45 45 45 42 38 36 38 42 48 52 54 48 48 44 45 50 54 60 63 61 63 58 62 62 61 60 60 60 60
87 84 71 56 36 31 30 58 43 39 42 44 41 77 63 46 44 43 40 42 45 43 43 50 51 50 43 42 48 56 61 68 63 60 61 54 62 67 65 63 59 60 57 65
96 92 78 47 31 33 50 59 45 40 47 49 56 63 50 47 44 42 43 41 43 49 56 55 42 44 50 56 68 68 68 67 68 68 65 62 61 65 66 67 69 78 76 79
98 99 86 36 35 43 63 52 45 44 48 48 49 50 51 49 47 40 42 45 51 65 68 62 59 60 69 77 71 70 70 70 74 70 61 54 63 68 69 71 82 85 90 88
76 84 62 38 38 45 41 42 44 46 53 53 60 61 55 40 37 40 44 60 68 76 82 80 70 70 78 76 68 75 82 84 74 71 66 62 69 70 77 82 94 89 93 93
58 43 40 34 34 38 48 54 59 59 59 61 63 55 42 41 51 58 68 74 76 76 73 72 69 72 77 71 71 75 76 81 80 80 77 75 69 71 79 95 96 96 96 96
58 46 56 61 61 61 57 58 51 53 58 54 52 46 52 67 69 71 70 68 66 70 70 71 71 75 72 73 71 75 78 81 84 91 86 82 79 81 88 82 88 92 93 94
84 61 69 71 61 56 57 58 56 65 69 67 65 71 74 80 79 80 80 85 81 81 80 72 69 68 65 66 71 80 86 92 94 94 94 92 89 88 83 82 80 83 85 87
70 64 62 64 69 68 73 74 72 74 74 80 80 85 89 96 96 92 91 88 84 80 72 68 70 74 72 74 80 84 90 91 93 93 93 92 93 94 94 91 87 84 83 86
62 61 69 66 80 72 75 76 79 80 82 84 89 92 94 94 91 88 82 74 64 63 65 65 71 76 77 76 80 86 89 89 92 92 93 92 91 92 98 98 91 87 88 88
59 61 69 73 76 76 73 76 82 84 79 74 78 82 80 74 67 63 70 68 66 69 76 85 86 82 81 81 78 83 84 90 90 90 90 91 93 95 89 82 86 85 90 96
62 66 71 78 75 72 76 78 77 86 82 76 75 81 75 72 75 81 86 95 97 97 97 98 98 92 88 86 86 86 88 90 89 89 88 90 85 85 85 85 88 90 91 90
82 86 81 78 75 78 86 82 79 76 79 91 98 97 96 98 96 93 92 91 94 96 98 96 84 74 80 73 70 77 86 90 91 90 91 92 90 90 91 91 90 91 92 90
68 71 72 73 87 86 83 85 92 97 98 93 93 92 90 93 96 93 94 92 89 95 85 80 78 77 77 73 80 86 88 86 83 83 81 83 88 96 97 92 90 97 95 96
72 76 77 77 77 86 95 98 98 95 95 91 92 95 94 94 94 94 94 95 93 90 89 76 80 85 84 82 78 78 81 84 88 89 87 86 87 86 87 91 97 99 91 97
75 81 85 90 94 97 98 97 94 92 89 91 94 95 95 96 97 97 96 94 88 87 77 78 82 75 73 78 91 90 95 93 89 88 90 90 92 93 89 88 91 95 95 98
90 96 98 97 98 97 96 93 93 95 93 94 92 96 97 96 91 91 91 92 90 78 77 89 81 74 72 88 81 91 92 91 90 92 93 93 93 92 94 95 97 98 98 98
96 96 98 97 97 95 94 95 92 93 94 93 94 94 91 86 92 90 94 91 87 93 86 93 88 87 82 94 86 90 90 90 90 91 92 92 93 94 94 94 94 95 95 96
94 95 94 94 92 93 94 91 91 90 93 94 94 93 92 93 92 96 94 84 85 92 85 96 98 96 95 92 93 93 91 95 93 92 93 93 94 94 93 94 94 94 94 94
93 92 92 91 90 90 78 83 81 80 89 90 93 91 91 97 97 93 97 96 98 97 97 93 98 97 97 98 94 95 94 93 95 92 92 88 93 93 93 94 93 94 94 94
91 90 92 91 75 74 70 72 77 76 79 80 80 83 87 93 95 97 97 97 97 96 98 97 97 100 99 98 97 94 96 96 95 95 92 92 92 92 92 93 94 94 94 94
83 73 69 70 75 75 80 82 90 91 94 96 95 96 97 97 96 95 96 96 96 97 98 98 98 97 99 98 99 99 96 96 92 95 95 92 92 92 92 91 92 92 92 92
80 75 70 72 74 80 90 90 95 97 99 97 96 97 98 97 98 96 97 98 99 98 98 99 99 98 93 98 99 100 100 97 95 97 100 95 93 93 93 92 92 91 91 90

GFSNGP_sfc_rhum_018.txt.gz
RH
42 46 42 41 40 40 36 41 52 42 42 28 26 29 28 30 30 39 53 48 47 53 54 56 62 62 59 62 59 54 55 56 57 52 52 57 64 62 62 63 56 55 58 61
62 51 47 47 40 41 39 38 40 36 35 34 32 34 35 33 31 32 35 36 44 45 56 58 62 66 70 66 63 55 56 55 50 59 58 63 66 65 61 59 59 61 60 66
67 62 54 68 46 39 38 37 38 46 37 39 43 45 43 40 41 41 43 44 48 60 61 64 69 67 72 70 63 57 56 47 61 59 62 66 61 62 63 65 64 62 65 66
83 72 72 49 36 34 38 38 39 37 38 44 50 55 52 47 46 46 45 45 46 48 59 65 71 68 70 64 58 58 58 57 60 64 63 65 68 67 72 70 63 64 63 65
75 79 58 41 32 31 39 48 42 41 39 42 51 53 53 53 49 51 55 57 53 55 57 60 68 69 59 55 54 56 62 65 62 65 64 67 75 79 74 72 69 69 63 66
94 78 70 55 41 34 36 64 44 46 49 46 46 84 66 52 53 55 47 53 58 58 51 49 57 51 52 59 66 72 67 63 65 68 68 76 81 83 79 70 65 67 69 67
97 84 71 49 39 35 41 49 47 52 52 54 60 65 59 57 52 50 56 60 61 64 66 60 59 62 69 72 75 70 73 74 75 78 85 86 84 73 68 72 77 84 85 84
97 93 68 50 38 42 51 60 50 50 52 67 71 64 51 50 51 57 67 70 71 75 76 74 70 70 72 75 70 72 75 84 87 87 80 66 67 69 72 76 84 89 93 92
74 77 59 44 46 54 51 49 51 63 65 69 69 51 49 52 64 74 77 78 75 71 76 81 71 64 72 78 78 81 82 88 89 78 76 72 78 81 83 79 94 92 97 98
68 53 60 51 63 61 66 70 67 66 68 63 52 51 66 73 76 79 80 76 74 72 76 77 74 75 81 76 73 76 82 83 84 88 87 84 83 82 88 94 94 94 93 95
63 77 69 73 72 65 62 65 66 63 58 52 61 69 69 74 75 76 80 81 78 81 84 83 76 78 77 76 74 78 82 85 89 94 92 93 91 91 92 90 90 89 88 91
75 58 72 76 70 66 66 71 69 73 78 74 72 79 82 89 87 88 90 88 87 84 82 79 75 71 71 72 76 82 86 90 94 96 95 95 95 92 85 86 85 86 83 86
76 71 75 80 76 72 80 80 78 80 81 89 88 89 89 93 94 91 90 87 85 81 73 72 74 81 81 84 86 87 91 91 94 95 94 94 92 93 91 82 87 89 86 86
68 69 79 79 90 82 82 82 81 82 85 88 93 93 92 92 90 86 83 77 72 77 87 88 88 92 90 89 90 90 90 92 94 94 93 92 92 90 90 90 88 87 87 81
77 74 79 79 79 83 80 78 82 87 89 86 84 84 80 81 88 92 94 91 86 96 96 90 89 87 89 90 85 93 94 93 93 94 92 91 91 90 89 90 91 93 87 91
80 79 79 82 82 82 83 87 90 87 81 83 87 92 88 90 94 90 87 90 97 97 91 89 85 74 74 73 79 83 90 92 94 89 85 83 81 81 82 91 97 97 91 91
91 93 86 83 78 81 83 78 77 81 90 96 94 92 90 91 86 86 90 93 95 94 85 82 86 81 84 80 73 78 83 83 86 86 88 88 90 91 88 88 87 84 85 97
73 75 76 84 86 87 85 89 94 94 96 92 94 94 94 91 94 96 97 92 93 92 82 85 83 75 70 73 83 87 90 91 92 88 84 89 90 86 89 89 88 85 85 87
75 84 83 78 78 88 96 96 96 95 95 94 93 96 97 98 97 97 93 93 93 85 83 81 78 72 68 80 88 83 91 90 87 85 90 88 91 89 91 93 92 92 94 96
82 83 86 91 93 94 97 97 94 91 89 90 93 92 91 93 94 95 93 93 79 82 84 76 69 67 71 78 90 82 94 92 88 90 92 91 92 93 92 90 91 91 92 94
92 95 98 97 98 96 95 93 93 94 82 92 91 93 94 93 94 95 93 91 78 82 84 83 78 77 71 86 82 96 95 97 93 95 95 94 93 91 91 91 92 93 94 94
94 97 98 96 96 95 96 94 92 89 89 91 92 92 92 90 97 96 97 88 80 97 94 92 89 94 88 97 91 99 95 96 98 94 94 93 93 93 92 92 92 92 93 94
94 94 95 96 94 91 88 91 93 89 91 91 92 93 94 93 93 97 98 85 90 98 95 100 99 100 98 99 100 100 100 99 100 95 96 94 95 94 93 93 92 93 93 93
94 93 91 91 92 86 78 75 77 85 91 90 93 95 89 97 99 96 97 100 100 100 100 100 100 100 100 100 100 100 100 100 99 100 96 98 95 94 94 93 93 91 91 92
92 90 85 87 74 78 80 75 78 82 79 74 82 89 89 90 96 98 98 99 100 99 99 100 100 100 100 100 100 100 100 100 100 100 100 98 97 96 96 94 93 93 92 92
85 82 77 74 77 80 82 81 91 94 90 94 95 100 98 96 96 96 98 99 98 99 100 100 100 100 100 100 100 100 100 99 100 100 100 100 98 97 96 94 93 93 94 93
93 92 91 92 89 84 84 83 94 99 97 97 95 98 99 99 99 98 100 100 100 100 100 100 100 100 100 100 100 100 100 100 100 100 100 100 99 97 97 95 95 94 93 93

GFSNGP_sfc_rhum_021.txt.gz
RH
43 39 44 41 41 42 42 44 53 43 50 37 34 30 32 31 37 53 64 66 65 71 75 77 80 82 81 82 72 71 66 62 61 66 62 54 59 58 64 64 58 56 58 62
68 54 50 48 41 42 43 42 43 44 40 39 40 42 42 39 38 42 46 50 55 58 60 60 65 78 79 77 74 69 62 57 62 64 60 66 66 68 68 65 60 60 66 70
60 67 61 67 52 43 40 39 39 48 38 42 50 47 52 54 50 50 50 50 49 57 64 65 69 77 78 70 68 64 62 64 66 73 69 67 64 66 68 71 78 80 73 67
78 74 76 46 46 40 42 44 42 43 48 52 56 58 53 54 53 54 54 55 56 59 60 69 78 81 83 75 72 71 73 74 72 67 68 68 66 72 78 81 82 82 73 68
77 81 60 46 38 43 43 46 47 51 56 60 60 56 56 54 58 62 59 60 63 63 61 68 80 74 64 64 66 71 73 73 68 70 71 75 81 88 91 92 88 75 70 72
91 75 74 58 45 38 41 63 46 51 56 59 54 77 68 66 57 61 64 67 70 66 64 65 65 64 71 74 73 76 76 72 70 72 82 90 93 93 92 83 70 71 76 79
97 85 70 48 42 33 50 52 52 53 56 57 59 66 66 63 65 68 72 72 72 76 80 78 72 72 77 77 81 75 75 81 83 87 91 92 92 91 84 75 77 85 88 90
94 83 64 48 44 41 50 64 57 57 57 71 75 67 63 64 72 74 78 75 73 78 81 77 74 74 79 83 79 76 82 86 89 92 91 86 87 73 72 81 87 88 92 92
73 72 56 53 45 48 58 55 55 59 72 66 61 60 64 77 76 78 80 80 79 82 85 84 79 78 87 90 87 89 92 92 92 86 82 81 87 87 90 89 94 91 92 93
69 62 62 62 71 62 60 64 71 74 73 55 59 65 74 78 80 80 82 81 79 81 85 88 84 82 83 77 74 78 82 84 87 90 90 90 91 92 95 96 95 92 94 92
77 86 78 77 79 73 72 71 67 61 59 62 70 75 75 78 81 84 84 83 83 86 86 85 81 82 80 80 79 82 84 87 89 94 92 92 91 93 94 92 91 91 90 89
81 70 66 80 76 72 72 74 70 71 76 71 71 78 80 88 87 86 91 89 89 88 86 83 82 86 88 88 88 90 91 93 95 96 95 93 92 88 86 89 88 87 87 87
58 77 81 82 81 77 80 81 79 80 80 89 87 86 87 94 94 91 90 89 85 87 88 90 96 96 96 94 92 93 95 94 93 93 93 95 94 96 96 85 82 84 88 87
77 76 87 86 94 85 84 86 86 88 89 90 93 92 92 92 91 90 90 89 93 95 92 95 90 90 90 84 82 91 91 92 97 97 96 92 90 88 84 82 86 86 82 86
86 80 83 86 84 85 81 81 88 93 90 90 84 85 82 90 96 94 93 92 85 80 87 83 82 86 84 78 77 85 85 88 90 95 94 93 92 90 88 87 88 85 79 74
85 84 84 89 88 84 86 89 89 86 81 86 88 92 93 89 87 89 85 85 87 90 85 95 91 80 77 71 74 78 86 90 93 94 93 87 87 89 86 86 86 87 89 88
94 96 93 92 90 89 89 78 75 81 88 91 93 95 84 85 89 92 93 89 92 92 92 88 80 65 70 71 77 87 90 86 91 88 88 89 90 92 88 90 92 89 89 88
77 79 79 82 88 88 88 88 90 91 92 90 93 90 93 94 99 98 96 89 90 95 87 78 70 63 67 70 74 80 89 83 84 89 89 91 91 88 91 92 88 90 89 86
80 86 86 84 81 86 90 94 95 94 94 91 91 97 98 97 95 95 90 91 91 88 82 71 75 72 67 76 80 84 93 93 91 87 92 93 93 91 92 92 91 91 90 90
85 82 84 87 87 90 95 96 94 90 88 91 90 89 91 97 96 96 91 88 79 87 77 73 69 67 70 72 91 84 97 98 91 89 94 94 95 95 94 93 92 92 92 92
92 92 94 97 98 96 96 93 88 90 86 91 89 92 96 96 96 97 94 89 75 85 81 83 80 82 72 87 86 100 98 100 99 97 100 98 96 94 94 93 93 93 93 92
96 97 98 96 96 96 95 88 86 89 89 92 94 94 95 94 96 94 97 89 79 98 94 95 93 96 92 100 93 100 98 98 100 100 99 98 97 97 96 95 95 94 93 92
97 95 94 94 93 94 91 88 89 87 89 92 94 95 94 90 90 96 97 86 89 98 95 100 100 100 100 100 100 100 100 100 100 100 100 100 100 100 98 97 96 95 94 94
93 91 91 86 84 85 88 81 77 86 92 91 95 96 92 99 100 95 95 100 100 100 100 100 100 100 100 100 100 100 100 100 100 100 100 100 100 100 100 99 97 95 94 94
88 88 85 83 79 80 80 82 86 84 83 86 90 88 87 89 96 98 98 100 100 99 100 100 100 100 100 100 100 100 100 100 100 100 100 100 99 100 99 99 98 96 96 95
80 83 86 85 90 87 85 85 91 89 85 96 99 99 99 96 95 96 99 100 98 100 100 100 100 100 100 100 100 100 100 100 100 100 100 100 100 99 99 98 99 96 96 96
93 94 92 92 92 89 87 87 95 97 93 96 98 97 96 98 98 96 100 100 100 100 100 100 100 100 100 100 100 100 100 100 100 100 100 100 100 100 99 98 99 96 95 95

GFSNGP_sfc_rhum_027.txt.gz
RH
36 31 37 35 37 43 38 42 49 39 40 30 28 28 28 30 43 52 56 56 59 64 69 68 68 70 67 69 70 69 68 67 70 71 66 60 61 67 67 65 61 59 66 64
46 44 42 44 39 39 40 41 40 37 39 30 31 31 34 42 49 50 51 51 54 56 56 58 58 64 70 69 71 70 69 68 66 67 62 65 68 73 72 66 64 53 65 81
52 55 50 66 54 43 42 39 39 46 37 33 34 41 40 48 47 48 50 50 53 58 65 70 69 69 68 70 69 70 69 67 66 65 64 70 71 70 70 66 71 79 85 88
72 68 75 39 39 36 39 39 37 36 34 34 37 48 47 44 47 51 52 53 56 56 60 62 61 64 65 64 65 65 66 67 66 65 64 63 65 77 83 86 91 91 89 80
80 64 50 37 41 41 42 30 35 34 38 44 52 50 55 54 54 57 58 60 62 61 63 63 62 62 62 63 63 64 66 65 63 63 65 69 77 88 92 92 94 84 76 84
74 71 67 52 36 37 32 44 36 39 50 54 52 59 50 57 60 64 64 62 64 64 63 63 64 61 63 65 67 71 71 68 66 67 71 79 81 86 85 80 80 85 91 90
78 82 64 45 37 35 51 43 44 45 51 54 48 48 56 63 67 64 64 66 66 65 67 67 64 65 70 72 77 72 71 69 70 70 74 75 82 88 90 91 91 89 77 72
81 91 70 45 38 48 48 47 50 52 54 59 65 67 65 66 67 67 66 66 64 69 72 69 64 66 73 83 77 76 76 77 77 78 79 76 75 71 67 67 72 74 87 75
66 66 58 46 46 43 45 46 53 54 54 61 65 65 66 69 68 67 64 66 65 70 74 71 66 65 71 72 61 60 62 66 67 66 66 65 66 67 65 66 73 76 76 80
65 54 52 52 48 49 47 49 49 47 52 54 61 66 69 69 69 68 66 68 65 65 67 71 68 69 68 65 64 69 74 72 67 65 63 59 56 58 59 66 70 70 73 75
63 55 66 58 58 52 58 63 60 56 56 57 65 67 66 69 70 70 69 66 63 68 76 81 74 74 70 70 65 66 64 61 60 60 54 51 48 55 58 56 70 70 70 73
67 47 53 50 55 63 64 61 58 61 64 62 62 66 65 69 70 68 71 68 73 80 82 79 70 69 67 62 58 58 58 56 67 65 63 54 53 50 64 67 68 69 70 74
49 59 70 78 71 65 66 65 63 63 64 68 66 65 68 76 73 78 72 75 83 85 79 69 60 57 59 60 58 60 60 62 63 66 62 61 62 63 66 60 64 68 69 69
73 69 72 73 70 72 70 71 72 69 68 71 72 73 78 79 76 77 82 83 78 75 73 67 58 57 56 52 54 61 63 79 67 64 64 66 68 69 68 72 77 72 64 66
75 76 71 78 79 82 79 77 81 84 84 82 78 80 78 79 83 86 78 73 71 66 62 57 56 58 56 54 52 58 53 58 69 73 72 74 70 70 69 71 73 71 66 64
85 82 79 82 84 83 80 80 86 87 84 85 82 80 78 82 83 79 74 71 72 69 60 83 67 57 56 54 53 55 60 74 72 70 70 69 68 70 68 71 72 72 71 73
92 96 93 92 88 86 83 80 82 84 85 84 87 87 87 89 86 82 78 75 84 82 74 73 63 53 55 52 53 59 61 64 76 67 68 69 72 73 71 74 74 74 76 78
74 79 76 79 84 86 87 87 87 85 87 85 93 94 96 93 92 90 88 85 86 82 69 63 58 57 56 52 56 65 66 65 66 70 69 76 72 69 75 76 73 75 76 75
82 88 88 83 80 85 88 90 93 93 96 95 94 97 94 94 89 88 87 91 91 79 69 62 70 62 61 67 63 68 72 75 70 67 72 76 78 73 80 81 79 81 79 78
87 86 85 86 87 90 94 95 96 96 95 95 96 96 96 95 92 91 85 82 75 73 65 64 63 62 64 70 70 64 75 81 71 74 80 77 83 86 84 79 81 83 86 85
94 92 93 94 97 97 97 97 97 96 95 97 95 95 95 90 88 90 84 78 78 74 68 73 68 67 61 68 65 84 79 82 84 84 88 88 87 83 85 86 86 87 87 87
94 96 97 97 96 97 97 97 96 96 95 96 95 94 94 91 93 91 91 76 76 86 78 77 74 85 74 78 71 85 78 77 82 86 87 87 87 88 87 87 88 88 88 88
97 96 96 96 96 94 95 95 95 92 93 94 94 90 83 77 75 81 84 77 78 88 77 84 90 92 93 88 89 90 86 84 86 88 90 90 89 88 87 86 88 89 89 88
95 94 94 95 94 90 86 77 78 86 93 90 93 90 81 89 91 82 84 91 92 90 89 94 95 96 94 93 93 92 92 88 89 92 89 98 90 88 86 87 87 86 89 89
94 95 95 94 89 83 76 76 80 80 82 82 82 79 79 79 87 88 89 90 89 87 90 98 88 91 90 92 94 94 95 93 92 94 92 92 91 90 88 88 90 89 89 89
91 91 91 92 92 91 91 90 91 91 90 92 92 94 94 88 85 85 89 90 86 90 90 95 93 91 89 89 91 92 94 92 93 92 96 92 91 90 90 89 90 90 91 90
92 92 90 90 91 91 92 91 92 93 93 94 93 93 91 92 87 82 88 88 90 92 94 96 95 95 93 93 93 92 93 92 96 93 94 95 93 92 92 92 91 91 91 91

GFSNGP_sfc_rhum_030.txt.gz
RH
19 16 16 18 17 20 24 24 28 23 20 19 16 16 17 21 25 30 36 40 42 43 46 48 53 54 52 58 59 58 55 54 58 61 61 60 61 59 58 62 59 60 59 65
31 20 22 23 18 17 19 18 18 22 22 16 16 19 21 24 30 35 40 41 42 41 40 41 43 45 52 54 56 54 55 56 56 58 55 56 56 59 63 61 58 65 58 74
36 35 34 51 34 22 21 19 22 27 23 16 20 22 23 29 32 35 37 38 40 43 45 45 47 47 49 52 52 53 54 54 56 56 55 58 54 53 57 62 68 72 73 72
48 70 83 24 25 20 22 19 20 22 20 19 19 23 28 29 33 35 36 39 41 42 44 44 44 46 47 45 49 51 51 53 53 54 54 52 53 59 72 75 80 77 79 71
78 50 30 28 29 29 31 26 19 22 19 19 28 34 41 34 33 37 41 42 43 43 44 44 45 44 45 46 47 48 50 50 50 52 53 54 57 63 67 64 67 71 68 68
62 56 75 30 20 22 24 32 18 20 22 26 34 44 29 42 43 44 42 42 44 44 44 45 46 44 47 50 52 55 55 53 52 52 55 60 63 68 67 66 70 77 83 88
59 66 39 26 24 24 40 35 23 21 23 31 38 28 38 43 46 42 44 46 46 45 47 47 46 48 52 54 56 53 53 54 56 57 64 67 72 80 83 85 84 80 69 60
58 81 73 29 29 34 29 33 28 31 28 37 40 46 47 47 47 47 47 46 46 49 50 48 46 48 52 57 55 55 57 60 62 64 60 55 54 48 44 46 53 57 71 60
45 42 33 31 26 26 29 27 33 32 30 36 46 46 47 47 47 46 44 44 46 50 55 52 50 51 55 55 50 49 47 47 47 46 45 45 49 50 46 48 55 60 57 62
50 30 34 34 26 30 28 29 27 28 33 41 44 46 47 47 47 46 43 44 45 49 51 54 48 47 48 45 43 46 49 49 48 48 44 41 35 34 37 46 50 48 50 52
44 35 42 38 32 28 31 34 34 30 36 38 43 45 45 48 48 44 44 47 46 51 54 53 49 50 47 44 42 46 46 45 45 45 36 33 31 39 44 48 60 58 58 56
54 31 34 25 28 32 35 39 35 36 40 38 40 44 45 48 47 47 50 48 51 53 53 52 49 48 45 43 42 43 41 41 52 47 43 33 33 36 70 66 66 67 68 72
34 37 36 48 42 36 37 36 37 39 38 42 41 44 46 51 51 58 51 54 55 55 54 49 48 48 43 44 42 42 39 43 45 48 42 42 44 45 47 53 57 57 60 63
51 52 49 48 41 48 43 42 50 40 41 44 46 46 51 54 58 55 57 55 54 53 51 46 45 44 40 37 40 44 47 64 44 44 44 49 50 53 53 59 66 61 53 55
54 56 58 50 50 51 49 50 52 52 52 52 51 56 59 62 60 59 58 56 57 56 50 45 43 42 39 37 34 38 38 42 53 59 61 58 56 55 54 58 60 58 55 51
62 60 60 59 57 58 57 55 55 61 60 62 64 64 58 58 61 60 59 60 64 60 50 73 52 42 42 36 36 38 51 66 62 55 56 56 55 56 53 58 60 60 59 61
72 76 75 71 68 67 64 62 63 66 69 66 66 66 67 68 68 67 71 71 76 76 69 64 50 41 44 37 35 37 44 52 66 54 54 56 60 61 58 62 64 63 65 71
60 60 60 63 68 70 71 73 73 72 74 78 94 94 92 91 94 95 92 87 85 76 60 54 50 45 40 40 42 47 52 52 54 59 57 66 63 58 64 65 63 65 67 67
65 67 68 66 67 73 80 88 90 92 96 95 94 97 97 97 94 93 93 92 90 75 61 56 66 54 50 60 52 55 60 66 61 57 63 66 70 65 70 74 72 73 70 70
87 81 87 90 90 93 94 95 94 95 97 97 97 96 96 96 96 95 85 79 68 63 56 57 53 54 56 59 54 53 66 74 62 66 74 70 77 81 78 71 73 76 80 80
92 91 95 96 97 97 97 98 97 98 98 98 96 96 96 95 93 90 83 77 74 65 61 64 57 54 50 53 47 76 74 77 76 75 80 81 82 78 79 80 80 81 82 81
96 96 97 97 96 97 98 97 96 97 96 96 96 96 94 90 90 88 84 73 70 72 65 64 61 73 63 63 58 75 71 70 74 77 78 80 81 82 82 81 81 82 82 82
97 96 96 96 95 94 94 95 96 96 96 95 95 94 88 80 68 71 74 68 67 76 64 73 82 83 76 79 78 78 78 77 78 78 80 82 82 82 82 81 81 81 81 80
94 93 94 95 94 89 88 89 85 86 91 87 87 82 72 80 82 71 74 81 81 79 81 85 85 78 85 81 80 80 80 79 80 81 78 84 82 81 80 82 81 79 80 79
94 94 92 91 86 88 86 84 80 79 80 79 78 76 78 78 86 85 86 85 82 71 77 89 75 73 81 81 80 80 80 80 81 82 81 82 81 81 82 81 80 81 83 83
84 85 87 89 88 86 86 83 85 85 82 86 85 89 90 86 84 84 86 84 74 73 75 81 82 82 81 78 79 79 80 76 79 79 81 81 80 79 81 80 81 81 83 83
87 87 82 82 82 84 85 84 86 88 88 90 88 88 85 88 87 78 80 80 79 79 79 79 79 79 79 79 78 78 78 78 79 78 81 81 80 82 82 82 82 83 84 84

GFSNGP_sfc_rhum_033.txt.gz
RH
20 16 14 15 17 18 20 22 33 25 20 14 13 13 12 17 16 16 18 23 26 29 35 41 45 46 45 52 52 50 50 51 59 61 59 60 67 69 72 74 68 68 72 70
24 16 14 17 14 14 16 17 18 18 18 12 11 11 13 14 18 20 24 28 33 36 39 44 45 46 50 52 51 49 48 50 52 53 52 55 56 57 60 60 59 58 60 56
42 21 21 36 22 17 16 13 15 22 17 12 12 14 15 15 20 23 29 33 35 35 37 38 39 42 46 45 45 47 48 49 51 51 54 56 52 51 52 54 56 63 69 74
48 65 66 27 17 16 19 15 14 13 12 12 13 14 15 16 21 28 30 34 36 36 37 37 38 39 41 39 42 44 46 48 50 51 51 49 49 51 56 58 60 62 60 56
65 50 30 20 19 21 21 19 14 15 13 14 14 21 25 22 24 29 32 32 33 34 36 36 36 36 37 39 40 42 45 46 46 48 49 50 53 58 58 59 58 60 56 56
57 55 60 31 18 16 16 30 15 15 16 17 19 41 22 27 28 32 32 34 36 36 36 37 38 37 40 42 44 47 48 47 46 46 49 56 65 67 71 67 70 65 76 80
65 56 38 20 15 15 39 32 16 16 17 18 21 25 26 32 36 33 33 35 36 36 38 38 38 40 43 46 48 45 45 46 50 55 61 64 66 68 70 69 70 74 67 56
61 65 70 19 21 29 25 21 22 21 19 22 22 33 35 36 36 35 36 38 36 41 42 40 39 41 44 47 47 49 51 53 56 57 53 50 48 43 38 42 49 55 61 58
40 42 32 25 24 21 18 22 24 22 18 21 35 36 37 37 36 36 37 36 37 40 44 43 41 41 45 48 46 47 44 42 40 36 35 35 39 40 37 40 48 54 48 53
44 33 26 25 22 19 20 23 20 21 20 24 36 36 37 36 37 37 34 36 38 44 46 47 43 41 45 43 40 41 42 41 39 37 36 33 27 27 31 46 47 46 47 49
38 29 28 28 26 24 22 24 23 22 22 27 33 35 35 37 37 35 35 38 41 43 45 45 42 42 38 37 36 38 39 38 39 38 32 30 32 36 43 54 58 55 58 54
53 31 37 30 24 22 26 27 28 25 27 30 30 34 34 37 36 36 39 41 41 44 46 45 43 40 37 36 35 37 39 40 48 46 38 28 31 51 69 63 65 66 65 69
37 35 35 30 34 28 24 24 27 27 27 30 31 32 34 38 38 48 43 42 45 46 46 42 40 40 36 38 38 39 40 41 46 46 39 38 40 42 41 68 63 65 62 57
31 40 44 36 31 35 34 28 35 28 28 31 32 33 36 40 45 45 45 45 44 45 45 42 41 41 39 35 36 41 43 68 39 39 40 44 44 48 48 54 62 59 62 51
40 43 44 44 39 44 36 36 38 35 34 36 36 40 44 47 48 46 46 46 45 43 42 45 46 41 34 32 31 37 37 40 50 56 57 55 52 51 50 52 56 56 51 54
47 48 46 48 43 46 44 43 41 43 44 46 46 47 47 47 49 55 51 51 54 52 55 70 54 43 38 32 35 41 51 62 60 51 52 52 50 52 49 54 56 56 57 56
59 56 57 57 53 53 50 48 48 50 52 52 56 60 53 66 70 73 70 66 79 80 71 66 58 48 44 37 34 37 45 53 67 50 51 52 57 58 54 58 61 60 62 70
54 53 52 52 56 59 60 60 62 63 68 69 90 90 89 88 86 85 89 92 94 95 93 87 73 46 41 41 40 44 48 48 52 57 55 64 62 56 60 63 61 61 63 64
60 60 59 59 58 66 76 87 92 93 94 92 91 94 94 96 96 96 96 96 95 89 84 79 75 52 49 58 48 53 58 64 59 54 63 62 69 63 67 71 69 70 68 68
88 86 88 90 90 94 96 96 95 96 97 96 96 96 96 96 96 96 95 94 90 83 67 56 52 54 52 54 58 53 64 70 61 60 69 70 74 78 75 68 69 73 77 77
95 96 97 97 98 98 98 98 97 97 98 97 96 96 96 96 96 95 93 87 83 71 65 61 54 50 48 49 46 72 71 74 73 73 77 78 79 75 76 77 77 78 79 78
97 97 97 97 96 97 97 97 96 96 96 96 96 95 95 94 94 93 95 85 84 75 62 61 61 72 61 71 56 72 68 68 72 75 77 77 78 79 79 79 79 79 78 78
96 96 96 96 95 96 95 95 96 95 96 96 96 95 92 90 89 87 88 71 66 68 64 77 78 76 66 78 76 76 76 74 76 76 78 80 81 81 81 79 79 79 79 77
94 93 94 94 91 85 87 90 88 91 95 93 95 96 89 89 87 74 76 79 76 82 85 84 83 72 79 78 79 80 79 80 80 81 79 76 81 82 80 80 78 77 76 76
94 93 93 92 88 90 89 89 86 86 86 84 84 80 77 77 86 88 86 83 76 73 88 84 77 73 79 79 81 80 80 80 84 79 77 80 80 80 80 79 78 78 77 78
81 80 82 86 87 84 84 78 84 84 76 81 82 86 86 80 78 79 81 75 72 69 76 78 82 76 78 81 80 78 78 77 78 80 81 78 80 80 80 76 76 77 78 78
77 74 70 73 74 75 76 76 82 85 85 90 88 83 80 80 81 72 78 76 76 76 80 78 78 81 75 80 77 79 79 78 82 78 76 79 80 79 78 78 78 78 79 80

GFSNGP_sfc_rhum_039.txt.gz
RH
26 27 28 29 29 31 29 34 48 49 46 37 33 27 23 29 23 24 24 23 39 48 52 58 66 72 75 81 81 85 91 95 97 97 96 97 94 90 86 87 88 87 89 90
48 26 26 30 31 29 26 29 35 34 36 29 24 27 40 28 27 25 24 26 29 49 56 60 66 77 75 78 80 81 87 90 91 90 92 92 90 89 87 85 83 85 88 91
51 47 40 53 38 28 29 24 24 44 36 24 25 27 27 28 25 26 25 32 38 55 60 67 73 75 78 77 72 74 76 75 77 79 80 83 86 85 83 84 89 92 93 92
77 66 73 37 27 26 28 24 21 20 22 23 20 20 22 21 26 29 38 47 60 67 72 74 71 70 70 67 71 72 72 72 73 72 73 73 75 79 85 88 90 92 92 94
80 62 56 46 29 29 31 29 24 23 22 20 20 22 34 29 34 44 50 59 62 64 64 67 68 66 64 66 67 68 72 71 68 70 69 71 76 80 84 85 87 87 84 88
97 73 76 54 34 25 30 44 26 28 27 29 29 45 43 40 47 54 53 51 54 56 58 59 63 60 62 65 67 69 68 67 65 66 70 80 87 90 90 89 85 83 88 88
95 96 74 40 29 30 50 51 33 29 29 34 37 44 41 51 52 49 48 51 54 53 57 60 58 58 64 68 70 66 64 68 72 75 82 84 88 90 92 94 92 93 92 95
99 94 85 54 37 38 44 38 32 33 33 35 44 46 47 46 47 47 50 51 51 56 59 60 59 59 68 70 67 69 72 77 79 78 74 78 87 88 86 92 94 91 94 96
87 90 68 49 56 60 51 47 42 36 26 36 50 48 49 48 48 49 49 50 52 57 63 63 60 59 66 72 69 72 75 77 77 74 75 77 87 81 78 84 85 87 87 96
64 55 58 50 55 54 67 57 45 32 32 46 50 51 53 51 51 50 50 52 54 58 62 67 60 61 68 67 67 71 72 70 66 61 56 52 60 64 72 83 87 84 83 89
71 56 52 46 59 66 68 60 54 47 46 40 55 50 47 52 52 50 50 57 56 62 66 70 64 65 62 60 56 60 61 56 61 61 60 68 75 71 68 77 82 85 95 88
88 60 62 52 57 58 54 72 60 52 52 46 49 52 51 54 53 51 59 60 64 68 66 65 60 60 59 57 55 57 59 65 77 76 69 60 69 73 69 68 66 67 73 81
48 50 42 40 43 47 48 50 48 46 45 49 52 53 53 55 58 67 62 64 64 63 60 58 57 58 65 62 63 66 70 63 74 69 70 79 77 77 85 78 69 67 65 63
60 61 62 58 60 53 51 49 53 47 40 42 48 54 57 59 63 62 63 61 59 56 56 54 53 56 56 56 59 68 72 77 74 79 80 79 77 81 86 87 92 88 69 64
70 64 64 59 56 55 52 54 55 57 53 61 62 62 61 62 64 64 58 52 51 51 51 53 57 61 62 65 66 73 73 78 81 83 82 79 82 85 82 83 83 84 86 81
72 71 68 72 69 60 63 68 69 75 70 67 68 71 68 66 66 62 59 60 65 68 65 75 67 59 66 67 74 81 88 92 92 92 91 90 88 84 78 80 84 85 86 88
88 93 88 87 81 91 88 83 82 82 80 81 79 76 72 76 76 76 77 77 82 85 86 90 91 86 90 93 91 93 94 95 96 93 87 87 89 86 82 87 87 86 91 92
79 83 85 88 92 94 94 92 91 89 90 86 88 89 90 90 93 93 92 91 91 94 95 96 95 94 96 96 95 94 94 91 88 88 86 93 85 78 87 87 87 88 90 89
86 91 91 91 91 94 95 94 93 92 92 91 91 94 94 95 95 96 96 95 95 94 97 95 95 95 94 94 92 93 95 96 89 86 86 85 92 91 92 94 92 93 92 94
89 87 87 89 90 90 92 94 92 94 96 95 95 94 95 96 95 95 94 95 96 95 95 94 93 92 92 91 93 90 92 93 85 88 92 89 96 96 95 94 95 97 98 98
95 95 95 95 96 95 96 96 93 95 96 95 94 95 95 96 95 94 92 91 96 95 94 94 93 90 83 80 88 96 95 94 93 94 96 97 98 97 97 97 97 98 99 98
95 95 95 94 93 95 96 95 95 95 95 95 95 95 94 95 95 95 96 93 94 95 92 92 91 89 82 95 87 93 91 90 94 96 97 97 98 99 99 98 98 99 99 100
95 94 93 94 94 96 95 95 95 93 94 95 95 95 94 95 94 93 93 94 92 94 90 91 84 82 90 94 94 94 94 96 96 97 96 95 96 98 99 99 99 100 100 100
92 91 95 93 83 83 91 94 92 94 94 94 96 96 92 94 95 93 93 94 91 91 92 90 87 88 95 97 96 95 96 97 99 98 97 97 100 100 100 100 100 99 99 100
91 89 90 89 89 93 93 92 88 87 87 88 89 86 85 87 92 95 90 92 91 91 95 90 91 92 95 94 96 97 98 99 98 99 98 100 100 100 100 100 99 99 99 100
90 91 90 90 90 90 90 83 90 94 88 93 94 94 95 92 94 94 95 95 93 96 95 98 98 96 97 97 98 99 100 99 99 99 100 100 100 100 100 99 100 100 100 100
84 80 80 84 82 79 84 88 92 94 93 94 95 94 93 94 92 93 94 97 92 94 96 97 96 96 96 97 98 98 100 100 100 100 100 100 100 100 100 100 100 100 100 100

GFSNGP_sfc_rhum_042.txt.gz
RH
69 51 31 30 31 34 34 41 51 43 48 35 34 35 34 31 27 26 26 26 45 48 51 63 77 86 85 57 63 70 76 79 74 90 91 95 98 97 96 96 96 94 96 95
80 53 39 32 27 31 30 36 40 36 39 35 30 32 33 31 27 25 25 26 37 48 55 71 81 86 90 95 97 92 92 91 94 96 96 96 94 93 93 94 94 93 94 93
90 65 50 53 34 28 38 33 34 47 40 33 33 32 35 30 27 26 27 29 32 50 58 71 80 81 91 93 93 95 96 95 96 96 97 95 93 92 92 90 89 92 95 95
98 82 93 45 31 24 32 31 30 29 28 28 27 25 28 31 27 29 30 32 47 56 74 87 90 86 84 83 86 88 91 93 93 94 95 94 93 94 94 90 91 96 96 95
94 96 70 49 38 42 40 34 30 30 24 22 23 29 31 31 26 25 34 43 56 67 82 84 80 76 77 80 80 82 88 86 85 85 86 86 87 90 90 90 93 94 94 94
98 90 97 61 39 32 35 51 29 25 27 29 29 44 38 33 36 48 60 67 76 78 78 76 78 74 76 80 82 84 78 77 74 74 76 82 87 89 91 90 89 89 95 94
96 94 87 65 54 36 55 54 38 31 32 32 39 40 32 49 58 60 60 66 70 71 73 72 71 71 77 78 80 76 72 74 78 80 83 84 89 89 93 95 95 97 96 89
94 98 94 65 59 64 70 70 62 58 39 38 40 51 53 56 60 60 63 66 65 68 69 68 65 67 74 78 78 77 78 82 85 85 82 84 89 92 90 92 95 98 95 92
83 76 68 68 69 58 66 76 71 68 59 50 46 51 55 57 58 58 58 60 60 64 70 71 66 64 74 83 79 82 83 84 85 84 85 87 93 96 96 93 94 97 93 95
85 60 61 58 59 66 57 64 64 60 60 50 56 55 56 57 58 59 60 61 61 65 69 76 72 70 78 78 78 81 85 88 87 73 74 72 70 80 85 90 92 95 94 96
73 60 56 52 50 60 51 67 66 57 62 59 65 62 66 64 61 57 60 63 62 67 73 77 75 77 76 76 74 75 71 67 69 76 74 68 67 71 78 82 82 87 92 90
81 52 51 48 46 53 50 61 65 65 66 56 52 52 56 62 63 58 67 69 71 74 76 76 72 71 68 64 62 63 66 71 77 77 75 60 63 76 74 72 76 76 78 83
85 74 63 57 47 55 55 53 62 61 57 56 59 63 61 62 64 76 70 69 70 68 65 66 70 73 68 65 62 65 71 72 79 78 76 75 75 77 84 80 71 68 71 76
75 74 73 68 70 62 57 55 56 52 55 61 54 60 64 72 72 70 69 62 56 57 61 63 65 68 65 63 64 72 76 80 76 76 76 82 85 85 85 87 93 94 78 67
81 77 80 76 70 74 71 69 74 75 72 72 69 70 70 69 65 60 54 52 53 58 61 65 70 74 70 69 70 73 72 78 84 89 90 90 90 93 93 93 94 94 91 81
78 82 80 86 85 82 78 77 78 79 77 76 75 72 66 64 64 66 64 65 74 83 81 90 88 85 83 82 85 88 91 94 92 93 94 95 96 95 94 94 93 93 94 92
95 94 93 93 92 91 90 85 84 84 85 83 81 79 76 78 78 81 85 84 89 94 94 93 96 95 95 95 93 94 94 95 96 95 95 95 95 95 94 95 95 95 94 92
94 97 96 92 92 93 93 91 89 88 88 84 87 88 90 90 93 93 94 94 94 94 95 96 96 96 95 95 95 94 94 94 94 95 94 95 94 94 95 95 94 91 91 90
83 87 89 88 91 89 89 90 91 90 90 88 89 94 95 95 95 95 95 94 94 94 96 95 95 94 94 95 94 94 94 95 95 94 94 94 96 94 94 96 96 96 95 95
91 90 86 89 89 91 92 95 92 93 95 94 94 94 94 95 95 94 92 95 95 95 95 94 92 92 94 94 94 93 95 95 94 95 96 95 96 97 96 94 95 96 97 96
95 95 95 94 96 96 95 96 94 95 96 95 93 94 95 96 95 94 91 90 96 94 93 93 91 92 92 93 92 95 95 95 95 95 96 97 97 97 97 97 98 99 98 98
96 95 96 95 94 95 96 95 95 95 95 94 95 94 93 95 94 94 94 92 92 93 90 91 91 94 93 93 90 92 91 93 95 94 95 95 96 97 98 98 98 100 100 100
96 95 95 94 94 95 93 93 93 91 93 93 94 93 93 93 91 88 92 92 90 88 80 88 92 92 91 92 93 94 96 96 97 97 98 98 99 100 100 100 100 100 100 100
93 92 94 91 83 83 91 92 89 90 91 92 94 91 85 91 94 90 89 87 87 88 91 93 92 89 90 94 96 97 98 99 99 100 99 100 100 100 100 100 100 100 100 100
92 91 89 88 88 92 91 85 84 84 86 87 88 87 88 87 92 97 95 94 89 92 96 96 94 94 97 98 98 99 100 100 100 100 100 100 100 100 100 100 100 100 100 100
87 84 83 88 90 89 88 86 93 92 88 93 94 94 95 94 94 94 94 93 94 96 97 96 95 96 98 99 100 100 100 100 100 100 100 100 100 100 100 100 100 100 100 100
88 85 85 85 82 86 91 92 94 96 95 95 96 95 95 96 96 94 97 96 98 98 99 100 100 100 100 100 100 100 100 100 100 100 100 100 100 100 100 100 100 100 100 100

GFSNGP_sfc_rhum_045.txt.gz
RH
86 64 56 59 58 48 38 36 45 43 47 36 36 35 34 35 32 29 28 35 44 51 52 53 55 54 51 53 61 69 72 76 78 80 80 89 92 93 94 96 95 96 98 98
90 55 55 59 53 51 42 36 44 39 44 37 33 37 37 36 34 30 28 29 32 46 52 58 61 63 71 66 73 72 71 79 81 93 97 98 98 99 99 99 99 98 98 98
86 80 64 62 67 49 40 31 39 46 38 31 38 38 37 32 35 32 29 29 29 44 46 54 69 83 88 94 94 83 84 89 92 97 98 98 98 98 99 98 97 98 98 97
97 85 76 36 50 36 46 34 30 32 33 32 34 32 35 34 32 35 33 31 32 30 57 71 89 94 98 98 97 96 97 98 98 98 98 97 96 97 97 95 97 98 98 96
96 96 66 45 42 54 74 73 43 32 30 26 24 29 30 31 37 34 33 31 30 33 65 91 92 95 96 97 98 97 98 98 98 98 97 95 95 93 92 92 93 95 93 93
98 96 86 29 45 45 62 82 52 60 45 32 31 43 36 27 32 38 40 42 63 88 92 91 92 90 93 95 97 97 95 91 90 90 91 93 96 95 96 95 97 95 98 98
95 95 86 61 57 61 93 81 71 69 70 61 48 29 30 34 35 47 58 76 89 88 87 86 85 86 92 93 94 90 87 85 83 83 88 92 94 92 94 96 97 98 95 92
90 99 92 56 78 78 82 69 73 68 70 74 68 56 48 44 53 69 74 84 87 89 88 85 81 82 89 93 86 82 83 85 86 85 85 87 92 95 94 97 97 96 94 92
84 81 64 72 72 66 65 72 71 75 64 71 69 55 54 61 68 72 76 80 81 82 83 83 81 77 86 91 83 86 88 91 92 91 94 94 95 97 98 97 97 96 92 93
82 55 54 50 55 60 60 71 61 61 69 71 66 63 67 67 72 75 75 76 75 76 79 83 80 82 86 86 83 86 92 93 89 88 85 83 83 90 94 97 96 92 90 89
67 60 59 50 57 59 61 62 62 62 63 68 70 69 71 69 70 71 70 71 74 78 82 88 84 87 85 85 84 83 80 81 83 78 75 73 75 77 82 86 92 93 94 88
88 86 90 69 55 60 63 55 57 67 58 58 61 65 68 78 73 72 79 75 81 83 84 84 81 80 78 76 74 76 79 80 80 73 70 66 68 73 78 81 83 84 83 85
92 84 85 81 71 68 68 67 64 67 65 67 59 65 68 77 80 82 75 72 74 76 75 73 73 73 69 70 72 75 77 75 75 72 73 77 78 79 87 79 76 75 74 74
84 85 90 82 86 72 73 73 66 66 69 71 74 73 78 77 70 68 68 67 66 69 73 72 72 72 69 69 71 75 76 80 77 79 79 81 82 85 84 87 95 96 88 82
88 79 84 83 79 77 73 72 75 77 75 73 66 66 65 66 69 67 66 67 71 77 79 80 81 81 71 68 70 74 77 83 88 92 93 94 93 94 94 96 96 96 96 96
92 81 83 88 86 85 83 83 84 84 79 78 78 79 79 78 82 84 83 81 84 91 89 92 92 94 92 92 93 94 95 96 96 95 96 96 96 95 95 95 96 96 96 95
96 94 95 93 90 91 90 85 84 85 82 82 81 79 78 80 82 86 88 89 92 95 96 95 96 96 96 96 95 95 95 95 95 94 93 93 94 95 95 95 95 95 96 96
96 94 90 88 87 86 88 86 86 86 88 85 88 89 90 90 92 94 94 94 93 94 95 96 96 95 95 95 95 94 94 94 93 93 92 94 94 93 94 94 94 94 95 95
89 89 91 88 88 90 88 89 91 93 94 91 91 94 95 94 94 95 94 94 94 93 96 95 95 94 94 95 92 91 92 93 92 92 93 94 95 94 95 96 95 96 95 94
91 91 87 89 90 92 92 95 94 94 95 94 94 94 94 95 94 94 92 95 95 95 95 95 94 94 93 92 90 89 92 94 92 93 95 94 96 96 96 94 95 97 98 98
94 93 94 94 95 95 95 95 94 95 96 95 94 95 95 95 95 94 92 90 96 94 94 94 92 93 91 91 88 94 94 94 94 95 97 97 96 96 97 98 98 99 99 99
95 93 94 94 94 95 95 95 94 94 94 94 95 94 93 94 94 93 95 93 93 93 90 91 90 90 86 86 86 92 90 90 93 94 96 97 97 98 100 99 100 100 100 100
96 95 95 95 95 95 94 94 94 93 94 94 94 94 93 93 92 89 92 87 86 90 88 90 86 88 90 94 95 96 96 96 97 98 98 100 100 100 100 100 100 100 100 100
92 91 94 92 84 84 90 92 88 90 91 91 94 92 86 92 93 86 87 92 94 93 93 93 94 96 97 98 98 99 100 100 100 100 100 100 100 100 100 100 100 100 100 100
90 90 89 88 89 92 89 86 86 86 87 89 89 88 90 90 94 98 96 96 96 96 97 99 100 100 100 100 100 100 100 100 100 100 100 100 100 100 100 100 100 100 100 100
86 87 89 92 93 91 90 87 94 93 90 94 95 96 96 95 95 95 96 98 97 98 98 100 100 100 100 100 100 100 100 100 100 100 100 100 100 100 100 100 100 100 100 100
89 86 85 89 89 91 94 93 95 98 99 100 98 98 96 96 97 97 100 99 100 100 100 100 100 100 100 100 100 100 100 100 100 100 100 100 100 100 100 100 100 100 100 100

GFSNGP_sfc_rhum_048.txt.gz
RH
78 74 70 62 57 56 58 66 68 56 45 38 36 33 33 33 36 31 28 29 42 50 55 56 64 67 67 69 74 75 72 73 76 78 79 77 78 80 84 92 92 90 94 97
92 72 68 63 57 54 56 58 59 51 46 36 32 36 39 36 36 36 32 30 30 44 52 56 56 62 64 66 72 77 78 78 75 79 81 83 82 84 88 92 92 95 98 98
82 78 68 76 61 52 51 44 52 62 52 36 34 36 39 36 38 38 35 32 31 36 44 52 58 58 62 62 74 78 78 79 81 82 85 87 88 92 96 97 99 99 99 99
97 86 85 46 53 48 49 51 56 54 49 46 38 29 32 37 36 38 37 34 34 33 41 49 58 83 88 91 83 80 84 90 92 93 93 94 98 98 99 99 99 99 99 99
98 96 72 49 42 42 59 32 50 43 54 68 52 36 31 33 36 37 37 40 36 32 33 47 83 92 94 98 96 94 96 96 96 96 98 98 99 99 99 98 99 99 99 99
94 98 89 51 54 64 65 64 74 77 80 76 74 72 37 29 31 33 37 42 44 47 70 80 92 94 96 98 96 99 99 98 98 98 98 98 98 98 98 96 98 96 98 98
84 95 82 64 58 68 76 60 70 68 73 78 85 67 53 53 50 33 34 36 69 86 85 90 96 94 97 98 98 96 94 95 95 93 95 93 93 93 94 97 97 96 94 90
88 98 89 58 79 69 63 70 69 65 75 79 73 70 68 62 58 54 63 83 90 90 95 97 95 93 97 98 91 87 88 89 89 89 87 87 91 93 93 92 96 96 95 92
84 79 66 72 75 71 69 72 70 74 64 61 68 70 68 66 75 82 88 92 93 95 96 95 94 92 96 96 92 91 91 91 92 90 90 89 92 96 96 93 96 96 93 93
82 63 61 57 58 59 64 69 65 58 55 58 69 72 74 73 77 81 82 89 85 86 90 92 90 94 94 94 90 90 94 94 91 89 89 92 96 96 95 97 96 92 90 88
69 60 71 53 70 80 70 65 63 62 59 62 65 67 78 77 77 79 84 84 83 90 94 97 94 94 89 88 86 90 89 88 88 87 86 88 89 88 90 91 89 91 89 84
86 97 94 91 82 77 78 83 77 68 66 72 72 72 75 88 87 84 87 87 86 86 86 85 84 86 84 81 83 86 86 84 86 84 80 76 80 85 90 91 89 87 84 86
92 86 92 87 83 74 75 72 71 73 68 70 76 80 78 81 77 79 76 77 78 78 76 75 76 79 81 82 83 85 82 78 80 78 76 76 77 82 90 94 95 95 95 94
80 86 89 85 91 77 74 71 69 66 67 68 67 65 70 72 75 80 83 82 82 82 83 81 82 80 76 75 75 77 78 81 78 81 88 93 94 94 94 94 95 96 89 82
86 84 85 82 78 79 74 73 77 80 77 78 77 80 81 86 86 85 82 80 81 85 90 91 94 96 93 89 90 92 92 94 95 96 96 96 96 96 96 96 95 95 96 96
84 87 81 84 84 82 81 83 85 85 82 81 82 82 82 81 83 84 83 81 85 91 88 93 94 96 96 95 95 95 95 96 95 95 95 95 95 95 95 95 96 96 95 95
88 90 90 88 88 87 87 83 82 83 82 82 85 82 79 80 81 85 89 88 90 94 95 95 96 96 96 95 94 95 95 94 95 94 94 94 95 95 94 95 95 95 95 96
92 94 90 89 87 84 87 84 84 83 86 90 94 93 94 91 93 94 95 94 93 94 95 96 96 95 95 95 94 94 93 93 93 93 92 93 93 92 94 94 93 94 94 94
91 93 94 90 92 86 90 90 91 92 93 94 94 95 95 95 94 95 94 93 93 92 96 95 95 94 94 94 91 90 91 92 91 91 91 92 94 92 94 94 95 95 94 94
92 91 90 91 88 91 92 95 94 94 95 94 93 92 94 95 95 94 93 94 96 95 94 94 91 92 92 92 91 90 93 93 90 92 93 93 95 97 96 95 95 97 99 99
95 94 95 94 95 95 95 95 93 94 95 94 93 95 95 95 95 94 92 90 96 94 93 92 90 89 82 80 82 92 92 92 93 94 96 96 96 98 99 100 100 100 100 100
95 94 95 94 94 95 95 95 94 94 94 94 94 94 93 95 94 93 94 93 92 88 82 83 85 90 86 87 86 93 92 94 96 96 98 99 100 100 100 100 100 100 100 100
95 94 94 95 95 95 94 94 94 94 94 94 94 95 94 92 86 87 93 88 81 84 82 92 94 95 95 96 97 98 98 98 99 100 100 100 100 100 100 100 100 100 100 100
94 94 95 95 89 85 91 92 88 91 92 91 96 91 85 93 95 90 90 94 96 98 99 99 99 100 100 100 100 100 100 100 100 100 100 100 100 100 100 100 100 100 100 100
94 92 89 88 87 91 89 84 85 86 87 88 89 87 88 89 95 97 97 97 97 96 99 100 100 100 100 100 100 100 100 100 100 100 100 100 100 100 100 100 100 100 100 100
87 89 90 91 92 91 90 87 94 94 91 95 95 97 97 96 95 96 97 98 97 99 100 100 100 100 100 100 100 100 100 100 100 100 100 100 100 100 100 100 100 100 100 100
89 87 86 89 90 91 93 93 96 100 100 100 99 98 97 99 100 98 100 100 100 100 100 100 100 100 100 100 100 100 100 100 100 100 100 100 100 100 100 100 100 100 100 100

GFSNGP_sfc_rhum_051.txt.gz
RH
50 52 62 57 49 45 50 49 56 42 45 38 34 33 30 27 27 27 26 26 28 34 41 50 56 61 60 60 64 63 60 61 65 67 66 65 70 71 72 72 70 69 73 75
76 65 58 62 52 47 46 44 43 48 50 36 33 30 33 31 28 29 28 27 27 30 35 48 53 56 58 62 65 64 63 64 60 64 64 69 67 70 72 73 72 76 77 79
68 71 61 64 59 48 40 33 37 40 29 38 39 36 37 33 30 30 30 29 30 29 32 39 44 52 54 57 62 69 66 63 63 66 68 71 69 67 69 73 74 82 87 91
86 80 73 37 42 40 43 39 33 36 40 39 40 46 48 42 32 30 30 31 32 30 30 33 41 44 49 47 59 67 68 68 68 70 70 70 73 75 78 83 90 97 99 99
88 79 56 40 35 33 42 31 45 56 54 52 50 58 49 36 34 40 40 34 30 29 31 31 38 45 52 55 57 60 66 69 70 73 73 77 85 98 99 99 99 99 99 99
92 78 79 45 53 52 47 48 48 56 50 51 57 71 53 47 51 57 53 49 40 30 36 35 34 58 60 62 68 66 65 71 77 81 94 97 98 98 99 98 98 96 98 98
92 87 69 50 43 50 56 43 47 53 49 57 61 55 53 58 59 52 50 48 41 41 42 47 62 69 71 79 82 92 94 94 94 92 97 96 95 94 94 95 94 96 96 95
82 94 84 47 63 64 48 55 54 51 54 63 59 59 54 57 57 57 61 65 62 62 71 84 81 79 85 90 93 92 93 94 94 94 94 93 93 92 91 92 95 96 96 94
72 67 56 55 60 58 60 64 60 60 52 57 58 57 63 64 62 62 64 72 77 78 86 87 82 83 93 94 90 91 93 95 96 94 90 90 92 94 95 92 94 96 93 94
69 52 51 48 51 72 66 73 69 63 58 55 64 69 77 68 68 70 69 72 73 79 87 94 86 84 88 88 87 90 94 94 92 94 95 94 90 90 93 95 95 93 89 86
66 54 62 55 78 77 71 67 66 64 65 76 78 79 84 80 78 77 76 78 80 87 92 94 88 88 85 85 82 87 87 87 87 87 89 92 92 92 92 88 83 84 84 80
68 90 89 79 70 75 74 72 67 69 72 72 76 76 78 82 78 80 76 72 74 77 80 84 84 84 83 80 79 79 80 80 83 82 82 81 86 93 94 90 88 86 85 87
81 83 81 79 76 73 75 71 68 68 69 73 68 68 74 82 80 83 82 80 79 82 84 83 78 80 77 76 73 76 76 73 76 76 77 79 80 80 87 96 95 95 95 94
86 85 83 84 86 74 72 68 66 66 70 73 71 71 77 83 87 83 86 85 82 82 86 86 88 94 93 85 81 86 90 93 89 89 91 93 94 94 93 91 91 92 94 89
79 81 93 88 76 74 70 68 72 75 74 77 76 79 77 82 84 83 77 74 75 82 88 89 91 96 97 96 95 96 94 95 96 96 96 94 91 92 90 88 88 90 90 91
76 73 82 84 80 78 77 75 77 79 76 77 78 79 81 81 83 82 81 78 83 91 89 94 94 96 96 95 96 95 94 96 95 93 93 93 93 92 89 88 88 87 85 85
83 82 81 83 83 84 86 82 79 78 83 83 84 81 78 82 83 86 92 93 94 95 96 95 96 96 95 94 92 92 92 92 92 91 91 92 92 92 89 87 84 83 87 90
91 92 91 91 90 90 88 87 88 88 88 90 92 93 94 93 94 95 95 93 91 92 94 96 95 94 94 93 90 87 87 88 88 89 85 85 82 80 81 81 80 82 85 87
87 88 90 89 91 91 89 89 90 90 92 94 93 94 94 94 94 95 94 91 92 91 96 95 92 89 90 86 78 77 79 82 81 80 81 83 84 80 84 85 84 84 78 78
91 92 90 91 89 90 90 94 91 92 95 94 94 93 93 95 94 94 91 94 95 94 93 93 90 90 88 85 78 75 82 83 79 83 85 83 87 89 86 82 82 85 87 88
94 93 94 94 95 95 95 95 92 94 95 94 93 95 95 95 94 93 90 88 94 89 80 79 75 70 66 65 67 84 83 86 86 86 88 88 88 86 86 87 87 88 90 90
95 95 95 95 94 95 95 95 94 94 94 94 95 94 93 93 93 92 91 86 74 75 72 73 74 86 76 75 73 83 81 81 83 83 85 84 85 87 89 88 90 91 90 90
95 95 95 95 94 95 94 94 95 94 94 94 94 93 92 87 76 78 84 77 72 79 73 83 89 90 88 87 88 89 88 87 87 87 88 88 88 88 88 88 89 87 85 84
94 93 93 93 89 84 87 89 83 85 90 87 93 90 77 88 90 79 80 87 91 91 93 93 94 95 92 91 92 93 91 90 90 89 89 94 93 92 90 89 87 87 87 87
92 89 86 84 82 83 82 79 78 78 81 82 82 81 82 79 87 89 87 87 88 84 90 97 98 98 94 94 93 92 91 89 90 89 92 93 93 93 92 90 91 89 89 89
83 83 84 87 84 79 79 76 84 84 80 89 90 93 94 89 86 83 86 86 81 83 86 90 94 94 94 92 91 91 89 87 88 90 93 92 92 89 90 89 89 89 91 92
83 81 78 80 80 80 81 81 87 92 92 92 93 92 90 90 90 86 95 90 89 90 92 94 95 96 94 93 92 92 91 92 98 91 94 92 91 91 91 91 92 92 92 92

GFSNGP_sfc_rhum_057.txt.gz
RH
28 31 30 27 31 31 32 30 38 31 29 21 19 18 15 14 15 15 16 20 20 19 17 16 21 29 31 34 38 43 42 42 47 55 55 55 58 59 59 61 57 55 58 58
54 32 31 35 30 27 25 24 25 23 23 16 16 16 16 16 15 17 20 26 28 28 24 21 19 18 26 32 36 39 44 45 43 49 52 56 56 59 61 61 58 58 58 59
71 40 36 44 34 30 28 24 25 30 22 15 16 16 18 20 23 24 27 32 35 34 33 30 26 23 22 25 32 36 41 44 43 46 50 54 54 53 56 60 59 59 60 60
63 53 81 28 20 20 24 21 18 17 16 18 20 21 21 20 28 33 34 37 36 35 36 34 31 27 26 19 24 31 36 40 42 45 47 49 52 53 57 58 61 62 61 61
58 51 33 22 20 21 23 18 16 17 22 23 24 25 23 27 30 33 34 36 36 36 39 40 39 34 28 22 21 22 31 36 39 42 44 46 50 55 58 60 62 64 64 65
59 59 55 27 20 25 21 26 24 28 30 30 28 40 28 30 32 34 30 33 36 39 41 44 46 44 40 26 22 24 25 32 36 38 41 46 50 56 60 62 71 87 95 97
60 58 38 20 22 22 45 46 35 32 32 34 36 32 31 31 35 34 34 34 39 44 51 59 62 61 57 46 37 25 24 26 36 39 42 47 51 55 82 87 93 96 96 97
60 67 61 25 26 38 56 42 39 39 41 48 41 34 30 37 38 39 37 38 39 49 59 67 72 73 72 62 57 61 57 53 70 72 74 80 88 92 92 94 96 97 97 97
42 44 35 29 44 46 44 45 45 46 42 44 42 39 39 41 40 43 43 45 46 52 64 71 74 78 87 84 83 83 79 85 88 88 88 89 93 96 96 95 97 97 96 96
61 33 42 30 39 43 43 46 42 41 41 42 48 46 44 45 46 49 49 53 55 59 65 79 79 79 84 87 86 90 94 95 93 94 93 92 91 93 95 96 96 93 93 93
41 33 30 27 44 51 46 44 44 42 44 46 48 47 47 48 54 58 63 66 66 74 70 82 83 85 85 88 87 92 92 91 92 92 93 93 95 95 96 95 91 91 92 90
48 52 52 43 44 48 49 50 48 51 50 48 49 50 52 59 65 69 77 81 79 84 81 87 89 91 89 92 93 92 93 92 93 93 92 89 89 92 95 94 95 94 94 91
56 59 58 52 47 52 55 53 52 51 51 53 49 51 58 70 71 74 75 83 90 92 90 92 95 95 96 97 97 95 95 91 91 93 92 91 90 87 91 96 96 97 96 96
54 56 60 66 67 61 58 54 54 51 54 55 56 56 61 67 70 77 82 82 82 87 92 92 94 96 97 98 98 98 96 95 92 94 95 96 96 95 94 94 94 95 96 94
53 48 53 61 68 66 62 61 66 66 67 66 65 69 71 73 76 81 81 80 81 86 93 91 93 97 97 98 97 97 97 97 97 96 97 96 95 94 93 93 93 94 92 92
50 47 56 66 64 60 60 62 68 71 69 70 74 80 79 75 82 85 81 76 77 86 92 94 93 97 96 96 97 96 95 96 96 95 95 94 92 91 90 91 92 92 92 91
66 65 67 69 67 66 67 66 66 69 72 75 84 84 82 79 78 83 89 91 90 94 95 95 96 96 95 95 95 94 95 94 92 89 89 86 85 85 85 86 88 90 91 85
73 77 76 77 78 71 76 79 75 74 79 81 88 90 91 91 92 93 94 93 92 93 94 95 94 93 93 94 92 89 89 86 84 86 82 80 76 74 77 80 80 81 77 74
80 78 78 80 83 80 81 86 87 86 89 91 92 94 94 93 93 93 93 90 90 88 90 78 72 74 76 74 69 74 77 76 75 73 73 76 80 74 78 78 74 73 68 69
80 78 78 82 85 88 87 91 90 90 93 92 92 92 92 93 92 89 86 88 82 73 72 70 58 59 57 61 63 59 67 72 64 68 72 68 75 77 73 67 69 74 77 76
84 85 88 88 92 92 91 92 90 90 92 91 91 92 93 90 83 76 71 68 74 64 61 62 62 52 48 49 52 72 70 73 73 74 76 76 76 73 75 75 75 77 78 76
85 87 90 90 90 91 91 91 91 92 92 92 91 89 78 76 75 75 77 69 60 62 58 61 61 68 60 63 59 72 68 68 72 73 75 76 76 77 77 76 77 77 77 77
88 88 89 90 91 92 90 90 90 87 83 80 79 78 74 66 62 68 72 63 58 67 60 73 72 72 69 76 75 75 73 73 75 75 77 78 78 78 77 77 76 76 76 76
89 90 90 90 87 77 78 74 68 71 75 72 77 77 62 72 73 58 59 64 67 72 79 80 76 70 69 77 77 77 77 77 76 77 72 70 77 75 75 76 75 75 75 74
88 87 78 69 63 63 64 59 56 57 58 58 59 57 58 58 76 72 71 69 70 65 74 74 71 69 76 77 77 77 77 79 80 78 76 76 76 76 76 75 76 77 77 76
65 62 63 64 58 52 51 49 55 57 55 66 69 75 75 68 64 64 69 65 66 64 72 76 78 76 76 74 74 74 74 72 75 72 74 73 74 73 75 75 76 76 78 78
61 56 53 53 52 54 57 56 64 68 70 74 73 71 68 71 72 63 68 71 71 72 74 75 75 73 74 76 73 71 71 72 84 72 75 75 75 76 77 78 78 79 78 79

GFSNGP_sfc_rhum_060.txt.gz
RH
48 44 40 40 45 35 43 61 73 48 40 44 44 41 21 17 18 18 19 25 31 35 36 34 34 34 36 41 48 52 54 48 51 61 65 68 71 70 70 70 68 66 66 64
65 45 34 34 38 61 58 28 30 40 56 32 27 16 19 19 19 23 27 34 35 35 35 38 38 36 36 35 42 47 53 52 49 52 57 63 64 68 70 71 69 69 69 69
74 51 43 51 35 42 45 24 24 32 25 24 19 17 19 24 25 34 35 38 39 39 41 42 43 43 42 39 35 39 48 50 50 51 53 59 62 63 66 69 70 71 70 70
84 84 78 32 20 22 27 24 23 23 23 19 20 21 20 30 36 36 34 38 39 40 42 44 47 51 53 46 43 34 33 43 48 51 52 52 59 63 66 67 71 72 72 73
95 75 64 43 24 22 24 26 19 17 18 20 23 26 34 31 33 36 37 36 39 41 45 51 58 60 62 59 53 50 44 29 39 46 51 52 56 62 65 68 71 73 72 75
70 75 83 35 26 22 20 34 23 27 31 31 30 53 53 37 34 36 38 38 41 44 47 57 64 67 70 67 64 68 71 63 53 35 46 51 56 61 66 69 72 85 96 97
73 72 48 22 20 22 42 62 41 36 41 42 46 40 35 34 37 35 40 42 46 48 54 62 65 68 75 76 77 73 77 74 75 78 55 52 58 64 71 90 96 98 98 98
65 67 65 21 24 35 64 59 52 49 46 53 44 39 38 42 43 44 44 46 51 55 58 62 64 68 74 78 80 78 80 80 82 85 85 86 92 94 94 96 97 98 98 97
46 47 39 32 51 47 46 56 54 48 42 43 44 44 41 45 48 49 51 55 58 63 64 65 66 68 79 82 83 84 87 89 89 88 88 90 95 98 97 97 98 98 96 97
58 41 28 52 48 44 44 47 43 43 44 45 50 47 48 48 56 58 62 67 65 68 71 74 71 72 80 80 84 85 89 91 90 91 92 90 93 94 97 98 97 94 94 94
54 57 72 77 65 48 45 46 48 46 49 51 51 52 55 62 64 66 70 72 70 76 77 80 76 78 78 85 81 87 89 90 92 91 92 92 94 93 94 96 92 93 95 92
81 70 81 83 54 48 52 53 52 52 53 51 53 57 61 68 68 72 78 80 80 82 82 84 82 86 87 87 86 89 92 90 94 92 93 90 88 92 95 95 95 94 94 91
64 52 56 57 56 55 56 55 52 53 55 58 56 58 62 70 72 75 76 81 91 93 92 93 93 93 94 95 92 94 97 95 91 94 94 93 90 85 91 95 95 97 95 96
48 50 57 61 70 61 59 57 56 56 58 60 61 61 65 68 71 78 86 86 83 88 92 94 93 95 97 96 92 94 96 96 94 94 95 96 96 96 96 94 94 95 95 95
52 48 62 58 55 55 54 57 64 65 64 65 66 70 70 74 78 83 83 83 82 84 91 91 92 96 96 96 95 94 94 96 97 97 97 96 96 96 95 95 95 95 94 95
53 53 52 62 58 57 59 60 67 69 68 69 72 73 72 72 76 82 84 84 83 90 92 94 92 96 96 95 95 93 93 95 96 96 95 94 95 93 92 94 94 95 95 95
69 74 69 71 66 68 70 68 67 71 73 78 85 85 82 75 76 82 91 93 94 94 95 95 96 95 95 96 96 94 94 95 96 95 95 96 95 94 94 93 93 92 93 88
76 78 78 82 84 74 77 76 76 77 85 86 91 93 94 93 94 95 95 94 92 92 94 92 89 88 91 93 93 94 91 83 81 85 85 87 86 85 87 86 84 84 83 81
76 75 79 79 75 75 77 81 87 89 92 93 92 94 95 94 94 95 94 93 93 91 89 81 70 71 74 73 70 71 74 79 80 78 78 80 83 81 84 85 86 85 83 84
76 76 77 81 82 80 87 93 91 93 94 93 93 94 94 95 95 94 89 90 85 80 76 76 69 68 64 68 71 69 78 80 74 79 82 82 86 87 84 81 84 87 88 88
86 88 91 91 94 92 93 94 92 93 94 93 93 94 92 87 86 84 78 78 81 74 70 70 72 64 58 60 63 81 81 83 84 85 87 87 86 85 87 87 88 89 90 90
91 93 94 92 92 94 95 94 90 92 91 91 91 90 89 87 84 81 81 77 69 73 69 72 73 80 74 74 72 81 79 80 84 86 88 88 89 89 90 89 90 90 90 90
93 90 91 93 93 92 91 90 89 87 90 91 90 83 77 71 68 75 78 66 65 75 67 80 82 82 83 84 85 85 84 84 85 86 88 89 88 89 88 88 90 90 91 90
91 89 90 89 88 77 80 75 68 74 82 76 83 83 74 82 82 67 65 73 82 86 85 86 86 84 82 87 88 87 86 87 92 88 86 86 89 90 92 91 91 91 90 91
84 82 79 74 64 65 64 60 58 58 61 60 62 59 62 62 83 77 80 78 79 76 86 86 86 84 85 86 86 87 89 89 90 88 88 89 88 91 89 89 91 91 94 93
65 63 63 65 59 53 52 52 61 65 62 76 76 83 83 78 73 76 80 75 77 72 81 88 86 85 86 86 85 86 86 88 85 86 88 89 89 90 92 90 92 93 94 94
60 63 55 56 55 59 64 68 74 78 84 83 80 78 74 80 79 73 79 81 84 84 87 86 88 85 85 87 84 83 84 86 95 89 91 90 90 91 94 93 93 92 94 95

GFSNGP_sfc_rhum_063.txt.gz
RH
72 60 61 71 68 50 58 59 90 74 78 62 77 68 42 25 31 40 42 43 44 48 49 48 49 51 52 57 64 74 68 68 81 84 82 81 80 76 76 77 75 72 74 72
78 55 52 58 57 46 64 64 59 68 83 72 72 71 57 32 41 45 47 45 45 45 48 54 61 66 65 63 63 58 70 66 62 74 81 82 82 82 81 79 77 76 73 73
89 65 74 72 51 66 72 72 63 91 57 67 69 54 41 46 42 45 47 48 50 51 57 64 68 67 70 67 64 62 62 60 64 61 68 76 77 79 80 81 80 79 77 77
97 72 95 57 47 46 54 61 48 30 38 28 37 43 44 45 46 47 49 51 54 57 65 69 70 72 72 70 69 69 75 74 75 79 68 61 70 74 76 77 80 80 79 78
97 89 69 54 46 33 42 40 32 29 28 32 42 44 48 42 46 51 55 54 54 60 68 71 70 68 71 72 73 73 77 77 75 78 80 82 69 71 70 72 75 78 79 80
95 89 91 64 41 30 30 68 50 48 49 48 49 67 59 49 51 54 56 56 57 59 65 69 69 67 70 72 74 78 78 78 78 77 82 86 88 80 69 71 75 79 96 98
84 91 80 46 34 28 55 84 61 57 58 56 60 62 55 54 56 56 60 63 63 63 67 70 67 68 73 74 79 75 75 76 77 79 84 86 92 96 81 89 99 99 98 99
90 90 83 35 52 58 80 71 61 58 60 63 57 55 59 59 63 66 69 67 66 70 70 69 69 72 78 81 77 79 77 78 81 82 82 83 94 97 98 98 98 98 98 98
70 71 64 64 69 71 66 65 62 61 57 56 58 61 64 66 68 70 71 71 67 69 71 74 74 76 82 84 81 81 81 83 83 81 81 84 91 96 97 98 99 98 98 97
75 80 80 90 72 55 54 59 57 56 56 57 63 64 67 68 72 73 71 72 70 72 77 82 79 78 81 83 82 81 84 85 84 85 84 86 86 89 95 97 97 96 96 96
81 88 91 87 84 72 61 55 56 56 58 60 65 70 71 73 74 74 74 72 73 78 80 84 81 84 84 88 84 85 84 86 87 85 86 84 90 93 91 96 95 94 96 94
99 96 94 96 80 74 70 59 60 61 65 63 67 71 72 77 76 78 86 82 81 86 86 89 88 89 89 90 88 87 89 91 94 93 92 87 82 88 95 95 94 95 96 94
93 89 86 79 72 62 60 62 63 66 65 69 66 69 73 79 78 79 83 87 93 95 94 94 94 94 94 94 91 90 92 91 88 89 90 93 95 92 92 90 91 96 96 96
58 68 74 67 70 62 61 61 64 64 67 68 68 69 76 80 80 86 92 92 89 89 92 92 92 95 96 94 92 93 92 94 94 95 94 93 94 96 96 95 95 95 94 93
63 65 65 60 61 62 62 63 71 76 76 78 74 76 74 79 84 89 89 86 85 87 91 91 92 95 95 92 93 93 93 95 95 96 96 95 95 95 95 95 94 95 94 94
63 64 67 68 69 69 69 73 79 80 78 79 81 85 85 83 87 90 90 88 85 93 93 92 93 96 94 93 91 91 94 96 95 95 95 95 94 94 93 94 93 94 94 95
80 83 80 82 81 83 86 81 82 86 85 87 92 89 85 83 84 90 93 94 93 94 94 94 96 94 94 94 94 94 94 93 92 93 95 95 94 94 93 92 93 93 94 89
88 90 88 86 86 84 85 83 85 83 87 89 91 91 93 94 95 95 95 93 90 90 90 86 83 83 86 85 83 86 89 83 82 85 86 92 90 89 90 89 88 89 90 90
86 88 88 84 86 86 87 90 93 93 94 93 92 95 94 94 94 95 92 89 88 89 90 86 76 78 81 79 78 82 83 84 84 86 84 85 89 88 91 91 92 91 89 89
90 90 89 92 88 89 94 95 93 96 95 93 92 93 96 97 96 90 87 92 91 91 85 84 80 76 73 76 81 81 87 90 86 88 90 90 94 95 94 92 93 95 96 95
95 94 94 94 96 96 96 95 93 96 97 94 93 96 96 92 89 91 88 91 89 83 82 84 85 83 70 73 74 88 90 92 93 95 96 96 95 94 95 96 96 96 96 97
95 96 97 96 95 96 97 95 93 93 93 92 95 96 94 94 90 87 89 89 82 85 84 86 86 89 84 86 86 92 89 90 94 94 96 96 97 97 98 99 99 99 99 98
95 96 96 95 95 97 95 93 94 94 93 93 96 92 87 84 83 92 96 81 79 88 83 92 92 92 92 96 94 93 93 96 98 98 99 100 100 100 100 100 97 99 100 99
94 93 94 92 92 90 90 90 80 84 90 83 90 88 89 94 94 82 89 94 91 96 97 95 98 97 98 99 98 98 100 100 100 100 99 100 100 100 98 100 100 100 100 99
95 95 93 85 77 82 80 75 75 76 77 78 79 76 72 82 94 96 96 95 96 94 95 95 92 96 98 99 99 100 100 100 100 99 99 100 100 100 100 100 100 100 100 100
76 79 81 80 82 83 85 81 89 95 87 95 98 98 97 97 97 97 96 93 94 96 99 98 99 98 99 98 100 99 100 98 98 98 100 100 100 100 100 100 100 100 100 100
82 83 78 82 80 81 88 89 95 98 99 100 98 98 97 97 95 96 95 97 97 98 98 99 98 96 96 98 97 97 98 100 99 97 99 100 100 100 100 100 100 100 100 100

GFSNGP_sfc_rhum_066.txt.gz
RH
76 69 59 58 84 78 73 80 86 71 68 71 88 80 70 58 50 50 52 53 58 65 69 68 68 68 68 71 72 70 79 87 90 89 87 84 84 81 80 81 75 73 76 76
86 60 50 61 71 75 93 85 61 62 70 70 89 86 68 57 50 55 58 58 61 63 65 66 69 73 72 73 74 73 77 78 77 85 88 89 84 86 84 81 82 77 77 78
87 68 63 82 63 58 61 74 79 94 67 79 83 84 71 55 56 59 60 63 66 69 67 64 67 68 76 73 72 73 75 74 77 77 81 83 86 86 87 85 82 82 79 79
97 80 83 58 40 41 67 69 69 72 78 77 69 76 72 52 59 63 63 67 70 70 67 68 67 68 69 68 70 73 76 75 77 79 79 80 79 81 86 87 88 86 86 84
92 92 63 42 48 54 66 77 65 73 74 72 55 62 68 60 61 64 66 66 71 68 69 70 70 69 69 72 73 74 76 75 73 77 79 81 84 87 88 93 87 86 85 88
97 90 89 64 45 41 41 97 62 54 68 57 56 93 82 65 65 69 67 67 68 70 69 71 71 70 72 76 78 81 76 73 70 72 76 81 84 88 88 92 94 84 87 86
91 95 79 52 43 44 70 96 65 60 66 68 79 73 69 65 67 64 66 68 68 69 74 74 72 74 77 78 83 75 72 73 74 74 76 78 84 86 93 96 98 99 99 98
90 94 82 56 54 64 76 74 68 64 66 75 70 68 69 68 71 70 71 69 67 72 76 75 76 76 80 85 78 72 72 76 79 79 78 78 86 89 92 96 98 98 98 97
77 76 88 72 73 68 67 77 73 71 64 66 68 69 70 74 74 73 72 72 69 73 78 80 75 78 86 85 78 78 79 81 81 78 79 80 87 90 93 93 96 96 94 94
91 88 90 88 75 60 59 67 65 64 67 66 73 70 74 74 75 75 74 77 74 77 84 86 80 83 85 81 79 80 81 82 83 83 81 82 83 86 92 93 93 92 92 94
98 91 89 89 89 83 62 63 64 64 67 69 73 76 77 80 80 80 81 80 82 85 85 86 82 85 81 82 78 80 81 81 86 85 86 84 89 94 93 96 96 94 96 94
99 97 98 97 84 78 80 74 65 67 71 71 73 78 77 81 78 84 88 87 87 87 85 90 88 89 87 81 85 87 85 87 90 88 87 85 85 82 85 94 96 96 96 95
100 98 100 97 73 71 72 66 66 68 70 74 74 76 76 81 80 83 86 89 95 96 94 94 94 94 94 94 91 86 88 92 90 90 90 90 89 89 93 90 85 92 93 94
92 94 84 75 82 65 65 67 70 72 74 75 77 76 76 80 80 84 89 91 89 92 94 94 93 95 96 94 93 94 93 93 94 95 95 94 94 93 93 95 95 95 93 93
68 66 68 66 68 68 65 68 74 77 76 79 75 76 74 80 83 86 85 80 83 88 93 93 93 95 95 93 94 94 93 95 96 95 94 94 93 92 92 93 94 95 94 92
76 64 66 72 74 75 75 75 77 80 79 79 80 80 82 82 85 89 88 86 87 94 94 95 94 96 95 96 96 95 94 94 94 94 94 93 91 91 91 92 92 93 93 95
83 88 83 83 80 81 83 82 80 85 89 87 89 85 78 80 83 90 94 94 94 94 95 93 94 92 92 90 95 96 95 92 92 94 94 92 92 91 89 90 91 92 94 92
90 92 86 80 83 81 84 82 84 84 89 89 92 93 94 93 97 97 96 92 89 89 92 93 90 90 92 90 93 92 94 92 90 91 92 93 91 90 91 90 88 90 92 89
84 88 87 83 85 85 85 88 92 92 94 93 93 96 96 96 96 96 93 92 94 94 96 93 86 88 88 87 88 92 94 93 91 92 91 93 94 93 95 95 95 95 91 91
91 89 88 90 87 89 93 96 94 95 96 95 95 96 97 100 96 94 95 100 99 99 95 94 92 86 83 84 92 89 94 95 92 94 96 95 96 97 96 95 96 97 96 97
96 95 96 94 96 95 97 97 95 97 96 93 92 96 97 96 96 97 95 95 96 92 90 92 91 91 85 85 86 96 95 96 96 96 96 98 98 97 98 99 98 99 98 98
97 96 97 96 95 96 97 96 95 96 96 95 95 93 92 94 94 92 97 94 90 94 92 93 92 95 88 93 91 97 95 96 97 97 98 98 99 100 100 100 100 100 100 100
96 95 95 95 95 97 96 95 94 93 96 95 93 94 91 89 89 95 98 85 87 95 91 98 98 96 99 97 97 97 98 99 100 100 100 100 100 100 100 100 100 100 100 100
95 94 94 93 90 83 85 86 79 85 93 89 96 95 86 98 99 91 94 96 95 100 100 100 99 100 100 100 100 100 100 100 100 100 100 100 100 100 100 100 100 100 100 100
96 95 95 95 84 92 88 85 85 85 83 82 81 77 78 84 95 97 98 98 99 98 98 100 99 100 100 100 100 100 100 100 100 100 100 100 100 100 100 100 100 100 100 100
77 79 82 85 89 94 95 82 94 94 90 99 99 100 100 99 98 98 98 97 97 98 97 99 99 99 100 100 100 100 100 99 99 100 100 100 100 100 100 100 100 100 100 100
87 84 82 87 89 90 94 92 96 98 98 99 99 100 100 100 100 98 100 100 100 100 100 100 100 99 100 100 99 100 100 100 100 100 100 100 100 100 100 100 100 100 100 100

GFSNGP_sfc_rhum_069.txt.gz
RH
79 74 70 71 76 78 95 92 98 71 68 68 84 88 88 70 57 62 66 68 68 72 75 75 77 78 78 79 77 78 82 82 86 89 89 89 89 89 87 88 84 79 77 76
84 73 61 57 52 64 78 84 91 80 70 71 84 85 87 84 68 68 70 69 64 60 63 68 70 74 73 73 75 74 77 78 76 77 82 88 90 89 89 87 86 84 85 83
82 74 74 76 72 56 71 78 75 97 72 87 89 77 84 88 79 76 70 70 66 66 68 69 72 70 76 73 72 75 76 75 77 77 76 79 79 80 90 90 87 87 86 84
95 82 80 47 33 52 62 69 74 78 79 79 74 84 82 83 87 83 78 70 70 73 70 70 70 70 70 71 76 75 75 73 73 75 75 76 78 80 84 89 93 92 90 86
89 92 64 51 55 59 66 69 69 71 71 70 84 77 86 73 75 81 79 72 71 68 68 69 72 70 73 76 77 75 76 74 72 74 74 75 79 82 84 89 92 93 91 92
96 87 86 58 51 45 55 86 75 67 80 88 70 93 98 82 80 77 72 69 70 70 70 75 75 72 78 80 77 78 78 76 74 74 76 78 80 84 85 88 93 94 95 97
89 92 80 57 75 56 87 94 78 69 82 84 78 79 74 74 76 72 68 68 67 70 78 78 73 73 78 77 78 76 75 75 75 78 77 78 80 82 86 90 95 97 96 93
91 87 87 76 76 73 87 82 77 75 75 81 76 71 71 71 71 70 71 70 69 77 80 76 75 75 80 81 75 75 76 78 79 80 77 77 83 87 86 88 92 92 91 91
80 82 86 77 82 80 82 89 88 90 82 79 82 89 81 83 73 74 75 75 75 82 80 79 79 78 84 79 78 76 77 79 78 78 75 75 79 84 87 86 90 91 90 92
99 93 90 83 73 70 67 74 70 78 88 84 91 88 85 76 77 78 81 82 78 79 84 88 84 81 83 80 80 76 78 83 80 76 77 79 78 79 83 87 89 88 90 92
98 96 94 92 85 90 91 82 80 69 69 72 74 78 78 80 81 82 81 80 79 83 85 89 86 86 81 85 80 79 83 83 85 84 87 84 90 90 89 92 87 91 92 92
99 99 98 99 97 84 89 92 77 73 77 73 74 79 78 83 82 83 87 86 86 87 86 88 86 87 88 83 76 79 84 88 92 90 88 86 85 89 82 84 84 84 84 86
100 100 100 100 95 68 80 93 94 88 77 80 76 77 79 82 79 83 88 89 95 96 95 95 94 94 94 95 91 91 92 88 91 92 91 91 92 92 95 85 81 83 84 85
96 97 85 80 84 71 70 70 74 72 73 75 77 75 75 79 80 84 90 91 88 92 94 95 94 96 96 95 94 94 96 95 96 97 96 95 96 96 94 95 96 95 88 88
69 68 74 71 69 71 67 69 74 77 76 79 74 76 75 80 84 87 83 80 82 88 93 93 94 95 96 96 95 94 95 96 97 96 96 96 94 94 93 93 94 94 90 88
70 69 69 76 77 78 75 74 77 78 76 75 78 79 80 81 84 88 88 85 86 93 94 95 94 96 94 95 96 95 95 94 97 96 95 94 94 94 93 93 93 94 95 96
86 86 80 81 81 80 83 82 79 77 79 82 85 81 80 81 83 89 94 93 96 98 97 97 97 95 94 95 96 97 97 95 96 94 95 95 95 95 95 94 94 95 96 95
91 92 89 84 83 80 82 82 83 83 90 91 94 94 94 94 97 97 96 94 93 93 96 97 94 94 95 95 95 95 96 95 94 95 94 96 95 94 96 95 94 95 95 92
84 84 85 81 83 85 85 88 92 94 95 94 93 98 97 97 96 97 97 96 97 96 96 97 91 91 93 92 92 93 95 96 94 95 94 97 96 96 97 97 98 98 96 95
90 90 88 92 89 91 96 97 94 97 97 95 96 95 96 97 96 97 99 100 100 98 97 95 93 92 89 89 95 91 95 96 94 96 97 97 99 100 100 99 98 100 100 100
95 94 95 95 98 96 96 96 95 96 98 95 95 97 99 100 100 100 97 96 97 94 93 92 90 91 88 90 89 97 96 97 97 98 100 100 100 100 100 100 100 100 100 100
96 96 96 96 95 96 96 96 93 93 92 93 95 98 97 98 99 98 100 98 95 97 92 94 91 96 90 97 92 98 96 97 99 99 100 100 100 100 100 100 100 100 100 100
96 95 95 96 95 96 96 96 96 95 96 96 98 98 97 97 96 97 97 87 91 98 93 96 98 100 99 98 99 100 100 100 100 100 100 100 100 100 100 100 100 100 100 100
95 95 95 95 91 84 87 85 82 91 96 90 94 96 89 99 100 97 94 96 97 100 100 100 100 100 100 100 100 100 100 100 100 100 100 100 100 100 100 100 100 100 100 100
94 94 93 91 86 85 82 81 82 83 82 82 87 84 82 85 95 97 98 98 100 96 97 100 100 100 100 100 100 100 100 100 100 100 100 100 100 100 100 100 100 100 100 100
92 91 90 90 95 98 93 84 95 97 93 99 99 100 100 99 98 98 98 99 99 99 98 100 100 100 100 100 100 100 100 100 100 100 100 100 100 100 100 100 100 100 100 100
88 88 89 92 92 96 95 93 96 98 98 98 98 100 100 100 100 100 100 100 100 100 100 100 100 100 100 100 100 100 100 100 100 100 100 100 100 100 100 100 100 100 100 100

GFSNGP_sfc_rhum_072.txt.gz
RH
77 74 73 73 73 66 76 91 100 88 87 73 85 84 87 65 66 63 62 61 68 76 80 80 79 79 75 76 77 77 80 80 87 88 92 91 92 92 90 89 85 81 83 85
75 76 64 59 44 55 58 74 80 85 84 64 87 85 90 80 68 69 66 65 67 66 68 71 73 72 74 78 75 75 76 78 76 78 80 85 87 91 94 92 90 88 86 82
73 76 70 56 66 51 60 76 83 90 72 86 92 86 89 88 78 77 71 71 73 71 72 74 72 72 76 76 73 75 75 74 76 75 74 76 77 78 84 90 92 93 93 91
91 74 79 42 37 54 78 71 72 70 77 87 88 84 83 79 84 86 85 80 77 74 72 72 70 72 74 73 73 74 74 74 74 75 76 77 80 81 84 88 91 93 92 92
86 90 62 52 62 70 74 65 66 73 71 88 86 82 94 85 82 86 84 83 78 74 74 73 73 72 74 73 73 75 76 76 75 77 78 78 82 84 84 87 90 94 94 93
95 89 86 56 66 67 66 84 84 76 77 90 74 95 98 89 86 85 81 77 77 75 73 75 75 72 74 78 79 81 79 76 78 76 76 80 81 84 84 87 89 89 87 88
94 94 77 63 80 74 87 83 85 82 83 86 93 91 96 93 97 89 72 71 70 74 80 81 73 72 77 80 82 76 73 74 77 75 78 79 82 82 84 85 85 90 89 89
89 92 89 84 79 78 93 87 83 81 82 90 89 85 86 85 89 86 76 75 75 80 84 81 75 73 80 86 75 74 77 78 77 79 72 73 80 83 86 85 88 88 89 89
80 81 86 81 83 77 84 92 89 94 94 84 87 93 96 94 93 90 79 79 76 79 84 82 78 79 85 88 78 78 79 77 76 76 75 76 81 84 82 84 86 88 88 91
100 91 86 82 79 82 75 76 87 92 95 100 99 97 97 96 91 82 80 80 76 79 84 88 83 84 86 80 78 78 82 81 79 78 78 78 78 81 85 86 87 87 84 88
98 98 96 97 98 97 89 88 90 88 88 94 91 92 83 83 83 82 82 81 79 81 83 86 83 85 85 78 77 78 82 83 87 85 86 85 90 90 88 94 87 89 94 93
99 99 100 100 99 96 94 95 85 80 81 77 82 88 89 89 81 81 85 85 85 87 84 87 85 87 89 88 77 83 87 89 94 92 91 87 83 89 83 86 85 86 85 87
100 100 99 97 96 93 92 94 96 95 94 91 83 78 77 84 85 85 88 90 94 95 94 94 94 95 95 94 92 91 95 92 92 92 92 93 94 93 96 88 81 82 83 84
96 99 94 93 92 88 76 74 76 74 76 80 81 77 78 82 82 84 90 93 88 91 94 95 94 96 96 96 94 94 96 95 97 97 97 97 98 98 97 97 97 96 88 88
75 74 76 74 73 72 68 72 76 77 75 79 75 80 77 84 84 87 87 83 82 89 94 94 94 96 96 96 96 98 97 98 98 98 98 98 98 97 96 95 95 96 93 92
75 74 74 78 81 77 74 74 78 78 76 77 79 83 84 82 86 88 88 87 85 92 94 97 95 97 96 95 96 97 98 94 97 98 98 97 96 95 95 95 95 96 96 98
90 85 85 85 81 80 84 81 76 78 82 82 87 88 86 85 85 88 93 94 96 98 98 98 99 97 96 96 97 99 99 98 96 96 97 97 97 97 96 96 96 96 98 98
89 90 88 82 81 80 82 83 84 84 90 90 92 94 95 94 96 97 96 93 93 96 98 98 98 96 97 96 97 97 98 97 95 96 95 97 96 94 96 95 94 95 96 93
82 84 83 81 85 85 86 89 91 92 95 94 94 97 96 96 96 97 98 96 97 97 97 98 94 95 94 93 93 94 95 96 94 94 94 97 97 96 98 98 98 98 96 95
90 89 88 92 89 91 94 97 95 97 97 94 94 95 97 100 100 99 99 100 99 98 98 95 93 94 92 90 96 90 95 97 94 97 98 97 99 100 100 100 99 100 100 100
96 95 96 96 98 97 98 97 95 97 97 94 94 98 100 100 100 100 97 97 98 96 94 90 90 91 88 89 90 98 97 98 99 98 100 100 100 100 100 100 100 100 100 100
97 96 96 95 96 97 96 94 94 94 94 95 95 95 94 97 98 98 100 98 96 97 94 94 89 98 92 98 92 99 97 97 99 100 100 100 100 100 100 100 100 100 100 100
96 96 96 96 96 98 96 96 94 90 91 92 96 97 96 95 94 92 95 88 94 99 93 99 99 100 100 99 100 100 100 100 100 100 100 100 100 100 100 100 100 100 100 100
96 96 96 96 92 84 89 91 85 90 95 89 93 95 89 98 99 95 91 97 100 100 100 100 100 100 100 100 100 100 100 100 100 100 100 100 100 100 100 100 100 100 100 100
95 95 92 90 81 85 85 82 86 87 89 87 89 87 83 85 95 97 98 98 100 97 98 100 100 100 100 100 100 100 100 100 100 100 100 100 100 100 100 100 100 100 100 100
91 95 94 94 97 98 95 84 96 97 94 98 98 100 100 100 98 98 98 99 99 100 100 100 100 100 100 100 100 100 100 100 100 100 100 100 100 100 100 100 100 100 100 100
93 93 94 96 96 98 98 96 98 98 98 98 99 100 100 100 100 100 100 100 100 100 100 100 100 100 100 100 100 100 100 100 100 100 100 100 100 100 100 100 100 100 100 100

GFSNGP_sfc_rhum_078.txt.gz
RH
57 67 58 38 35 34 44 47 59 33 31 32 44 57 73 56 73 78 82 80 82 83 85 83 83 85 85 82 84 81 79 79 85 84 85 87 90 90 89 82 73 64 67 68
62 60 44 42 32 26 31 37 36 36 40 36 48 62 68 65 78 82 82 80 80 77 78 80 77 76 75 78 76 70 72 74 73 75 78 82 84 88 90 90 91 89 91 88
60 47 39 41 30 30 32 30 44 55 45 45 55 75 71 75 69 82 84 78 75 77 79 76 73 70 66 64 62 64 67 66 66 67 69 73 76 80 86 91 88 89 89 88
52 42 45 35 26 31 39 37 46 43 61 68 79 90 91 79 84 83 82 93 81 74 70 66 63 61 58 54 54 58 56 59 64 67 65 64 68 75 82 83 86 85 84 83
54 45 31 24 44 44 48 44 55 59 56 82 86 82 96 91 87 94 92 90 87 69 76 67 60 57 57 56 54 58 64 64 62 64 66 66 73 76 74 73 75 77 76 77
57 50 45 50 45 40 39 44 58 62 70 76 82 99 98 95 92 97 94 92 83 69 62 64 71 58 58 60 63 67 64 59 61 66 64 70 71 72 69 67 68 67 69 71
57 52 40 50 48 46 47 73 68 70 81 83 90 95 97 97 97 100 93 90 84 72 67 60 57 57 64 61 60 64 60 64 68 62 67 70 68 66 66 68 69 73 72 72
57 63 59 60 55 61 86 83 76 79 84 90 91 91 95 97 97 97 98 77 58 60 62 57 52 54 57 67 67 60 58 61 65 67 61 63 68 68 67 67 72 72 74 76
56 72 73 74 78 85 83 90 90 86 81 82 88 96 96 96 96 97 95 57 52 57 62 60 53 50 57 60 58 59 61 62 61 62 62 59 61 62 62 63 68 71 72 79
94 96 96 92 80 85 89 91 84 86 84 95 95 96 96 96 96 95 93 61 52 56 61 66 62 57 57 55 53 56 59 61 63 62 61 60 60 64 69 72 73 74 78 81
100 100 98 93 91 79 86 87 90 96 94 93 95 96 89 89 92 92 93 81 61 62 63 64 61 62 57 54 53 57 59 61 63 64 68 73 78 76 76 87 82 82 84 84
93 97 96 96 91 84 86 90 96 83 84 85 89 90 91 89 81 80 82 73 72 72 71 70 67 69 67 61 56 59 65 66 69 66 64 62 66 76 81 82 82 80 81 86
98 99 97 95 89 81 81 86 90 85 76 72 66 64 67 73 78 88 81 82 89 89 86 86 87 90 86 84 80 80 81 73 69 70 68 70 71 71 81 84 80 81 80 81
99 95 90 86 82 74 63 60 60 56 56 57 57 55 58 64 67 73 82 78 77 81 87 88 89 93 90 88 86 86 90 84 85 82 84 86 87 87 86 87 89 88 80 79
93 89 80 73 64 59 52 52 55 56 57 58 55 57 57 64 69 71 67 68 71 76 84 86 89 93 90 86 86 88 90 88 87 87 86 83 82 80 78 78 78 77 74 70
82 67 61 64 61 57 54 53 56 58 58 60 62 63 61 61 68 73 72 69 69 80 82 89 87 92 89 85 83 82 82 80 77 78 79 77 74 70 68 68 69 70 72 73
79 77 68 66 64 62 60 57 57 61 62 66 71 66 62 65 68 77 84 83 86 87 86 87 90 89 87 87 78 72 74 76 73 71 70 68 68 66 63 64 64 64 70 80
70 72 66 64 66 65 67 65 65 66 74 75 84 87 88 87 89 90 88 83 82 85 86 85 84 82 82 81 74 67 65 64 63 65 62 66 59 58 62 60 59 61 63 71
66 69 70 68 69 71 73 77 81 82 86 87 87 91 89 88 86 86 82 80 78 76 86 80 75 73 74 78 61 58 62 67 62 60 62 67 68 60 67 70 69 70 65 66
76 76 74 77 76 78 84 87 85 88 89 88 86 82 84 87 85 84 81 86 86 79 76 74 65 64 62 63 65 54 66 71 61 68 72 66 74 78 76 72 68 74 78 77
85 85 88 88 91 89 88 88 88 90 85 80 79 83 82 82 83 82 74 64 78 74 67 67 61 52 47 50 47 73 72 75 75 74 77 78 78 74 76 78 80 81 81 78
88 89 90 89 89 90 89 89 86 85 82 80 81 80 79 80 82 81 85 68 60 72 59 58 57 77 63 64 57 73 68 68 71 73 75 76 77 80 80 78 77 79 79 79
89 88 88 88 87 87 83 82 82 80 81 82 82 78 70 63 59 64 65 64 55 73 57 69 82 82 79 76 76 76 76 75 76 76 77 79 79 78 77 76 76 77 78 77
85 83 84 83 82 74 76 77 69 75 80 76 80 78 62 71 75 58 64 77 82 72 76 81 84 81 83 78 77 77 76 77 77 79 75 93 80 79 76 77 75 76 76 77
80 78 77 74 64 62 67 64 64 64 66 61 63 62 58 54 73 69 72 73 76 73 72 89 82 83 78 78 78 78 78 78 78 78 76 77 76 77 76 76 77 76 76 76
69 62 66 74 67 58 56 56 59 63 62 73 72 79 79 71 67 67 72 74 66 76 71 78 80 80 78 76 76 77 77 73 76 76 79 76 75 75 75 74 75 75 76 75
72 71 62 59 57 58 61 61 69 72 79 82 76 79 72 76 77 72 83 74 74 75 76 78 79 79 76 77 76 74 74 74 77 73 75 76 76 77 76 76 77 76 77 78

GFSNGP_sfc_rhum_084.txt.gz
RH
50 40 38 54 82 59 60 72 63 45 35 57 62 64 64 64 68 75 81 83 86 88 89 87 87 88 89 91 89 88 90 91 94 92 90 91 92 90 89 88 85 82 83 83
50 38 37 51 43 56 66 83 71 61 37 70 76 59 66 68 70 78 83 85 85 85 84 89 89 88 87 89 90 84 85 89 88 88 90 91 90 90 90 90 89 88 88 88
62 38 45 69 40 35 40 52 37 50 69 60 80 87 86 79 79 86 92 94 96 94 90 89 90 89 93 89 81 86 86 85 87 88 88 88 85 86 89 91 89 89 89 87
78 61 78 39 23 24 28 51 65 47 60 71 89 94 95 90 90 93 94 98 98 99 96 90 88 88 87 85 88 85 83 83 83 85 87 86 87 89 89 89 90 89 87 85
86 76 72 32 27 29 34 91 58 54 53 69 78 79 96 94 97 98 100 100 100 100 99 97 91 82 85 88 90 89 94 88 81 81 84 85 86 87 88 88 90 90 87 86
74 94 96 97 52 30 29 94 68 58 67 70 71 95 98 93 97 98 99 100 100 100 100 100 100 93 90 98 96 97 91 94 82 82 80 80 80 79 77 75 80 82 81 82
87 95 98 80 58 33 48 97 71 66 73 83 93 95 96 98 98 100 100 100 100 100 100 100 100 100 98 97 97 92 94 92 96 91 88 83 76 73 73 76 77 81 80 81
76 95 94 71 60 79 94 82 72 71 76 85 87 90 95 98 99 100 100 99 98 99 99 97 98 96 100 98 100 97 90 94 98 93 89 96 85 82 79 80 84 86 90 93
93 98 92 76 86 81 76 85 81 78 76 78 85 92 93 96 97 98 100 88 90 91 76 58 61 67 73 83 94 99 100 99 98 96 91 85 87 89 89 86 86 88 88 91
98 91 84 84 77 79 80 81 75 76 81 91 94 94 96 96 97 97 98 93 76 66 61 62 56 53 56 54 54 61 69 72 74 79 82 81 81 84 87 93 93 94 94 94
97 96 87 78 96 82 85 81 90 88 86 89 89 94 92 94 95 96 97 96 90 88 83 80 74 80 74 56 58 65 68 71 74 75 78 82 87 86 86 92 91 90 93 92
96 95 94 98 94 81 89 97 98 80 86 84 84 91 93 95 93 92 95 96 94 94 93 83 80 83 80 78 68 71 75 79 78 74 74 74 78 86 77 79 79 79 81 85
98 99 96 98 99 93 88 88 91 86 88 86 83 84 88 93 92 92 91 94 96 96 96 94 92 94 94 86 84 89 89 82 82 83 86 92 82 83 92 82 71 70 72 73
100 100 97 96 93 91 75 66 56 51 54 57 60 62 68 77 80 83 87 89 88 93 95 96 96 96 94 91 94 91 91 90 93 93 92 92 93 95 96 95 94 95 74 72
100 96 89 81 61 57 51 49 52 56 58 64 64 70 71 77 83 86 87 75 76 81 87 88 91 94 92 92 87 89 94 94 92 92 91 89 89 87 87 87 89 94 96 87
95 92 70 61 52 48 47 50 57 63 64 65 67 69 70 72 75 78 75 74 76 83 82 91 89 92 90 89 91 85 84 81 82 85 85 85 86 85 82 82 83 85 87 90
98 91 73 63 61 61 61 60 63 66 70 78 88 78 68 72 74 79 84 86 88 89 88 89 92 90 89 88 86 79 82 80 79 78 79 80 82 81 79 80 79 79 86 92
68 72 71 68 68 67 73 73 72 73 80 80 88 90 91 91 92 91 90 90 89 88 87 88 88 88 88 85 85 74 74 70 69 73 73 79 74 72 78 78 75 78 83 84
65 70 69 68 68 73 75 78 83 86 90 91 91 94 92 91 89 89 88 90 89 86 89 85 75 76 71 74 72 67 72 77 72 71 74 78 83 78 84 86 86 88 85 86
76 76 76 81 76 78 86 92 86 89 89 90 91 90 90 92 91 90 88 89 88 81 81 73 68 61 59 56 71 64 77 81 69 78 85 84 90 92 89 84 86 90 93 92
86 85 87 89 92 91 91 92 91 92 92 90 88 92 91 89 89 91 92 86 80 80 70 66 61 61 51 69 65 83 82 85 86 86 91 91 91 89 90 91 90 92 93 93
88 89 90 90 90 91 91 89 88 89 89 91 91 90 90 88 90 88 90 75 66 81 67 69 63 78 74 94 71 83 79 80 84 87 90 89 90 91 91 90 91 92 91 92
88 87 87 91 89 87 88 88 90 88 90 90 91 88 76 65 61 70 90 63 61 72 76 79 84 87 86 92 87 87 86 87 88 89 90 92 92 92 92 93 91 92 92 94
88 85 84 84 84 73 74 74 66 75 88 82 89 90 77 78 82 58 65 73 78 86 84 86 86 84 92 93 89 89 88 87 90 91 88 92 93 91 91 91 89 90 91 93
82 80 78 76 61 62 59 56 56 58 61 53 55 57 61 56 80 83 84 85 76 74 89 86 82 79 91 89 89 90 90 90 92 89 89 89 91 90 90 90 91 91 92 90
64 67 63 64 64 53 51 50 56 60 61 65 75 80 79 75 70 68 78 80 74 71 78 94 93 94 89 84 92 88 88 86 87 92 92 90 89 90 90 89 89 90 90 91
65 68 56 53 48 50 63 62 70 82 87 90 81 90 77 81 81 73 79 80 88 89 88 86 89 91 88 88 87 85 85 87 86 90 89 89 89 89 92 91 90 91 92 92

GFSNGP_sfc_rhum_087.txt.gz
RH
54 44 42 46 70 52 71 85 98 86 76 88 83 83 82 72 74 81 85 84 86 87 88 88 89 89 89 90 92 91 94 96 98 96 94 93 93 92 89 86 83 82 85 88
70 56 53 44 38 40 50 72 78 83 94 82 82 76 75 75 79 88 91 91 88 86 86 89 89 90 88 90 91 89 93 96 93 92 91 93 93 93 92 91 90 88 90 89
69 57 62 70 53 46 55 62 68 87 94 78 92 92 92 88 88 93 94 93 95 96 94 92 94 90 92 90 86 88 91 89 90 89 88 90 89 90 92 92 90 91 92 92
90 75 94 46 42 48 80 85 84 84 86 90 94 95 95 94 94 94 94 97 97 99 99 99 97 91 90 86 89 90 90 90 87 87 88 87 88 90 91 89 90 91 90 91
92 97 72 53 91 95 78 98 68 72 72 86 89 88 96 92 92 98 100 100 99 100 99 100 98 99 92 92 91 91 96 96 90 89 88 87 90 92 92 91 92 92 89 89
90 96 95 99 94 76 83 97 74 74 80 87 81 86 97 92 94 97 99 100 99 100 100 98 99 100 94 97 96 98 98 98 96 94 92 93 94 95 94 92 92 92 94 95
88 94 91 99 85 66 85 98 76 74 81 87 95 94 97 98 99 99 99 98 100 99 99 100 100 99 97 96 97 99 99 100 100 99 99 98 93 91 92 92 91 92 91 92
84 95 96 83 74 86 99 82 75 77 81 87 90 93 96 97 98 99 99 100 98 99 99 99 94 90 95 97 100 99 99 98 98 97 98 100 100 99 98 94 92 90 92 93
96 98 99 89 95 96 85 90 84 81 79 83 91 96 96 97 97 98 99 96 94 93 87 82 83 82 90 98 99 97 96 97 97 97 97 97 96 97 98 98 95 92 90 92
98 95 93 96 95 94 96 92 83 81 86 91 97 96 98 96 97 96 97 96 93 85 82 91 88 88 77 72 74 84 89 92 93 94 94 92 88 90 93 96 96 94 92 94
99 99 93 92 98 99 96 91 94 90 85 91 93 97 94 95 96 97 97 96 92 93 93 94 89 88 84 69 68 74 74 76 79 80 83 86 89 89 88 92 87 92 94 92
98 96 95 99 99 98 94 98 92 86 90 90 90 94 94 96 95 94 95 95 94 94 94 94 90 93 92 83 83 83 90 85 81 80 80 79 80 84 76 78 78 78 78 85
99 96 97 100 100 93 90 92 92 90 88 88 88 87 90 95 96 93 94 95 96 96 96 95 94 94 94 92 88 91 93 92 92 94 91 86 86 84 92 80 70 71 73 72
98 96 96 96 97 79 70 60 61 61 67 74 75 76 84 87 84 86 92 94 92 94 95 96 96 96 96 94 93 93 93 92 95 96 95 95 97 96 97 94 93 96 74 73
99 94 91 83 74 73 61 57 65 71 74 80 79 82 79 83 86 91 92 78 76 83 90 90 93 95 95 95 91 90 97 98 97 97 97 95 94 92 94 95 97 97 94 93
98 78 66 61 58 60 62 64 72 75 78 79 80 80 81 82 85 89 86 84 82 92 94 96 90 92 92 93 97 93 92 89 92 95 94 93 94 92 90 92 94 97 95 96
98 94 84 73 76 82 83 76 80 87 81 84 91 79 77 81 81 84 92 92 93 95 95 94 97 92 89 89 91 97 95 91 91 88 92 92 92 93 90 90 92 95 96 96
83 83 83 79 83 82 83 81 82 84 93 91 95 94 94 94 96 97 96 95 94 92 91 91 91 87 85 84 86 93 93 88 84 90 86 92 92 90 91 90 89 94 95 92
82 88 85 82 81 82 87 92 95 95 96 94 93 97 97 97 97 97 93 94 94 93 90 87 82 82 79 78 83 87 88 89 88 88 95 92 92 87 94 95 95 96 95 96
88 88 90 92 87 91 96 97 95 96 97 94 97 96 98 98 99 98 96 98 96 95 92 82 76 77 72 75 90 83 88 94 88 92 92 90 97 94 95 95 96 98 98 98
96 95 95 95 97 96 97 96 95 97 98 96 95 99 97 95 95 97 97 97 92 88 90 79 75 74 76 87 85 95 93 95 97 96 97 98 97 97 97 97 98 98 98 98
97 96 97 97 96 98 97 97 96 97 96 96 96 96 96 95 95 95 96 94 92 92 83 88 88 89 83 99 93 96 94 94 96 96 97 97 98 98 99 99 99 98 100 99
96 96 97 97 96 97 97 96 96 94 96 98 98 98 98 94 92 96 97 79 83 97 86 98 91 90 92 98 98 96 98 96 97 99 98 99 100 99 99 96 97 99 100 96
97 96 96 94 93 91 93 92 86 88 94 91 93 93 90 96 98 85 85 88 86 94 97 97 93 87 90 98 98 97 98 99 98 99 98 100 100 99 98 99 97 98 100 100
93 93 93 94 87 88 81 77 78 81 83 77 76 72 74 84 94 98 96 95 90 92 98 89 87 88 97 99 98 98 98 100 95 97 98 99 100 98 98 98 98 98 99 97
82 84 88 84 85 86 85 81 93 95 92 97 96 96 95 94 93 93 94 90 93 93 96 96 97 95 99 98 99 97 96 96 97 99 97 100 98 99 100 97 97 98 98 99
90 82 84 88 85 83 86 89 96 97 98 96 97 98 98 96 96 95 93 98 97 97 97 98 98 97 98 100 95 96 97 98 96 98 100 98 97 98 100 100 98 99 99 99

GFSNGP_sfc_rhum_090.txt.gz
RH
67 62 58 60 59 48 50 60 95 83 91 94 89 88 84 76 78 82 87 90 93 89 90 89 89 88 88 90 94 93 95 97 98 97 95 94 94 92 90 88 86 86 89 90
54 52 53 60 61 51 45 42 50 61 83 93 95 80 83 83 84 89 90 92 93 94 94 93 93 91 88 91 92 91 93 96 95 95 94 95 94 94 92 92 92 91 93 94
68 60 65 71 70 53 42 53 72 85 94 93 96 94 94 92 88 90 92 94 95 94 94 96 96 95 95 91 88 90 92 92 90 91 93 92 90 91 93 95 93 95 95 94
89 76 97 62 79 66 89 96 96 97 94 93 94 93 90 89 94 95 95 97 97 97 96 96 96 96 93 88 90 90 92 90 89 88 90 89 89 91 93 93 94 95 96 94
97 91 63 53 93 97 96 98 96 97 85 92 86 82 94 89 91 98 100 100 99 98 96 96 97 98 97 95 92 92 97 96 94 95 94 91 92 93 92 93 94 95 94 94
93 96 98 97 84 84 100 97 98 85 83 86 88 97 94 92 94 99 99 99 98 99 95 97 98 99 97 97 96 98 98 98 98 98 97 99 97 95 95 94 93 91 94 97
93 94 89 96 95 97 96 99 83 80 82 83 91 92 96 98 99 99 99 98 99 98 98 100 99 97 97 98 98 98 98 98 97 98 99 100 98 98 96 95 94 93 93 95
92 96 96 86 79 94 100 98 79 80 81 84 91 94 97 97 99 98 98 93 92 94 96 96 94 91 97 97 98 98 97 96 97 97 97 98 99 99 98 97 96 96 95 95
96 98 100 98 99 99 98 94 92 88 88 86 91 97 97 97 97 98 97 90 89 88 85 88 91 92 92 98 97 97 96 97 97 96 96 97 96 98 97 97 97 96 94 95
97 96 94 98 98 96 95 90 86 84 89 91 96 97 97 97 97 96 96 96 87 82 86 92 93 92 77 73 88 92 93 94 95 94 95 94 93 95 94 96 96 96 96 96
97 96 94 93 97 96 91 90 90 90 87 93 93 97 94 96 96 96 96 95 92 91 90 94 92 93 94 98 86 88 90 91 92 90 93 93 93 94 92 96 95 95 96 96
100 90 95 99 95 93 96 91 86 80 88 90 92 96 96 97 95 94 95 94 93 93 91 92 89 92 94 93 90 88 81 79 82 81 80 78 81 90 80 80 78 77 78 86
100 97 98 100 96 88 93 94 92 91 87 86 88 90 93 96 94 90 93 93 95 96 95 95 94 95 95 94 89 91 94 90 92 85 83 84 84 84 92 84 75 77 76 73
100 94 96 95 98 83 75 72 77 78 76 80 82 84 89 86 85 88 92 91 88 92 95 95 95 96 96 96 96 94 94 94 96 96 97 94 93 96 95 95 96 97 92 84
98 94 81 80 84 69 64 70 79 84 85 84 79 81 80 83 87 90 85 77 74 85 93 92 92 94 93 96 95 94 96 96 96 97 96 96 96 94 96 96 96 96 94 90
99 84 71 74 69 74 68 75 83 86 85 84 82 82 81 81 86 90 87 81 84 94 92 94 88 91 89 93 95 93 93 90 93 95 95 94 93 93 92 94 95 95 95 98
98 95 86 89 82 81 82 82 81 83 85 83 87 81 78 73 78 89 96 95 95 95 95 93 96 89 87 93 92 95 95 92 92 93 94 95 96 93 89 91 94 95 98 97
95 95 93 84 84 84 85 82 83 86 93 92 94 94 95 96 100 99 97 97 91 89 90 92 95 88 87 91 93 94 92 90 88 92 92 96 94 89 88 88 89 93 96 96
84 88 84 81 84 86 89 92 96 94 95 96 94 98 99 100 99 99 99 98 98 96 93 91 84 89 87 88 90 93 93 93 96 98 92 93 94 94 97 97 97 97 97 96
91 90 89 93 88 91 96 98 94 96 98 96 98 98 99 100 100 99 97 96 97 95 96 86 80 84 86 85 96 88 96 97 96 96 98 93 95 98 99 99 97 99 100 100
96 95 96 96 100 97 97 97 96 98 100 99 97 100 99 100 100 100 99 97 91 95 90 83 81 83 83 95 91 98 97 98 98 99 100 100 99 98 99 100 100 100 100 99
98 97 99 97 97 100 100 98 97 98 98 98 100 100 100 97 97 95 99 93 95 94 89 90 88 89 90 100 90 98 96 96 98 98 98 98 98 98 99 99 99 99 100 100
97 98 97 97 96 97 99 98 98 96 98 100 100 99 98 96 96 97 97 84 93 97 91 96 94 92 95 100 100 100 100 100 100 100 99 100 100 100 99 96 99 100 100 99
98 98 98 96 96 92 91 91 85 88 97 94 95 94 93 100 99 95 94 92 89 100 98 97 96 90 91 100 100 100 100 100 98 99 99 100 100 100 100 100 100 100 100 100
96 95 94 94 86 91 89 83 85 88 86 79 78 70 76 87 95 96 95 94 99 94 98 96 88 90 99 100 100 100 100 100 99 98 100 100 100 99 100 100 100 100 100 100
85 88 90 85 91 93 91 89 98 98 95 98 98 96 96 97 96 97 96 97 94 95 98 100 99 97 98 100 100 100 100 99 100 100 100 99 100 100 100 100 99 99 98 98
90 95 95 96 94 86 91 95 97 98 98 96 95 97 98 97 96 95 98 99 98 98 95 95 97 95 97 99 99 98 100 100 100 100 100 99 98 100 100 100 100 100 99 99

GFSNGP_sfc_rhum_096.txt.gz
RH
65 68 61 62 51 47 63 61 86 41 51 46 72 87 96 95 93 90 88 92 91 90 90 92 93 92 88 90 91 89 88 92 96 95 95 97 98 97 95 93 93 92 93 93
70 60 55 51 53 58 60 60 62 58 60 61 90 89 92 93 90 91 90 93 92 88 90 95 95 95 88 89 89 89 91 94 91 94 91 95 97 97 96 96 94 94 95 94
67 62 54 46 58 88 88 79 86 74 58 82 93 88 91 91 93 94 91 94 95 95 96 94 95 95 96 92 85 88 92 91 93 93 95 96 98 94 96 97 95 96 95 94
84 68 71 72 84 87 92 90 91 91 84 85 87 93 95 96 93 95 92 95 95 95 93 94 93 91 89 96 92 88 90 94 94 93 96 99 100 95 96 96 96 96 96 94
92 97 65 71 88 97 98 89 97 97 95 95 94 90 95 90 90 96 99 97 98 96 94 94 93 90 87 90 94 91 94 95 97 98 98 100 98 98 97 94 96 97 95 95
92 98 98 94 82 75 95 96 95 96 96 96 96 97 95 93 92 97 97 97 97 96 95 94 94 92 90 92 91 95 96 97 96 94 96 97 98 98 98 96 96 94 96 96
93 97 93 92 86 90 98 98 95 96 96 98 94 96 98 95 96 97 96 96 95 92 95 93 92 92 94 93 96 97 96 96 94 94 95 97 97 97 96 96 96 95 94 95
88 98 96 89 75 90 98 98 96 96 94 92 93 94 96 96 97 96 96 94 94 94 95 89 85 88 93 96 96 93 92 93 94 94 95 95 94 96 97 96 96 96 95 94
95 99 97 96 98 98 98 96 96 94 92 87 91 96 96 96 96 96 96 94 90 93 92 91 92 86 91 96 93 91 92 95 94 93 94 94 94 94 93 96 96 97 96 96
98 97 96 97 95 95 95 95 94 92 89 90 96 96 96 97 97 96 96 94 93 87 88 90 92 93 94 88 86 86 89 91 91 91 92 91 87 88 91 94 95 96 96 96
97 96 94 95 96 96 95 94 90 91 89 92 92 96 94 96 97 97 96 96 92 91 91 93 89 90 92 93 79 76 83 86 88 87 91 91 93 94 92 97 95 96 97 96
98 94 92 97 97 96 93 92 89 84 88 91 90 95 94 96 95 94 95 94 94 93 92 91 89 90 92 92 90 89 79 80 86 88 89 86 85 90 90 92 90 90 91 90
98 95 96 97 95 86 90 90 89 89 86 90 91 89 89 95 93 89 92 94 96 97 96 95 94 95 94 94 90 92 94 89 89 86 90 91 92 92 94 93 89 92 86 86
92 91 96 96 97 86 78 74 80 86 84 85 87 85 81 83 80 83 92 93 87 91 92 94 94 95 95 95 94 95 96 97 97 96 97 96 97 96 96 97 97 96 90 86
97 91 93 90 81 84 81 81 77 80 82 85 80 80 78 83 87 90 86 72 73 84 90 89 93 95 95 96 94 94 96 98 99 99 98 97 96 96 96 94 95 95 92 89
92 91 89 88 83 82 80 82 84 81 82 82 84 85 85 82 88 91 87 82 83 95 94 95 91 95 96 96 95 95 96 95 98 98 98 97 96 96 95 95 94 94 94 95
96 95 93 90 87 86 82 83 81 82 86 89 90 80 79 79 84 89 93 93 95 97 98 97 99 95 95 96 96 98 97 97 97 97 97 96 96 97 97 97 95 95 98 96
91 91 86 81 86 86 86 86 88 89 96 94 94 94 95 95 99 100 100 97 94 90 92 90 95 96 94 96 96 96 97 97 97 98 98 97 96 94 97 97 95 94 95 95
92 92 86 80 83 89 92 94 96 96 96 96 95 100 100 100 100 100 100 99 99 97 93 92 90 95 94 93 94 95 97 98 96 96 97 98 98 97 98 98 98 98 95 94
92 90 89 92 89 92 95 98 95 96 100 97 99 100 100 100 100 100 100 98 98 97 97 89 86 94 94 89 99 94 97 98 97 98 97 97 100 100 99 99 98 99 99 99
96 96 96 96 99 97 97 98 95 98 100 100 97 100 100 100 100 100 100 96 89 97 88 83 87 96 95 98 93 99 98 100 100 100 100 100 100 98 99 99 99 99 100 100
98 97 98 97 97 100 100 100 97 99 100 100 100 100 100 98 99 99 99 96 96 98 91 91 87 94 98 100 94 99 98 99 100 100 99 99 99 99 99 100 99 100 100 99
97 97 98 97 96 97 98 98 99 97 99 100 100 100 98 97 98 96 96 88 96 99 96 97 97 95 100 100 100 100 100 100 100 100 100 100 100 100 100 99 99 100 100 100
97 96 96 95 94 89 83 93 81 88 99 96 98 98 93 98 98 97 97 100 99 98 100 100 100 99 97 100 100 100 100 100 100 100 99 100 100 100 100 100 100 100 100 100
94 95 95 94 85 94 90 81 86 91 92 85 86 81 78 86 95 96 97 96 99 98 95 96 99 100 100 100 100 100 100 100 100 100 100 100 100 100 100 100 100 99 100 100
90 91 88 85 94 96 97 96 98 98 98 99 99 100 99 99 97 96 98 98 96 96 98 99 100 100 100 100 100 100 100 100 100 100 100 100 100 100 100 100 100 100 100 98
94 94 96 98 98 98 99 98 99 99 100 100 98 98 97 99 100 100 98 99 99 99 98 98 98 97 98 98 98 98 99 99 100 100 100 100 100 100 100 100 100 100 100 100

GFSNGP_sfc_rhum_099.txt.gz
RH
48 57 56 54 48 44 44 41 56 23 34 34 34 44 82 80 74 73 76 79 80 83 84 84 84 86 86 87 92 89 91 91 94 91 91 92 92 96 95 96 94 91 92 92
59 51 52 51 42 40 38 42 49 53 62 48 48 79 88 88 87 87 80 82 82 80 79 86 86 86 91 91 86 85 95 95 91 92 91 94 94 96 96 96 95 94 95 94
46 50 44 43 44 41 59 64 69 84 66 58 89 86 87 87 87 89 87 84 85 85 85 88 91 88 90 96 95 83 88 89 90 92 94 93 93 93 98 98 95 96 95 94
56 58 47 76 72 78 82 75 83 81 85 72 76 90 89 93 93 93 88 89 87 88 87 88 86 86 80 86 94 93 85 91 92 90 95 96 96 100 100 100 96 96 96 94
73 69 50 80 86 92 93 86 93 92 94 94 92 86 94 95 95 94 94 89 94 91 89 91 90 87 84 82 84 86 96 94 95 92 94 96 99 100 100 98 96 96 94 94
83 87 79 88 72 67 89 90 86 89 90 90 94 92 91 93 93 93 92 92 90 94 94 90 95 90 86 89 88 93 95 96 96 95 95 96 97 97 99 98 97 94 95 96
81 85 80 91 82 79 93 93 89 94 95 99 93 94 96 95 94 93 89 89 87 84 92 96 92 92 94 92 95 95 94 93 93 95 96 97 97 97 97 97 97 95 94 95
75 89 91 80 69 82 95 96 94 95 95 95 93 93 94 94 95 94 92 83 80 85 86 82 82 79 90 95 96 93 92 92 94 93 94 95 95 96 98 98 97 97 96 96
92 91 94 91 92 96 96 94 96 94 95 92 92 94 94 95 94 94 92 81 74 76 73 75 77 78 84 90 85 86 89 93 93 92 93 92 93 93 90 92 92 95 94 95
94 93 92 95 95 93 93 92 93 91 90 92 94 93 94 93 94 93 92 86 75 70 71 79 78 80 81 71 62 70 76 79 83 86 88 87 78 81 84 87 89 90 91 93
93 94 93 94 95 93 94 92 92 93 90 89 87 92 84 87 90 92 92 90 80 80 79 84 75 75 77 78 68 60 66 73 75 75 79 79 89 90 86 94 87 86 89 88
88 87 86 96 96 94 93 94 92 83 83 79 80 88 86 89 87 86 89 89 87 86 85 84 77 80 79 74 69 71 68 63 75 73 72 70 70 78 87 93 88 84 83 86
93 93 91 93 94 84 84 84 81 79 76 80 76 75 78 86 84 86 85 88 92 93 91 92 91 92 90 86 78 82 79 67 63 72 75 77 79 80 84 86 84 88 85 80
86 83 91 88 88 76 72 73 75 72 71 72 72 67 68 71 72 72 80 78 75 81 89 92 92 95 94 91 88 92 92 92 81 80 82 86 89 90 90 91 92 92 85 85
86 87 81 81 76 75 70 66 71 72 72 74 68 69 68 72 76 74 67 60 62 70 83 89 92 94 93 93 89 88 89 93 91 90 88 88 86 85 83 82 84 85 81 78
88 82 77 77 77 75 72 70 71 75 72 72 73 73 68 65 68 71 68 65 61 73 78 93 89 93 93 93 87 81 82 91 92 83 80 76 77 79 78 78 79 79 80 82
93 91 87 83 78 76 74 70 69 72 74 75 78 69 62 66 70 75 84 85 85 86 85 88 97 93 93 93 86 78 78 78 92 76 72 70 74 76 77 77 77 76 81 88
78 76 76 74 78 80 80 79 77 78 84 82 87 91 93 93 94 97 92 89 86 88 88 85 92 92 91 91 84 78 76 74 74 78 70 73 70 70 75 74 73 74 76 80
79 81 79 78 77 81 84 86 90 90 92 92 93 96 96 98 96 94 91 88 92 85 87 83 85 86 81 84 76 74 76 80 76 76 79 83 79 73 78 80 80 81 75 74
90 89 84 85 83 86 91 95 92 94 95 94 96 94 93 96 96 92 89 85 89 86 85 70 76 79 77 74 85 68 80 84 79 81 86 83 89 90 86 85 81 84 86 84
93 92 94 94 97 96 96 94 94 96 98 95 91 94 93 92 95 98 89 72 83 86 66 68 64 71 68 72 64 84 84 87 88 88 91 92 92 89 90 90 89 90 90 89
94 95 96 95 95 98 96 93 92 94 92 93 97 95 92 86 89 89 92 80 72 92 66 64 58 78 80 87 72 84 82 84 85 84 86 87 88 90 91 91 91 91 91 91
94 94 94 95 93 94 95 94 94 89 93 95 95 94 84 76 77 74 72 75 70 83 69 76 84 84 91 91 90 90 89 90 90 89 88 88 88 92 92 89 89 91 90 90
93 91 92 89 86 74 68 75 71 79 91 88 92 92 78 81 84 74 74 88 92 87 81 85 91 93 90 87 88 90 90 90 93 93 89 98 91 91 91 92 90 89 92 94
90 88 85 82 63 61 64 65 69 74 78 72 74 73 76 69 83 76 85 86 88 84 82 92 91 93 92 92 92 92 92 91 91 93 92 93 92 92 90 90 91 90 90 91
76 68 67 71 70 71 70 69 75 81 80 87 85 86 86 87 88 89 88 91 89 90 88 93 94 93 94 92 93 93 93 91 92 93 94 93 90 92 93 92 92 92 91 90
77 78 74 78 78 82 84 83 87 86 93 88 78 86 82 90 94 90 97 92 92 93 93 92 92 92 92 92 90 90 90 90 91 91 92 92 92 92 92 93 93 93 94 93

GFSNGP_sfc_rhum_102.txt.gz
RH
35 35 34 35 34 31 32 27 42 19 20 19 30 42 44 57 58 62 70 71 64 63 64 61 65 70 71 84 87 84 94 96 93 92 93 92 93 94 96 95 94 91 93 92
35 32 34 35 26 26 27 25 24 22 30 38 46 56 72 70 69 70 71 75 66 64 66 68 71 73 74 79 95 86 87 91 90 94 89 91 92 93 94 94 95 92 93 90
26 33 32 31 32 26 24 25 41 54 52 50 59 83 74 74 75 77 76 80 78 74 74 74 80 78 80 92 86 91 85 86 93 95 94 95 94 93 98 97 96 97 95 94
39 40 55 63 56 64 69 60 71 66 61 69 85 91 87 83 86 84 85 91 83 84 81 80 79 78 74 75 83 87 87 89 89 93 92 94 95 100 100 100 100 100 98 95
71 56 43 74 76 92 94 77 89 83 72 75 81 78 89 85 89 95 96 95 99 91 85 87 86 78 76 77 76 78 94 96 97 96 95 93 95 98 100 98 97 98 98 96
62 69 65 97 61 54 82 87 77 84 80 86 94 92 83 90 93 97 98 96 94 100 99 88 94 84 81 87 86 95 96 97 97 100 98 96 99 98 98 97 97 95 96 95
63 70 88 80 62 66 95 95 79 86 90 94 88 90 97 97 96 99 95 93 93 88 90 94 98 95 93 92 94 95 96 95 95 96 100 100 100 100 100 99 97 97 96 96
60 78 84 64 60 91 96 91 89 94 95 94 92 92 94 94 94 95 96 88 81 79 77 71 66 71 90 93 97 96 95 94 96 97 99 100 100 100 100 100 98 98 97 97
87 90 88 77 89 86 92 92 96 94 94 92 92 94 93 94 94 95 94 68 57 62 63 65 65 67 75 72 81 88 91 93 95 96 97 96 96 97 93 98 98 98 96 96
89 86 82 86 79 80 91 91 93 91 89 89 93 93 94 94 94 92 88 76 62 58 62 68 64 66 66 60 47 55 65 70 75 81 85 86 75 77 85 89 89 90 94 95
92 89 81 82 85 86 91 86 90 92 87 88 89 93 83 82 86 87 88 83 70 71 70 70 59 59 58 57 55 52 51 62 65 64 70 73 83 88 84 90 88 89 91 90
85 72 83 92 91 87 90 88 85 74 74 72 75 82 81 83 78 78 83 82 80 80 78 72 63 66 65 56 52 53 51 51 61 63 66 62 62 73 82 83 82 80 80 84
90 83 88 89 86 80 82 84 76 70 66 68 64 64 68 78 74 75 73 79 88 91 88 86 85 87 84 76 70 69 70 60 57 61 61 66 72 74 77 82 79 80 78 77
73 74 89 79 84 72 60 60 61 57 58 57 55 53 56 58 56 57 67 67 68 78 86 87 87 90 89 87 82 81 84 78 78 76 78 81 83 83 81 81 82 84 78 79
74 68 64 63 58 58 55 55 57 58 57 57 53 53 52 55 55 56 48 43 46 60 76 84 87 90 89 88 78 82 86 86 84 84 82 79 79 78 76 76 77 76 75 70
81 64 60 63 62 59 55 54 56 58 57 58 57 54 49 46 49 54 53 54 50 63 70 85 82 89 89 87 78 75 74 78 73 72 72 70 70 68 66 68 69 70 70 72
83 79 68 67 62 60 56 53 53 57 58 61 61 51 48 49 49 62 75 78 82 82 75 80 86 88 88 85 76 66 68 66 67 63 65 65 66 66 63 64 65 64 68 80
65 63 60 60 63 64 64 61 59 60 68 66 77 83 87 85 81 82 84 80 80 80 77 80 81 80 80 80 70 60 59 57 57 62 59 66 62 57 63 63 61 62 64 69
65 68 66 64 64 68 71 74 79 82 85 84 86 89 90 89 84 82 81 79 76 72 80 72 72 68 67 72 61 53 57 64 59 54 62 64 68 62 67 71 70 72 66 66
77 73 71 72 70 76 84 89 86 88 89 88 89 86 87 89 86 84 80 81 82 74 72 64 59 58 56 54 61 47 62 67 58 61 70 66 76 80 76 74 70 74 81 78
91 90 90 91 93 91 90 90 90 91 90 86 81 86 84 87 87 88 78 59 75 72 61 58 52 50 45 53 43 69 68 71 71 70 76 77 78 75 80 82 82 81 81 82
92 92 92 92 91 93 90 86 86 87 85 85 86 84 85 82 84 80 82 69 57 78 57 54 49 68 61 79 54 70 64 65 68 71 72 73 75 77 78 80 82 84 83 83
90 89 90 90 86 85 84 81 79 78 82 85 87 86 74 64 60 64 65 62 53 66 53 63 73 73 75 78 75 75 72 71 71 71 73 75 76 76 75 75 77 78 81 79
88 85 85 85 81 66 64 69 63 73 82 80 82 83 66 74 77 58 59 75 71 77 75 78 81 82 93 83 82 82 81 79 78 78 73 78 75 74 73 74 73 72 78 77
83 82 75 66 49 50 54 53 56 58 65 58 62 64 70 59 80 70 76 80 78 79 74 91 84 91 88 85 84 84 84 83 85 85 84 80 77 75 73 72 73 73 72 72
64 49 47 47 48 50 53 54 60 63 61 72 72 79 82 76 71 70 75 80 78 80 79 82 83 81 79 77 77 76 76 74 78 81 84 86 86 78 77 74 74 73 74 73
52 57 57 59 55 57 60 62 70 73 76 78 72 79 75 80 81 73 82 79 81 81 81 81 80 78 80 80 75 74 75 76 81 80 84 86 86 88 89 86 80 81 85 78

GFSNGP_sfc_rhum_105.txt.gz
RH
24 25 24 28 28 26 27 27 35 20 17 15 35 41 51 46 47 50 57 56 56 57 58 58 61 63 64 72 80 88 88 92 97 96 90 93 94 96 93 95 92 94 92 92
32 25 24 24 18 18 19 19 20 17 18 41 41 43 64 64 61 61 64 63 61 60 62 66 67 67 67 71 76 84 92 92 87 88 89 92 94 95 95 92 94 92 95 95
26 26 24 25 25 21 18 15 23 33 46 44 60 80 84 77 68 69 70 70 73 68 69 72 75 69 73 71 72 80 94 96 92 95 95 96 93 94 98 96 94 98 97 94
34 32 38 50 45 48 54 44 52 50 51 53 73 77 74 77 80 75 75 80 81 78 76 80 83 74 69 66 72 82 90 96 96 97 98 98 96 94 97 98 100 99 96 97
60 42 40 46 55 90 88 79 81 67 58 57 69 69 81 74 78 86 91 96 100 85 86 91 94 77 72 74 74 79 94 96 98 98 98 97 96 94 95 95 96 97 97 96
51 62 56 93 51 43 68 77 65 72 71 65 70 87 88 82 88 98 99 97 92 100 100 96 99 83 80 85 84 94 96 98 98 98 100 100 100 100 100 98 97 95 95 96
53 56 87 71 50 54 93 95 75 79 84 82 93 87 97 96 97 100 94 94 96 86 96 98 94 97 93 93 95 95 92 93 93 94 97 100 100 100 100 100 100 97 97 97
47 67 88 56 55 82 92 82 76 85 91 95 89 86 93 94 95 96 97 88 84 90 83 66 60 65 85 92 100 99 95 92 93 94 96 95 98 100 100 100 100 100 99 97
84 92 84 70 84 80 75 78 91 87 91 86 87 92 94 94 94 95 95 79 60 59 60 57 56 57 65 68 67 81 86 93 94 91 91 91 90 91 91 94 92 96 95 96
84 84 77 80 70 73 72 81 79 77 86 88 93 94 95 94 94 93 91 70 57 54 54 57 53 53 50 48 42 46 58 63 67 75 78 78 75 78 82 90 89 89 92 93
90 81 72 71 73 73 79 80 88 82 75 80 85 88 77 83 89 89 85 76 62 61 57 56 49 52 48 47 43 43 47 52 56 63 68 75 78 78 80 90 86 90 93 90
86 67 76 84 77 72 79 82 77 66 68 66 69 77 77 80 74 73 80 77 75 73 70 63 57 60 58 53 49 51 50 50 58 54 55 54 62 79 79 77 75 76 77 81
88 73 81 77 73 66 75 75 64 61 58 60 59 60 65 73 68 69 67 75 83 85 81 81 81 83 78 67 64 65 62 57 56 61 60 63 64 65 69 84 78 75 72 74
67 68 80 72 77 61 56 55 57 52 52 52 50 49 52 52 50 52 57 57 61 72 79 82 83 87 84 87 78 82 82 76 76 74 75 78 78 78 78 78 80 82 78 75
65 60 59 56 51 50 49 48 52 53 52 52 48 49 48 48 47 45 38 34 36 51 67 77 82 86 82 84 80 80 81 79 86 84 79 76 74 72 71 71 72 72 71 67
62 55 53 55 51 50 49 50 52 53 53 53 50 47 44 41 42 45 46 52 53 66 68 84 78 85 82 83 80 76 74 67 65 66 66 65 64 63 61 64 65 66 70 70
70 70 63 61 56 53 51 49 49 52 53 52 50 45 40 40 44 58 72 76 79 78 76 80 82 84 84 81 72 60 63 59 58 58 58 60 61 59 58 59 60 59 68 73
57 57 55 55 56 54 53 52 53 54 60 55 74 82 85 80 79 82 83 78 75 79 77 78 76 76 76 73 69 52 54 54 52 54 54 60 58 52 58 62 59 60 62 67
64 61 62 57 56 57 59 62 71 77 85 83 83 85 84 82 80 82 78 74 70 68 79 71 64 61 58 61 57 47 53 60 55 49 58 57 64 62 67 66 66 70 67 69
78 67 63 64 63 70 76 86 83 84 85 85 85 83 83 85 83 81 75 78 77 69 68 61 52 48 45 45 54 46 59 64 55 58 65 62 72 75 74 67 72 77 78 76
93 87 86 87 90 88 87 87 88 89 85 81 78 82 81 84 82 82 83 57 72 64 58 58 47 44 39 51 44 66 65 68 68 68 73 75 76 71 74 78 74 77 85 78
92 92 92 91 90 92 88 85 85 84 82 84 86 84 83 79 78 73 71 69 54 74 55 50 48 62 55 78 53 69 64 62 66 70 72 74 75 77 76 76 76 79 76 78
92 91 89 89 88 88 84 80 79 78 81 82 82 79 74 62 55 59 66 58 50 61 50 60 70 72 75 81 75 78 76 72 79 78 77 82 76 78 77 77 75 76 78 75
88 84 85 82 81 66 64 68 63 71 78 76 80 79 67 67 78 52 54 67 62 69 70 74 75 76 88 82 88 86 81 81 82 85 78 83 87 85 83 80 77 74 76 75
81 81 81 70 48 48 51 50 52 55 58 50 54 57 64 51 72 66 69 78 79 73 75 89 80 81 86 81 83 79 81 81 86 80 85 87 81 85 87 81 81 80 78 70
68 61 50 43 45 44 46 46 54 57 54 68 68 74 78 69 63 63 69 70 66 67 77 83 82 75 76 76 75 81 80 81 84 78 78 84 86 86 89 90 89 88 84 84
53 48 43 46 44 47 51 53 65 67 70 73 71 74 70 74 76 64 69 74 75 75 82 80 79 80 79 74 78 75 76 76 78 76 79 83 82 84 84 84 86 83 82 81

GFSNGP_sfc_rhum_108.txt.gz
RH
32 24 23 28 24 23 26 27 46 30 22 47 53 59 57 51 50 53 57 57 61 63 64 66 68 70 68 74 79 81 86 91 92 88 86 88 90 91 91 92 91 90 92 93
43 26 23 24 17 18 21 21 19 17 22 53 60 62 68 64 63 63 62 63 64 65 67 73 75 74 73 76 81 83 87 89 88 89 89 90 91 92 92 94 96 92 95 94
42 29 24 29 27 19 21 17 26 32 54 48 72 78 81 75 70 71 71 70 71 74 76 79 89 84 83 80 80 92 94 88 91 96 97 97 97 92 93 94 93 97 96 94
39 35 37 49 43 42 49 62 56 52 52 62 73 76 77 73 75 75 75 80 79 84 85 90 96 91 84 75 80 92 92 91 96 97 98 98 97 96 97 96 95 96 96 97
51 42 48 44 53 82 79 87 71 65 57 68 72 73 87 73 76 87 91 94 97 94 95 99 97 96 95 82 82 82 92 94 98 98 98 98 98 98 98 95 94 94 94 93
55 59 55 83 46 42 63 84 66 71 72 66 77 91 93 87 86 92 95 96 94 100 100 97 100 99 90 86 85 93 93 94 97 98 95 97 98 99 99 99 97 95 95 96
56 54 88 69 46 50 87 91 79 76 84 85 89 92 93 82 90 94 92 95 99 97 98 99 98 99 98 89 94 91 87 87 87 89 89 92 92 97 98 99 95 96 96 97
53 60 77 59 54 77 89 78 80 79 86 92 91 85 85 88 94 94 97 95 94 94 92 74 58 61 76 90 99 100 92 87 88 85 87 87 89 90 91 90 93 96 95 94
90 92 79 71 85 79 79 81 84 80 80 78 84 86 88 93 95 97 97 94 78 59 55 52 52 51 58 59 63 70 79 83 85 86 84 83 86 89 89 89 91 90 92 93
82 78 76 75 72 68 72 75 75 75 77 81 93 93 95 96 97 96 91 68 55 51 52 57 56 55 55 50 44 50 60 63 68 74 86 82 75 78 83 88 89 90 91 92
90 82 77 69 72 74 75 72 73 72 74 80 84 94 85 85 88 90 89 80 64 66 65 65 57 60 56 56 52 53 57 62 65 65 66 82 88 84 81 84 80 88 91 91
86 69 79 83 73 71 77 78 73 66 70 69 72 80 78 85 79 78 82 79 79 78 76 72 67 70 75 64 61 63 66 65 70 70 70 68 69 86 78 76 73 72 71 77
90 76 82 79 71 63 71 66 61 61 60 66 64 66 70 78 72 69 69 80 89 90 89 89 88 89 86 84 76 75 76 76 74 74 75 77 77 78 83 90 79 75 72 72
69 73 79 71 76 63 60 55 55 52 52 54 54 55 58 57 54 53 56 61 65 78 86 87 89 90 88 87 95 89 83 82 84 84 86 86 87 88 88 87 88 88 71 69
66 59 61 57 53 53 52 50 54 54 52 53 51 54 51 50 47 46 43 40 46 61 80 86 90 91 89 87 90 91 86 84 86 89 86 84 83 82 82 82 84 86 82 74
62 56 53 53 51 51 50 51 54 56 55 55 54 50 46 43 46 52 56 61 60 76 79 92 86 92 88 86 91 77 77 78 77 75 77 75 75 75 74 77 79 89 86 81
70 70 61 57 55 53 52 50 51 55 57 54 52 47 41 45 54 69 82 86 89 91 90 91 91 91 89 82 84 70 73 69 74 67 70 72 73 73 74 78 78 77 95 90
56 59 58 55 59 58 57 57 58 58 63 67 87 87 89 88 90 93 91 89 92 92 88 90 89 86 86 79 75 63 66 65 62 65 66 72 73 69 79 76 73 80 81 81
60 61 63 61 60 61 62 67 85 87 89 87 88 91 91 91 90 90 87 89 88 85 87 84 79 74 62 66 65 61 66 72 66 65 71 73 81 75 82 84 84 86 84 85
69 70 66 65 67 73 90 93 88 90 90 90 91 92 92 94 92 91 89 88 87 79 82 72 58 52 51 53 78 59 72 76 69 72 80 78 84 85 83 82 82 85 90 94
89 88 90 93 95 92 91 90 92 94 92 91 88 92 92 92 91 94 91 89 84 76 64 66 56 53 47 61 63 80 79 81 81 82 86 86 86 84 84 85 85 87 88 89
93 94 94 94 93 94 93 91 91 90 90 93 93 92 92 90 90 85 87 76 64 77 66 61 61 75 68 89 76 83 80 80 82 86 87 87 88 89 87 88 88 88 86 89
94 93 93 93 92 92 93 90 88 89 91 92 92 90 85 70 64 70 90 56 59 75 59 84 81 85 87 91 87 89 86 84 86 86 90 88 89 93 92 92 92 90 90 90
94 91 91 90 90 81 78 76 67 77 88 85 91 92 73 80 84 62 69 74 80 82 84 90 90 88 97 94 92 87 86 87 89 88 87 87 89 87 86 91 95 91 92 90
88 88 89 84 62 55 54 55 59 63 67 56 60 62 64 58 83 79 83 84 84 79 88 89 89 84 87 88 86 87 90 89 92 92 89 86 89 90 92 87 88 92 94 94
75 74 66 52 51 51 52 52 60 64 61 77 78 84 84 76 74 75 83 75 80 76 86 89 90 88 88 84 84 89 86 87 90 86 85 88 88 88 90 88 87 88 90 91
65 64 52 53 51 51 56 59 73 76 78 82 84 84 78 82 84 73 82 84 84 88 87 87 88 87 88 84 86 83 83 86 88 84 89 89 89 89 91 88 87 85 88 87

GFSNGP_sfc_rhum_111.txt.gz
RH
43 50 35 31 31 31 39 43 62 45 74 83 78 77 71 64 61 63 68 67 68 69 73 75 75 79 76 81 83 83 86 90 92 90 88 86 86 86 86 87 86 86 88 88
64 40 29 33 25 24 26 26 30 55 88 73 73 72 78 72 71 73 71 71 70 72 73 79 81 86 85 88 85 84 89 96 94 90 89 91 86 86 86 88 87 87 90 90
81 48 42 43 52 41 48 62 56 77 78 72 79 82 89 82 79 81 79 75 78 84 87 88 95 95 95 97 92 90 94 94 96 92 97 97 90 87 90 94 89 90 90 91
72 46 59 63 50 55 75 76 67 63 72 76 86 87 86 83 85 85 83 87 87 94 94 96 97 96 96 96 94 93 92 93 96 91 92 96 94 97 97 94 96 96 94 93
78 73 63 56 65 83 86 90 79 80 81 85 85 85 94 84 84 93 98 95 100 97 98 99 98 99 99 96 90 85 92 94 96 95 94 93 95 97 98 93 95 96 97 94
78 85 84 89 59 60 74 96 80 83 84 90 86 96 97 89 88 97 98 98 98 99 98 97 99 99 98 97 97 96 90 85 86 86 89 92 94 97 97 97 97 95 95 96
85 88 90 78 55 59 90 90 81 82 93 91 96 98 98 94 98 99 97 98 97 97 98 98 97 94 95 96 95 95 91 87 84 83 84 86 88 90 91 90 89 91 93 93
80 89 97 74 69 85 94 88 86 91 92 96 95 95 96 97 98 98 98 97 96 96 96 80 60 63 76 85 89 86 91 92 89 86 86 85 86 85 88 90 89 89 90 91
95 99 86 76 90 88 82 91 88 91 91 89 93 95 96 97 97 98 98 97 81 66 61 62 61 62 71 67 72 72 76 81 92 89 88 86 87 87 82 85 89 90 90 91
94 84 82 82 77 80 81 85 81 79 83 85 94 96 97 97 97 97 95 78 65 63 66 71 71 75 72 66 58 63 70 74 74 78 91 86 82 81 84 85 86 88 91 92
96 86 80 80 79 80 80 77 82 86 87 91 92 95 92 94 96 96 93 88 80 81 81 82 76 81 81 82 70 70 74 73 76 76 79 88 93 94 91 86 79 89 93 89
95 84 86 92 84 74 81 79 81 82 88 86 88 93 91 94 91 89 92 91 92 91 89 86 81 84 86 83 82 76 80 80 80 82 84 82 82 95 86 75 68 64 71 84
93 88 88 82 78 70 78 76 73 75 73 77 75 80 86 91 87 81 87 92 96 97 96 96 94 93 92 87 88 80 82 78 88 83 84 86 90 90 94 90 71 62 67 74
78 78 87 79 86 68 64 61 62 63 67 69 69 70 74 69 65 70 78 82 82 92 94 92 91 91 91 90 92 96 86 85 92 95 92 90 93 94 94 95 95 87 70 73
76 73 72 65 62 61 60 58 62 64 64 66 66 64 59 57 61 68 66 60 64 79 93 94 94 92 90 88 92 94 94 88 92 93 90 89 88 92 92 93 98 98 92 87
69 66 64 68 64 63 60 60 63 66 71 66 62 57 57 62 70 75 75 74 77 93 95 98 92 93 93 91 91 93 89 84 87 88 89 88 87 88 88 92 94 98 95 95
76 75 68 67 67 64 61 61 63 67 66 62 60 56 60 67 76 88 94 94 96 98 97 98 97 94 93 89 88 94 93 87 88 86 82 86 87 88 92 93 94 95 100 97
68 72 70 65 70 70 70 67 67 66 76 74 82 85 88 91 96 98 97 98 98 97 96 93 95 92 88 88 88 82 83 79 76 81 79 89 84 83 88 91 89 94 94 97
67 70 76 72 73 73 80 82 88 86 87 86 84 90 92 94 96 97 96 97 100 97 90 91 82 84 78 82 82 85 87 87 84 82 86 91 93 89 94 97 94 95 96 89
81 78 74 75 81 88 92 92 90 92 92 90 92 94 96 99 98 97 94 94 94 93 92 87 72 72 66 67 89 87 93 93 90 93 97 96 98 98 98 98 96 98 99 98
89 89 92 93 96 95 92 92 92 93 94 90 90 94 95 99 98 98 98 98 92 90 84 75 75 79 71 81 85 97 96 97 97 97 99 99 99 99 98 99 98 99 98 100
94 94 95 94 95 97 94 94 90 90 95 94 95 96 97 98 98 96 94 88 86 80 87 83 83 87 87 99 93 97 96 95 96 97 97 93 94 94 94 96 96 99 99 100
95 95 95 94 94 96 94 92 93 93 94 94 95 95 91 91 91 91 95 81 76 85 88 94 93 94 97 99 96 97 97 98 99 98 98 99 99 95 94 94 94 94 93 98
96 96 95 95 93 89 91 92 84 88 91 91 94 96 93 98 95 84 86 90 88 93 98 98 93 94 100 94 97 97 98 98 97 96 95 99 98 95 93 94 94 92 92 93
95 95 95 93 81 80 75 72 76 78 83 78 76 71 78 83 94 97 97 95 89 98 98 94 92 97 98 98 99 99 99 97 96 99 100 100 100 96 94 94 94 94 92 92
88 88 85 73 69 68 70 71 83 86 85 90 96 96 94 94 94 95 92 96 94 97 98 98 99 97 97 98 100 100 100 97 95 98 100 99 99 96 95 96 95 95 96 94
82 81 77 74 62 66 72 78 86 91 92 93 95 95 93 92 94 95 96 96 96 96 97 98 98 98 96 98 98 99 98 98 98 99 96 98 100 99 99 100 95 99 91 95

GFSNGP_sfc_rhum_114.txt.gz
RH
57 58 55 51 34 38 56 58 71 60 85 92 82 81 77 70 67 71 74 71 70 74 73 78 78 83 82 84 85 83 86 89 92 90 86 86 89 90 84 83 82 83 85 85
91 55 40 35 28 31 29 45 77 78 94 76 75 73 77 73 73 76 73 74 75 75 74 77 78 81 80 82 86 83 84 90 86 86 86 91 92 91 89 86 86 86 87 88
94 74 69 67 48 53 65 66 68 83 77 77 85 83 81 84 79 80 81 80 84 86 86 89 94 95 92 85 85 87 88 88 88 91 93 94 94 91 95 96 90 91 93 94
87 79 95 70 64 61 76 79 75 82 80 77 85 86 88 84 84 86 83 88 88 92 94 97 99 97 93 90 90 84 87 89 88 88 93 95 94 95 95 97 97 96 96 96
85 75 72 63 67 83 82 93 84 85 87 90 90 82 95 83 86 95 95 96 98 97 97 96 92 96 96 94 94 86 87 86 87 83 87 89 93 94 92 92 94 96 96 96
85 75 90 86 65 63 67 92 86 86 86 90 87 96 95 92 92 97 98 96 95 99 97 94 96 95 96 98 90 94 90 87 85 85 86 88 87 92 92 89 90 89 90 90
80 86 92 79 63 66 77 84 88 93 96 93 95 97 97 97 98 98 94 96 95 94 96 97 95 92 87 84 88 90 93 88 86 87 86 88 86 85 89 90 88 89 89 88
82 94 93 77 71 80 92 92 95 96 95 98 96 96 97 97 97 98 98 94 92 94 92 80 72 74 85 87 87 84 86 89 92 90 89 87 89 87 87 88 88 89 89 89
94 94 94 87 95 92 88 92 92 94 94 92 95 96 96 98 99 98 97 96 73 70 72 74 78 84 86 80 75 78 82 87 89 94 92 89 90 90 87 87 89 89 89 90
92 92 89 92 87 82 82 91 88 85 86 88 96 97 98 98 98 97 92 84 73 71 77 84 81 80 83 83 68 72 74 78 80 84 90 91 87 84 79 81 88 89 91 91
96 93 85 88 85 85 84 84 87 85 86 91 93 96 93 96 97 97 97 93 84 81 84 87 80 82 84 82 76 75 79 77 82 82 87 89 94 96 78 79 80 92 95 91
93 83 85 92 87 80 87 87 90 90 91 87 88 94 93 97 92 92 95 92 90 88 84 84 80 82 83 82 82 74 76 83 83 82 82 80 81 84 79 65 63 72 73 80
95 81 88 87 80 74 81 82 83 84 86 92 86 84 86 92 89 85 87 92 95 97 96 95 94 94 92 85 87 77 78 78 78 76 78 85 86 89 93 81 64 63 67 67
83 84 92 82 90 73 74 77 76 73 75 78 81 79 81 82 78 77 78 85 85 94 96 97 96 94 94 93 89 91 88 89 92 92 93 94 95 95 98 93 92 90 80 75
78 79 77 73 71 70 66 70 76 78 78 80 76 74 65 67 70 74 72 62 66 84 96 94 95 91 93 92 92 92 90 96 95 96 94 96 94 96 96 98 100 99 97 94
75 74 74 74 71 71 71 71 74 74 76 77 65 59 62 66 70 76 74 68 73 93 95 98 90 95 90 91 91 90 90 88 90 91 93 92 93 94 93 95 95 96 98 98
87 87 79 79 75 72 70 67 68 70 67 62 63 66 68 66 68 85 97 97 94 97 99 98 96 92 92 93 90 93 94 93 93 91 94 92 95 94 92 94 95 95 95 96
75 77 75 72 73 72 73 71 69 64 65 62 76 86 89 88 92 96 98 98 95 88 94 97 98 91 90 92 92 90 93 91 87 93 88 95 92 90 96 96 95 96 97 93
70 71 76 73 73 71 70 73 79 84 85 84 85 89 88 92 96 98 98 96 97 89 87 93 79 88 85 90 86 92 91 92 91 91 92 96 96 93 98 98 98 99 98 98
84 81 80 82 78 85 93 90 86 86 88 87 88 88 95 100 98 95 96 97 92 92 94 87 81 79 76 80 99 92 95 96 93 95 96 96 98 98 97 94 96 99 100 100
88 89 91 94 97 96 95 92 88 89 91 87 86 90 92 97 96 89 88 85 86 93 87 77 83 89 80 91 96 99 97 98 98 100 100 100 100 98 96 96 94 94 96 97
92 94 96 95 95 96 96 95 90 90 88 88 90 92 94 97 99 99 96 88 92 91 89 87 87 93 93 99 92 97 97 97 97 97 98 99 100 100 99 98 97 95 94 94
96 96 96 96 95 95 96 96 94 87 88 89 90 91 86 84 85 87 95 83 82 95 84 95 96 99 98 96 98 99 100 99 100 100 100 100 100 99 99 100 98 96 94 94
96 96 96 96 95 92 93 91 84 88 91 89 89 88 91 97 99 92 90 94 96 97 96 97 98 96 98 98 99 100 100 100 100 100 100 100 100 99 100 100 100 98 98 97
95 95 95 94 89 91 84 78 80 78 78 80 83 79 87 82 93 97 94 96 98 98 98 98 96 98 100 100 100 100 100 100 100 100 100 100 100 100 100 100 100 100 100 98
91 91 90 86 88 88 78 72 78 82 89 95 97 96 97 95 96 96 97 96 98 99 97 97 98 100 100 100 100 100 100 99 100 100 100 100 100 100 100 100 100 100 99 99
93 94 92 79 72 71 76 78 86 94 94 92 94 99 96 97 97 96 98 96 97 99 99 100 99 100 100 100 100 100 100 100 100 100 100 100 100 100 100 100 100 100 100 100

GFSNGP_sfc_rhum_117.txt.gz
RH
91 84 91 93 79 71 68 73 82 67 89 83 86 76 76 74 73 72 72 72 74 76 80 79 80 80 80 81 86 84 87 89 91 88 83 84 84 85 85 85 81 79 82 82
92 72 62 75 46 30 50 57 65 74 91 76 74 75 85 80 76 74 74 74 76 75 80 84 86 89 88 91 93 90 89 91 85 86 84 88 90 89 88 87 85 84 86 85
90 89 96 97 65 36 67 70 78 88 80 80 88 87 87 85 77 86 77 79 76 80 85 88 94 95 96 96 80 79 82 81 81 86 88 90 88 87 90 92 90 91 90 90
95 95 96 82 68 65 75 80 84 86 86 80 88 89 93 89 88 90 90 85 78 88 80 87 88 97 95 96 91 82 83 86 82 82 85 85 89 92 92 91 93 93 92 91
96 92 80 75 76 83 78 87 87 90 89 88 90 88 94 83 90 96 97 99 99 94 94 97 97 96 98 97 97 82 87 89 89 85 89 87 90 92 92 92 92 92 90 90
94 94 95 80 66 62 64 79 85 91 91 91 88 98 97 90 96 99 99 97 97 98 98 95 97 95 96 95 90 95 91 90 88 87 89 92 92 93 92 92 92 91 90 89
86 86 87 80 66 64 72 75 89 90 91 91 96 97 95 96 99 96 95 98 96 96 97 98 94 91 93 91 95 91 90 88 88 89 87 91 91 90 91 92 89 89 89 90
76 90 86 75 68 78 89 97 93 96 96 94 96 96 96 97 98 97 96 96 95 95 96 87 86 83 90 93 93 90 87 89 93 92 91 90 89 86 88 89 88 89 88 88
84 87 94 91 96 94 88 94 97 97 95 89 93 95 95 97 97 98 97 92 79 81 82 83 82 83 90 86 78 80 84 91 93 94 93 94 89 86 89 88 90 90 88 90
90 94 96 98 92 87 88 93 94 92 92 88 95 94 97 96 97 97 95 91 78 80 84 85 80 78 80 80 75 76 79 81 83 88 89 91 81 74 81 88 88 90 90 91
96 94 91 90 93 91 93 88 88 87 86 90 92 96 93 95 97 98 98 94 82 83 83 84 78 80 83 80 76 70 77 78 80 79 82 86 89 77 74 80 74 85 93 88
90 82 85 90 92 87 91 90 87 90 90 87 88 94 93 97 95 92 94 88 89 87 85 81 79 82 84 82 74 73 75 73 81 81 84 81 82 79 70 65 65 64 63 70
90 80 88 91 86 78 86 86 85 84 84 92 90 87 88 93 88 80 80 89 95 97 96 94 92 93 92 83 77 77 84 74 82 84 86 89 94 90 95 86 69 67 66 63
87 86 95 89 93 76 80 81 79 85 85 83 81 78 79 82 76 74 81 84 85 92 94 95 93 93 94 94 91 92 94 92 95 96 98 98 100 100 100 99 100 97 86 75
84 80 80 79 71 75 79 82 86 88 84 84 78 82 80 75 72 75 70 64 68 82 93 94 92 94 95 97 94 94 92 96 98 99 99 99 98 99 96 96 97 98 98 94
83 80 80 81 79 83 85 83 85 84 84 84 77 70 67 69 74 74 70 68 76 90 91 97 90 95 96 95 95 95 96 92 96 95 96 96 94 94 93 95 96 97 96 97
93 93 87 86 84 82 82 77 75 78 80 72 67 67 67 71 76 84 94 94 95 98 98 96 94 98 95 93 90 95 97 95 95 92 94 95 96 96 95 97 98 97 98 100
80 79 79 78 80 80 78 75 74 75 72 67 78 84 87 85 86 95 97 98 94 93 96 97 96 95 94 94 92 91 94 94 91 94 92 95 93 91 95 96 95 94 96 98
79 84 84 77 75 74 75 76 77 80 83 86 86 88 89 88 89 96 97 90 91 90 88 95 86 92 94 94 91 92 94 95 94 91 92 97 96 94 97 95 96 96 97 96
85 81 79 79 76 78 86 89 86 86 87 87 88 87 93 97 95 96 97 89 90 93 94 91 83 82 88 93 97 91 96 97 93 96 97 97 99 100 97 97 96 96 96 95
91 90 90 90 94 95 95 89 88 90 89 83 81 87 93 96 96 97 98 90 88 91 83 83 87 94 94 97 92 99 98 98 99 100 100 100 100 100 100 99 100 100 97 96
92 92 95 95 96 96 96 94 92 90 88 88 87 92 94 90 90 97 94 83 84 95 86 89 92 99 99 97 92 98 96 98 99 100 100 100 100 100 100 100 100 99 99 98
96 95 96 96 96 96 96 96 96 94 90 87 87 91 87 83 87 94 97 84 84 95 86 95 99 100 98 98 99 100 100 100 100 100 100 100 100 100 100 100 100 100 100 100
96 96 96 96 95 94 94 95 93 93 86 84 85 87 85 93 97 90 89 91 94 94 94 97 100 100 100 100 100 100 100 100 100 100 100 100 100 100 100 100 100 100 100 99
95 95 95 95 93 93 92 91 91 80 74 64 67 75 85 82 94 97 92 98 97 96 99 100 100 100 100 100 100 100 100 100 100 100 100 100 100 100 100 100 100 100 100 100
92 92 93 92 92 92 92 91 86 80 82 95 97 98 98 96 92 92 97 98 95 98 96 98 99 100 100 100 100 100 100 100 100 100 100 100 100 100 100 100 100 100 100 100
94 94 94 94 93 93 93 92 88 89 93 92 96 100 97 98 97 97 98 97 97 97 98 100 100 100 100 100 100 100 100 100 100 100 100 100 100 100 100 100 100 100 100 100

GFSNGP_sfc_rhum_120.txt.gz
RH
86 83 84 86 84 83 94 90 96 85 76 83 83 79 82 80 79 75 76 78 76 73 80 82 77 88 84 88 90 87 86 86 90 88 84 86 86 85 84 84 84 82 84 83
91 82 84 92 87 89 92 98 99 87 87 81 72 77 83 83 80 80 80 76 73 75 78 83 84 87 88 88 81 80 84 82 80 80 80 85 86 87 85 84 85 86 88 86
92 85 91 94 82 71 64 71 77 86 77 81 86 84 88 87 77 79 76 77 79 85 87 89 94 95 93 94 91 82 84 83 80 83 83 86 85 85 90 91 89 89 88 88
95 98 96 75 75 72 58 75 81 84 88 84 87 90 90 82 84 90 83 77 86 90 89 92 96 94 97 94 89 82 85 87 83 84 87 87 88 91 92 93 94 94 88 87
96 94 80 75 76 83 77 74 88 93 88 92 92 85 96 82 84 95 96 88 98 93 97 98 98 97 94 96 94 81 89 91 92 88 92 92 94 95 92 93 92 92 90 90
95 96 96 78 75 70 67 82 88 87 91 92 85 95 98 97 95 99 98 96 98 98 98 96 98 96 94 94 92 95 94 92 90 86 89 91 91 93 92 97 92 90 90 86
95 94 85 77 69 59 78 80 87 86 88 88 93 94 95 97 99 97 96 96 96 96 98 98 95 94 96 95 96 95 92 89 89 90 85 88 90 92 93 95 88 88 88 87
92 96 92 76 73 72 84 95 93 93 89 92 94 93 97 97 98 97 96 97 95 96 96 90 87 84 95 96 95 94 93 91 94 94 91 87 88 91 89 90 88 87 88 88
83 87 95 94 94 91 88 92 96 95 93 94 95 98 95 98 96 98 98 96 88 89 85 85 86 89 94 87 83 84 87 92 93 92 94 84 86 88 86 88 88 87 87 89
84 95 97 95 89 88 88 90 93 92 90 88 95 96 98 97 97 97 95 88 86 85 84 85 80 77 79 76 77 73 77 79 80 83 85 83 74 74 80 82 85 86 86 90
95 97 94 93 89 92 92 90 93 90 86 90 92 95 94 96 97 97 97 95 88 87 85 84 80 80 83 81 73 62 68 74 79 79 83 83 82 80 76 80 72 80 86 85
88 81 83 91 93 87 91 94 90 89 90 85 86 94 93 97 94 93 96 94 94 91 86 83 81 82 81 80 73 70 71 77 84 82 85 80 80 81 73 69 66 65 65 70
90 83 89 92 90 83 91 90 83 84 86 92 89 87 88 94 90 78 83 92 95 96 95 94 96 94 92 84 74 78 85 77 87 84 88 90 92 90 96 88 77 72 69 68
88 87 96 90 94 83 82 82 80 83 83 85 85 82 80 79 68 67 79 86 86 92 94 96 94 97 96 94 90 94 96 94 97 98 98 99 100 100 100 100 100 99 89 80
86 83 83 84 79 78 82 87 89 89 87 86 78 79 76 69 70 74 72 64 69 83 93 93 92 97 97 95 93 97 97 99 99 98 98 99 98 98 99 98 98 97 96 94
87 84 83 82 83 87 89 86 84 85 84 84 82 77 68 66 71 72 72 69 74 86 90 95 92 97 97 97 97 98 98 94 96 96 97 97 97 97 94 94 92 95 96 99
93 95 88 89 87 88 85 81 80 82 82 82 79 71 70 74 77 87 95 92 92 94 97 94 97 98 97 96 95 98 98 96 97 96 96 97 99 96 95 95 97 96 96 99
83 82 80 81 87 87 85 80 80 80 82 71 79 85 88 86 90 96 96 96 93 93 95 96 97 97 97 97 96 95 97 96 91 94 91 95 92 89 92 93 92 94 96 92
84 86 87 83 81 81 81 81 85 84 84 86 86 87 86 87 90 95 96 90 87 87 90 95 93 97 97 96 91 94 94 94 90 90 90 96 94 91 96 97 97 97 97 94
90 87 83 82 79 82 94 95 90 89 88 86 88 87 88 91 94 96 92 89 90 92 92 92 87 93 92 90 96 90 93 96 91 95 97 96 100 100 98 97 96 99 100 98
93 91 91 90 95 95 95 95 94 94 92 85 83 84 84 91 92 92 89 82 90 92 84 88 93 98 94 90 89 98 97 98 99 100 100 100 100 100 100 100 100 100 100 100
95 95 96 95 95 96 96 96 95 95 95 92 87 88 92 95 96 97 96 82 85 92 86 92 96 99 96 97 89 98 96 97 99 100 100 100 100 100 100 100 100 100 100 100
97 95 96 96 95 96 96 96 96 94 95 92 89 90 89 89 86 88 89 81 83 91 90 96 99 98 97 97 99 100 100 100 100 100 100 100 100 100 100 100 100 100 100 100
98 96 97 96 95 94 94 96 94 95 95 93 90 87 77 84 95 89 87 90 92 92 96 97 99 99 99 99 100 100 100 100 100 100 100 100 100 100 100 100 100 100 100 100
96 96 96 95 93 94 93 93 93 93 93 90 80 81 79 80 94 97 92 95 94 95 98 100 99 100 99 99 100 100 100 100 100 100 100 100 100 100 100 100 100 100 100 100
93 93 92 92 91 92 91 92 91 93 90 90 90 97 97 95 92 91 94 95 95 96 98 100 100 99 99 99 100 100 100 100 100 100 100 100 100 100 100 100 100 100 100 100
95 95 94 94 94 93 93 93 94 95 91 89 94 98 96 96 96 96 97 97 97 97 98 99 99 99 98 100 100 100 100 100 100 100 100 100 100 100 100 100 100 100 100 100

GFSNGP_sfc_rhum_123.txt.gz
RH
64 58 64 59 59 63 76 72 80 56 62 55 75 80 78 70 71 71 69 67 67 70 70 72 71 71 70 72 68 65 67 71 74 69 68 69 71 70 70 72 72 72 75 78
74 70 72 78 67 66 64 66 73 71 82 65 66 75 77 74 72 69 70 68 70 71 69 74 71 72 73 75 69 64 67 68 66 67 66 72 70 70 69 70 70 70 73 74
81 68 85 94 71 65 62 60 64 78 64 72 78 79 78 75 70 70 71 69 74 77 78 79 81 73 77 75 64 65 69 68 70 76 78 80 74 73 78 80 79 81 79 78
81 82 95 45 60 61 67 61 58 61 72 71 69 74 74 68 71 71 70 76 80 83 82 82 85 83 82 69 67 70 72 74 72 75 80 81 82 86 87 85 88 88 88 83
91 85 69 52 62 79 82 66 68 67 78 86 86 79 92 74 71 77 79 88 92 86 86 92 93 85 82 80 73 66 78 80 78 79 85 85 92 89 87 86 86 88 87 87
95 91 81 72 62 56 55 72 68 75 86 92 83 97 83 81 82 91 89 89 90 96 94 92 93 84 85 86 78 85 82 80 75 73 84 91 90 89 86 83 85 79 83 86
95 90 74 61 59 48 76 83 75 81 86 87 89 82 90 90 93 91 89 91 89 88 96 96 88 89 91 88 92 85 80 80 77 73 75 81 83 85 87 84 83 85 82 84
88 88 86 61 60 62 86 88 82 87 86 92 94 95 97 95 97 97 96 90 85 90 90 80 69 68 87 92 88 85 83 83 86 78 75 76 83 83 82 83 82 84 83 84
75 80 84 82 84 83 77 82 89 87 87 86 93 96 95 97 96 97 94 89 78 76 72 69 67 64 70 74 71 74 77 88 81 77 80 73 76 81 74 79 78 77 77 82
75 80 79 86 80 74 75 80 84 80 83 87 95 94 94 96 97 96 92 79 70 66 68 72 67 68 66 62 56 57 60 62 65 65 65 65 56 57 62 69 73 74 78 80
80 89 87 83 77 76 82 80 84 81 82 86 91 96 89 92 93 92 92 84 68 66 68 72 65 66 65 60 50 53 57 58 61 60 60 61 70 66 62 72 65 71 77 74
72 65 68 78 82 78 84 86 83 82 82 77 79 88 85 91 82 80 88 82 79 76 71 69 62 67 67 59 53 53 56 60 65 61 62 57 54 61 70 66 64 62 62 67
86 77 84 87 80 72 80 81 77 76 74 79 74 74 76 84 78 80 79 86 92 92 91 86 87 88 82 65 59 63 64 63 67 66 64 64 65 64 67 68 68 67 63 61
81 80 95 82 88 75 72 72 74 71 71 71 70 67 68 66 68 69 75 77 78 85 89 90 91 93 90 85 86 91 88 88 77 76 75 77 78 79 80 82 82 82 70 69
78 74 73 77 74 74 72 74 76 78 75 74 68 68 64 58 55 66 67 63 66 76 86 89 92 94 89 87 86 84 82 84 83 83 81 81 76 76 76 76 78 78 75 73
81 79 77 78 78 79 75 73 75 78 74 74 71 66 57 49 53 61 61 63 70 78 80 92 88 92 90 87 84 81 78 82 76 74 76 75 75 73 72 73 74 76 79 84
87 91 82 83 82 80 76 71 70 73 73 72 72 61 55 54 59 66 78 82 89 90 89 89 93 94 91 87 73 72 76 75 82 70 72 72 72 72 70 71 73 72 77 85
71 71 71 73 79 79 78 73 72 73 77 73 76 81 83 82 84 91 91 92 94 95 90 91 91 91 90 87 78 74 71 67 67 70 66 73 65 63 70 70 70 73 74 75
75 77 77 75 75 76 77 80 83 83 86 88 88 87 84 86 88 89 90 91 91 92 92 93 87 85 81 81 69 67 68 71 67 67 67 73 76 67 74 77 77 80 76 75
84 81 78 80 77 82 87 91 92 94 95 93 92 88 88 90 90 91 86 84 80 76 88 87 82 80 77 76 72 64 73 77 68 75 79 73 82 85 79 76 77 81 85 84
92 91 92 92 96 94 94 96 95 95 95 95 88 86 87 90 89 88 83 67 82 83 74 84 77 72 67 67 65 84 82 85 85 83 86 86 84 81 83 84 84 87 88 87
94 95 96 96 95 96 96 96 95 95 95 95 92 87 88 90 89 86 84 67 68 83 73 79 77 82 75 76 69 84 80 79 83 83 84 83 84 84 84 86 88 89 89 88
95 95 96 96 95 95 95 95 95 94 94 95 93 85 80 76 73 77 78 66 65 80 75 83 91 92 88 86 87 87 85 86 86 86 86 86 86 86 85 87 88 90 90 88
96 95 97 96 94 92 93 92 92 92 95 94 94 86 78 83 82 64 68 77 79 87 88 93 92 90 87 90 90 90 89 89 88 88 84 90 87 86 85 90 88 88 89 89
94 95 94 94 89 86 86 87 90 92 91 89 88 73 70 67 81 84 85 84 88 85 90 95 93 92 90 90 89 90 90 89 88 86 86 87 87 87 87 89 91 90 89 89
88 86 86 87 84 84 83 83 85 86 88 91 89 86 86 84 85 84 85 88 86 89 89 93 92 91 90 88 89 90 89 85 87 85 88 87 86 84 88 88 90 89 90 89
89 90 88 88 86 85 85 84 89 92 91 92 90 91 88 91 91 86 90 91 92 92 93 93 92 88 88 88 88 89 88 87 92 84 89 88 87 89 91 91 90 90 90 90

GFSNGP_sfc_rhum_126.txt.gz
RH
37 35 38 51 49 42 50 55 72 48 38 28 27 43 53 61 65 64 58 53 51 52 59 61 64 61 60 61 58 57 57 61 63 57 55 57 59 58 58 58 54 53 55 57
45 33 34 38 33 32 34 34 38 39 44 30 29 40 54 64 70 62 59 54 53 53 61 62 63 60 61 58 53 50 54 56 57 58 55 61 60 62 59 58 59 59 61 59
62 40 52 70 46 37 34 31 37 45 33 24 34 50 63 71 60 60 63 64 57 62 64 68 66 63 63 56 49 50 53 55 59 67 68 71 63 62 67 69 65 73 68 66
68 64 93 35 30 32 33 34 34 34 32 32 37 48 59 58 61 66 63 62 65 70 68 68 69 72 61 51 52 54 58 63 62 65 74 74 76 80 82 86 86 86 82 81
81 56 40 31 35 71 76 50 35 42 37 38 54 64 78 61 62 69 69 80 96 72 74 81 78 69 66 60 56 52 68 71 74 74 80 79 80 81 84 84 85 83 82 79
64 73 68 59 26 38 47 68 31 39 40 69 72 90 76 73 71 90 95 87 85 94 92 89 89 74 73 73 65 80 74 72 63 71 79 81 83 81 84 86 85 78 82 79
81 79 55 44 43 42 77 61 48 50 59 70 85 81 95 91 98 100 86 83 80 84 92 91 89 88 85 80 83 76 70 71 70 63 75 78 80 84 82 81 81 79 79 79
86 90 89 52 49 57 76 67 62 71 73 91 92 91 99 99 97 96 93 84 78 84 82 64 56 61 82 85 84 79 73 75 78 75 71 72 77 80 78 78 77 77 77 78
66 64 66 49 64 69 60 60 71 76 79 83 93 96 98 97 92 93 89 79 71 67 59 50 44 44 54 61 64 69 72 78 77 72 75 66 70 74 68 74 71 71 70 74
69 57 56 66 61 57 57 61 68 66 73 80 95 93 92 93 92 90 86 67 54 53 53 53 48 46 46 46 42 43 46 48 49 52 53 50 44 47 53 61 65 66 70 72
76 69 64 59 62 58 62 64 67 67 69 83 87 90 84 88 88 86 83 73 54 53 54 54 45 47 44 40 37 39 41 43 44 44 46 50 58 59 53 67 60 65 69 68
66 49 52 65 60 61 69 72 70 68 73 68 71 82 77 83 77 75 80 70 63 61 56 50 47 49 46 41 38 38 39 42 47 43 43 39 38 52 64 62 59 60 59 63
74 61 75 72 65 58 64 67 66 66 63 68 65 63 66 75 67 72 68 75 78 78 74 73 76 78 58 47 43 43 44 43 50 48 44 48 48 47 55 68 61 59 60 59
63 64 79 67 74 59 57 57 62 58 58 58 58 56 58 59 63 58 62 68 68 77 84 84 84 88 80 79 82 82 80 67 63 64 66 70 72 73 74 74 75 74 69 64
64 60 58 59 57 56 55 58 61 63 62 61 55 57 54 57 53 52 53 55 58 66 78 81 84 87 80 78 77 75 76 76 76 76 75 74 74 71 68 68 68 68 66 62
64 60 61 62 59 59 58 59 62 63 61 60 58 54 51 46 47 52 51 52 56 65 72 82 77 82 79 75 74 72 70 72 64 64 66 64 62 60 57 60 61 62 64 68
73 75 68 67 65 62 58 56 56 60 60 59 58 52 44 45 50 56 66 69 78 82 84 83 86 87 82 73 61 59 64 64 67 58 58 57 58 58 54 56 57 55 60 77
59 58 58 59 64 64 63 59 59 60 64 60 69 73 73 72 71 82 86 88 88 85 80 85 84 86 79 75 62 57 56 54 54 56 52 59 50 47 55 55 53 56 58 62
60 62 63 62 62 64 65 66 69 73 81 82 83 80 77 78 82 86 87 87 85 86 86 83 77 71 69 68 53 50 54 58 54 52 53 58 64 53 61 65 64 67 63 63
69 67 65 67 67 75 78 85 87 88 86 88 92 91 84 83 83 86 85 81 72 66 80 74 66 60 60 64 57 49 61 66 55 63 68 60 72 76 70 63 65 72 77 76
87 87 91 88 88 90 90 91 92 92 93 92 93 88 83 84 82 82 82 70 84 81 68 74 58 56 50 54 50 72 70 74 74 71 76 76 76 72 74 75 76 78 79 79
96 93 93 94 94 94 92 91 91 93 93 94 94 90 87 85 82 75 68 58 63 76 64 60 56 60 57 62 53 74 69 66 71 72 74 75 76 78 78 77 78 79 80 80
95 93 94 94 94 94 93 92 93 92 93 93 93 92 80 70 64 66 67 52 54 65 58 66 77 82 75 76 79 78 76 74 75 75 77 79 78 79 77 77 79 80 81 80
94 93 94 94 92 90 90 91 88 90 93 93 94 93 78 75 69 49 52 58 65 79 75 89 87 82 76 83 81 80 78 78 78 79 76 78 80 78 78 80 78 80 80 79
90 92 92 91 83 79 81 81 82 86 87 85 86 85 69 53 72 65 71 71 78 75 84 86 83 81 83 83 82 81 80 80 80 79 78 78 78 79 79 79 81 81 81 80
80 74 74 77 74 70 71 73 75 77 80 87 87 91 76 67 67 71 74 73 75 78 85 89 86 84 84 82 82 80 79 77 77 75 76 76 76 76 78 77 80 80 81 81
80 80 77 78 75 76 75 75 83 86 85 88 89 85 77 82 82 78 80 82 84 86 89 87 87 82 83 84 82 79 77 77 76 73 78 78 78 80 80 80 81 82 82 82

GFSNGP_sfc_rhum_132.txt.gz
RH
34 27 28 46 55 61 70 73 85 62 50 38 38 50 54 50 39 54 56 52 49 46 49 52 54 56 54 59 60 56 59 63 67 61 60 62 65 64 64 64 59 59 60 60
53 39 41 52 78 61 55 53 55 53 45 35 31 29 52 50 44 53 54 51 46 44 47 52 53 54 54 53 53 52 53 58 58 60 59 65 66 69 66 65 65 66 68 64
66 46 56 71 62 49 41 29 28 36 30 22 23 24 27 47 45 52 53 51 48 48 50 52 54 56 59 55 48 49 54 55 60 65 70 74 70 72 76 77 74 80 78 75
80 64 92 49 32 31 32 28 26 24 23 21 25 31 45 39 58 59 52 53 52 56 61 64 63 61 58 48 50 53 57 59 59 64 72 76 80 86 87 88 90 90 86 84
96 92 59 40 27 40 53 45 35 36 32 26 26 31 67 55 59 58 59 70 82 73 84 86 74 64 56 54 54 53 64 69 70 77 84 84 91 91 90 88 91 90 89 87
97 94 90 57 28 21 36 75 40 36 37 34 33 65 81 72 77 87 87 88 93 96 94 93 90 70 62 60 60 74 67 73 71 78 89 92 91 92 92 90 92 88 89 86
75 76 63 38 26 26 58 62 44 44 56 55 76 89 91 95 98 98 90 96 95 94 98 100 93 93 86 78 84 72 66 67 69 70 83 84 88 92 92 93 92 89 89 87
67 77 83 39 38 49 67 55 50 51 64 92 97 98 99 100 100 99 98 95 89 94 97 91 71 70 87 91 86 72 70 77 85 78 71 77 90 91 90 91 90 89 88 89
80 74 72 49 57 52 55 56 53 57 78 86 97 99 99 98 98 97 94 92 91 91 84 69 60 58 66 70 71 73 77 89 85 76 77 70 75 83 81 86 85 83 84 87
58 46 38 40 41 40 48 49 45 48 74 88 99 99 98 97 97 96 92 84 73 67 63 58 50 48 54 53 52 55 62 63 62 62 61 59 59 63 70 78 79 83 86 87
67 63 54 36 39 42 45 43 48 52 76 92 94 96 90 93 93 92 89 78 67 60 52 50 42 44 44 46 42 46 47 49 54 58 59 64 72 69 68 78 70 80 88 87
71 54 63 67 72 79 51 53 51 58 76 77 82 87 84 89 85 84 88 78 68 60 55 47 42 42 39 36 37 42 45 49 54 52 59 61 62 71 60 63 60 60 59 69
77 65 68 61 66 48 46 51 51 57 63 72 74 72 77 85 78 80 79 77 80 78 77 72 76 89 59 50 46 49 48 47 54 54 54 61 65 74 84 75 62 60 59 57
49 53 59 51 54 46 44 45 53 52 57 64 66 67 76 78 78 78 87 83 78 85 89 89 91 94 91 87 82 82 82 75 73 78 84 87 89 90 91 92 96 95 64 62
52 49 49 46 44 45 45 49 55 61 65 66 65 73 77 78 75 82 81 76 74 79 87 89 91 92 88 87 84 84 85 88 89 91 91 88 88 87 86 86 88 90 85 77
50 47 46 49 47 47 50 54 59 66 67 70 75 72 71 66 71 72 73 70 82 87 82 89 87 89 88 86 86 84 84 82 80 78 81 79 80 78 76 81 84 84 86 82
61 62 53 54 52 54 53 53 58 64 68 70 70 68 64 71 74 71 74 73 80 84 88 88 91 90 88 84 70 71 76 75 74 72 71 72 76 76 72 76 77 76 92 88
49 51 51 52 56 60 61 64 65 66 69 68 72 77 78 77 77 78 86 87 89 88 89 89 88 89 90 87 74 68 68 66 64 67 63 75 61 60 72 71 68 73 79 80
47 52 56 55 60 65 66 68 72 78 86 84 84 84 80 81 85 94 92 91 90 93 95 89 83 83 78 74 59 60 64 66 60 58 65 75 79 68 81 85 83 87 84 82
67 69 69 75 77 78 88 90 88 88 86 84 84 89 94 95 96 95 90 89 84 83 86 81 72 64 63 61 64 60 71 76 64 76 84 76 87 88 86 76 81 89 92 92
88 93 94 94 96 94 92 92 91 91 88 86 94 95 95 96 95 93 88 81 91 82 75 73 60 60 54 57 54 82 81 83 84 82 86 88 88 86 90 90 90 91 92 92
86 90 90 94 94 96 96 93 92 94 95 96 96 95 95 95 96 92 83 83 81 75 68 64 59 63 59 70 66 83 80 78 83 85 87 89 89 89 90 90 90 92 92 93
89 86 90 93 92 92 94 95 94 93 94 94 93 94 93 90 89 91 90 75 70 74 66 72 78 76 78 86 86 85 83 84 86 87 88 90 91 91 91 91 92 91 92 93
88 86 90 90 91 91 90 93 89 90 93 92 92 91 87 93 94 71 74 79 74 78 88 87 82 77 82 89 88 88 86 86 87 88 90 83 90 91 90 92 91 90 92 90
86 86 88 85 81 79 79 82 88 91 88 86 84 84 80 76 85 79 80 80 76 85 90 86 82 84 89 88 88 88 88 88 88 89 87 88 90 91 90 90 91 92 91 90
83 82 81 76 75 79 79 80 83 86 85 92 92 92 93 86 82 75 78 77 80 90 91 91 88 89 89 88 87 86 86 90 87 86 87 87 89 89 90 90 91 91 92 92
80 81 80 82 78 76 79 78 87 90 88 90 90 92 90 90 88 80 81 83 90 90 91 90 89 88 89 88 86 84 87 86 83 85 86 87 89 89 91 91 91 91 92 93

GFSNGP_sfc_rhum_135.txt.gz
RH
52 45 47 64 53 50 67 71 83 64 77 55 49 69 64 72 75 74 67 62 58 58 65 66 69 72 72 75 67 67 68 77 81 76 75 77 76 76 75 75 73 66 68 69
85 47 43 60 52 59 62 62 66 72 77 53 46 45 59 56 62 73 68 60 56 54 60 62 63 68 66 68 71 70 73 76 74 75 75 81 81 81 79 78 77 78 74 72
79 59 62 66 54 50 59 53 55 68 60 49 42 35 40 52 50 67 65 60 56 58 60 62 66 65 69 66 60 66 72 73 76 80 83 88 85 83 88 90 82 85 83 80
90 77 91 55 40 37 45 45 47 40 33 33 29 49 66 56 60 65 63 60 57 61 65 72 71 69 64 58 62 67 74 75 75 82 87 90 92 95 96 94 96 96 89 88
96 90 68 49 53 56 60 58 52 54 48 43 42 65 82 78 70 65 65 76 80 73 76 78 78 69 67 65 68 70 79 82 85 86 92 92 96 97 96 95 95 94 91 87
98 97 86 71 42 33 46 69 52 50 56 66 60 76 94 92 83 89 84 84 87 89 90 88 88 80 68 70 71 82 82 83 84 88 93 97 96 95 96 96 93 90 92 93
88 89 88 67 43 36 70 70 50 59 76 81 93 98 99 97 98 93 92 93 90 88 92 95 92 88 87 82 85 82 78 78 81 85 91 93 95 95 96 96 96 92 91 91
86 95 93 55 51 64 74 72 67 70 94 98 98 98 99 99 99 99 98 94 92 95 97 96 78 76 89 88 86 81 80 84 90 90 83 88 94 96 95 92 92 94 93 93
87 89 72 63 61 61 66 67 65 87 97 96 98 98 98 98 98 98 96 92 87 92 94 96 86 70 76 85 76 80 86 94 92 87 90 83 84 90 92 92 94 92 92 97
73 65 58 58 57 57 62 62 67 86 96 96 98 98 98 98 98 98 95 88 83 87 91 93 69 66 74 70 67 73 78 81 80 81 81 73 71 74 82 91 93 87 92 97
96 82 69 70 70 88 82 64 77 88 95 97 97 98 96 97 96 95 94 89 84 82 79 74 62 63 64 66 62 70 72 70 69 73 76 75 71 80 73 92 81 94 97 96
92 80 80 78 84 80 76 71 88 95 96 88 87 94 92 94 91 88 88 84 84 78 70 65 59 62 59 58 59 61 58 64 71 68 71 70 73 80 64 67 63 61 61 75
93 80 86 77 78 68 87 83 84 84 86 90 83 84 86 92 88 84 84 85 88 84 84 86 87 92 71 59 55 58 62 63 69 71 68 76 77 78 91 80 64 63 57 55
64 68 75 64 79 56 61 62 72 73 77 82 78 78 84 86 86 90 94 96 85 87 89 90 89 93 92 84 82 81 82 82 84 89 91 92 94 94 94 94 98 98 68 67
62 61 62 59 55 56 62 64 71 75 77 77 78 83 84 90 94 97 95 79 78 83 90 88 88 93 92 84 85 87 88 93 94 95 94 93 95 95 94 95 96 97 95 92
62 56 57 60 58 58 64 71 78 78 77 81 84 88 92 95 98 95 86 81 81 87 86 89 88 93 89 87 89 89 89 88 86 88 93 95 93 92 89 90 95 96 96 94
74 72 68 68 68 66 68 72 72 74 82 87 90 89 82 91 95 94 97 97 95 95 95 92 92 94 90 89 82 83 88 87 88 91 86 86 88 88 86 86 95 89 94 93
65 68 66 67 74 72 73 81 82 80 83 79 82 84 88 95 95 96 97 96 96 96 96 94 91 90 90 90 80 82 81 82 76 80 80 86 82 78 85 84 85 88 93 88
63 68 73 72 74 80 83 86 88 87 88 88 86 91 95 91 93 95 96 95 95 95 97 92 84 90 86 86 71 73 81 80 75 76 75 84 90 84 92 94 94 94 93 94
91 87 85 89 87 87 95 94 91 92 91 88 92 95 96 95 95 95 95 95 93 91 92 87 82 77 73 70 74 71 78 83 75 85 94 91 92 92 92 85 92 96 97 96
97 95 95 94 96 94 95 94 90 94 95 90 91 93 93 95 95 95 95 93 96 89 81 83 75 75 71 69 73 90 90 91 90 90 94 93 94 92 94 97 95 95 97 98
94 97 99 97 97 98 96 96 94 96 97 96 95 94 94 96 96 96 92 88 93 83 77 78 72 72 72 80 81 90 88 88 89 94 95 94 95 94 93 93 94 96 98 100
84 87 95 95 96 97 97 97 98 96 98 96 95 94 92 91 91 94 95 94 85 81 73 87 78 77 80 93 92 91 90 90 92 94 95 94 95 94 94 95 97 97 98 98
85 82 93 95 94 95 97 98 96 96 96 96 96 95 93 96 97 95 87 94 86 81 92 87 79 79 90 93 92 91 93 94 93 95 94 92 94 94 93 95 98 99 99 96
89 89 95 93 89 91 92 92 94 96 95 94 93 90 84 81 90 95 93 95 88 91 90 84 79 89 92 93 93 94 96 94 96 94 93 95 94 96 93 93 98 99 98 98
83 82 81 81 85 87 89 91 93 93 93 97 97 96 98 95 94 91 94 94 93 92 92 90 89 94 94 93 93 95 96 95 94 93 94 94 93 93 96 95 96 94 97 100
87 90 90 94 87 86 88 89 95 95 94 93 94 95 96 97 95 92 92 96 95 95 94 92 94 94 94 93 94 96 95 95 93 93 93 94 92 94 92 92 96 98 99 98

GFSNGP_sfc_rhum_138.txt.gz
RH
95 94 78 70 63 60 59 70 73 54 62 64 67 75 76 74 75 75 73 68 65 66 69 73 75 74 72 78 77 69 71 79 86 83 80 81 82 82 81 80 73 72 71 72
95 100 96 91 89 74 96 95 90 81 76 58 52 61 73 78 76 81 77 74 72 62 66 70 71 72 72 74 75 70 76 81 80 82 82 85 83 82 81 82 81 77 78 71
89 98 96 94 76 61 53 57 72 88 62 43 52 53 54 74 73 76 79 70 64 61 64 68 70 71 76 77 72 73 78 79 81 84 86 87 83 82 84 86 86 90 86 82
95 87 96 55 47 49 54 49 46 48 49 50 46 48 52 55 61 65 65 71 63 65 67 70 73 74 70 66 72 76 79 82 83 86 90 89 90 93 95 94 97 97 94 92
93 90 67 48 43 69 73 69 57 55 50 46 51 70 75 86 78 68 72 72 79 69 73 77 77 71 70 72 74 76 83 86 85 87 93 94 97 97 97 95 97 98 96 91
95 98 91 70 50 48 56 83 51 55 56 66 66 86 80 94 91 91 86 77 80 87 82 81 81 70 72 76 77 86 85 87 85 87 93 95 97 96 98 96 97 95 95 95
93 92 84 64 55 49 68 68 58 62 76 80 75 90 96 98 98 96 85 85 83 82 88 90 81 79 84 84 89 86 83 82 82 83 89 93 96 97 95 94 95 96 96 95
93 97 94 56 53 62 71 68 66 77 91 100 99 99 100 100 99 97 95 89 84 90 92 84 73 73 87 90 87 82 80 84 89 90 83 87 94 97 96 94 96 98 96 95
89 87 73 66 61 59 64 62 67 84 98 97 98 99 99 98 98 99 96 92 86 88 88 76 69 66 78 88 81 82 86 92 92 91 93 87 92 95 96 93 94 93 93 98
75 74 70 68 66 75 72 72 79 91 93 98 100 99 98 98 98 98 96 91 88 90 90 92 80 74 75 72 70 73 77 82 84 81 80 77 76 82 90 93 93 90 94 97
89 82 80 70 78 84 82 86 92 92 95 97 98 98 97 98 98 96 94 90 84 86 87 91 91 82 68 70 69 71 71 74 77 72 71 74 80 83 82 96 80 86 94 93
84 73 82 80 81 86 80 88 90 95 97 91 92 97 96 97 94 93 94 91 89 89 88 90 86 78 70 69 67 69 71 73 77 72 62 67 73 80 67 72 69 66 65 75
82 82 82 76 79 72 78 90 90 91 90 90 88 89 90 94 92 89 89 91 92 92 87 80 78 80 75 69 67 70 69 67 73 72 73 80 77 81 93 77 63 59 57 58
78 82 85 76 75 63 82 86 84 87 88 88 90 87 89 90 90 89 90 90 87 87 88 87 87 88 80 76 78 77 78 76 76 80 86 90 92 95 96 97 99 98 71 74
74 74 70 63 63 74 82 81 89 94 91 89 86 89 88 92 93 91 94 86 79 82 87 85 87 95 88 81 81 85 87 91 92 92 91 92 93 93 94 96 98 96 94 92
75 71 68 69 69 78 80 84 90 94 89 88 88 90 88 89 95 94 95 94 90 82 81 85 86 94 88 82 85 87 87 88 84 86 87 89 91 93 95 94 94 94 94 96
82 85 77 75 74 79 81 85 84 86 86 87 88 96 97 94 94 96 97 97 96 93 90 84 92 92 90 85 81 85 87 86 87 87 88 88 88 87 93 93 88 86 92 96
71 70 69 69 75 78 87 88 89 88 87 87 94 95 97 95 95 96 96 96 96 96 96 95 93 91 90 88 82 82 82 82 82 85 81 86 82 79 88 89 80 82 94 94
70 76 78 76 79 84 90 91 92 93 91 92 92 95 95 94 94 95 96 96 96 96 97 96 94 88 86 83 73 76 82 81 79 76 79 90 91 85 91 93 93 93 93 93
89 88 87 89 88 88 93 96 94 94 93 93 96 96 97 96 95 95 94 95 94 94 95 96 88 77 78 81 78 78 84 86 79 83 89 88 92 94 95 92 92 95 96 97
95 94 94 94 97 95 95 96 92 96 100 93 93 95 95 96 94 93 95 94 96 95 93 87 78 78 74 78 73 89 87 89 88 89 92 93 93 91 94 95 95 94 96 97
98 98 98 97 96 98 95 97 96 97 97 97 95 94 95 96 96 96 94 91 94 93 82 81 80 78 76 80 78 89 88 87 90 93 94 94 93 93 94 95 95 96 97 97
96 97 98 96 95 98 96 97 99 96 97 97 96 95 93 92 91 94 98 95 93 91 78 84 82 82 87 93 92 91 90 89 90 92 92 93 94 93 93 94 94 96 98 98
83 85 97 97 96 95 96 96 95 97 98 97 96 94 93 96 98 95 90 95 93 86 84 91 83 83 92 94 93 93 93 93 94 96 95 94 96 95 94 95 96 97 96 97
91 94 96 94 90 94 93 93 94 97 96 96 96 94 89 88 96 98 95 95 92 90 94 85 84 90 94 94 94 94 94 95 95 94 94 94 95 95 94 95 95 95 96 97
88 91 88 83 86 91 92 91 94 97 98 99 99 100 99 98 97 96 96 96 94 94 95 91 91 94 95 94 93 94 95 95 95 94 94 94 94 93 94 94 96 95 96 98
88 90 88 93 92 89 92 92 96 98 98 97 98 99 99 98 97 97 98 96 96 96 96 96 95 95 94 94 95 96 95 96 95 93 95 95 94 94 95 93 93 94 96 98

GFSNGP_sfc_rhum_141.txt.gz
RH
100 97 97 98 94 71 92 68 64 64 53 64 74 79 81 82 82 83 80 79 74 77 78 78 78 77 76 83 84 72 78 83 89 86 83 82 84 84 80 75 77 75 76 71
96 100 100 90 71 77 82 95 98 98 94 62 67 72 79 78 80 81 78 76 71 71 79 81 80 81 75 78 74 73 79 84 84 84 82 82 83 84 82 83 82 82 80 79
94 94 96 91 82 72 79 96 91 94 80 74 78 69 58 72 76 78 76 72 70 79 79 82 79 75 78 77 74 76 82 83 84 84 84 84 79 79 85 90 88 92 91 88
95 97 98 58 57 62 63 71 70 66 65 64 67 53 62 64 75 75 71 72 75 79 77 74 75 76 85 92 77 78 81 83 84 84 87 88 90 94 95 95 97 98 96 95
97 96 72 48 52 82 78 73 60 62 57 52 55 58 73 74 81 78 78 78 87 74 74 79 82 88 90 77 79 81 84 84 86 84 89 88 94 96 98 95 96 99 98 94
98 96 93 69 59 55 62 78 55 56 55 62 71 93 83 95 95 92 88 86 82 83 84 87 92 78 80 93 86 87 84 85 88 89 94 94 96 96 99 98 99 96 95 96
93 92 82 64 52 56 73 66 59 65 70 72 76 88 94 98 98 96 91 85 83 86 91 91 82 83 92 90 88 86 83 83 84 86 92 93 94 94 97 97 96 97 95 96
94 97 92 55 61 67 68 64 67 70 77 85 98 99 100 100 99 96 95 91 88 91 91 80 74 76 89 90 89 85 82 85 89 89 82 91 93 93 92 95 95 98 95 94
83 84 70 66 68 59 66 68 62 74 91 96 99 99 99 99 99 97 94 93 89 90 81 74 68 70 78 88 88 84 88 92 91 89 92 92 92 95 94 94 94 96 96 98
80 67 75 69 69 67 75 74 73 80 96 96 100 99 99 99 99 98 95 91 88 79 77 76 69 67 79 92 80 74 77 83 91 92 90 89 86 84 89 95 95 90 96 96
88 75 74 66 74 76 84 85 92 95 96 98 97 99 97 98 98 98 96 92 84 80 80 78 72 82 90 92 72 71 76 82 84 84 78 84 86 90 88 95 80 86 96 95
83 64 68 71 74 85 88 85 90 97 95 94 94 97 98 98 96 94 96 92 90 89 90 91 89 94 95 87 68 71 76 79 78 74 72 71 80 93 76 71 63 64 68 80
69 69 85 77 78 81 87 85 92 94 95 93 92 92 92 97 94 92 93 92 94 94 93 94 96 96 94 83 72 72 76 72 68 64 70 77 78 82 92 76 64 62 60 58
79 82 86 82 82 72 79 90 89 93 94 95 94 88 92 92 94 93 94 92 92 95 96 97 97 97 97 84 80 82 82 79 75 78 85 88 91 93 93 93 96 97 85 80
64 79 77 75 74 88 92 93 96 98 97 97 95 95 91 94 94 94 95 90 91 94 97 97 97 97 97 91 86 86 87 90 91 92 92 93 94 95 95 96 95 95 94 96
78 80 79 75 77 92 90 93 96 97 96 93 95 94 90 91 95 95 93 91 92 95 96 96 96 97 91 87 86 87 88 86 85 87 91 92 91 92 93 94 90 90 96 98
87 91 90 90 87 89 91 91 91 90 89 89 90 94 96 93 93 95 97 97 92 94 95 95 96 97 96 93 87 85 89 88 83 84 85 88 91 91 91 93 86 87 94 98
75 81 78 74 82 86 91 90 92 92 94 90 96 97 97 96 96 97 97 96 96 96 95 93 95 94 94 96 89 82 83 84 82 86 86 90 88 89 93 93 84 83 94 96
72 77 76 77 80 86 91 93 94 94 96 96 97 98 97 96 96 97 96 95 95 95 97 94 92 91 89 87 78 80 83 86 85 82 84 88 88 89 94 92 88 92 92 93
85 85 86 88 89 92 95 98 95 96 96 95 97 97 99 99 97 97 95 95 94 96 96 96 96 94 85 82 82 82 87 88 82 88 89 88 92 94 94 90 87 92 96 96
93 92 92 93 98 96 97 97 95 98 97 98 96 98 98 100 97 96 96 95 97 96 96 96 95 96 92 81 80 91 91 90 90 91 92 93 94 92 95 95 94 95 96 97
98 97 97 95 96 98 98 96 97 98 98 97 97 96 96 98 97 98 97 94 96 96 95 95 95 95 88 83 84 92 90 88 90 92 94 93 92 93 95 95 96 96 96 97
98 98 97 97 96 99 96 98 100 97 98 97 97 97 95 94 94 96 99 96 93 96 94 96 94 90 87 92 93 92 91 90 91 92 93 93 93 92 92 95 96 96 96 97
96 96 98 97 94 92 95 96 95 97 97 97 97 96 94 97 98 97 93 98 95 93 92 94 88 90 91 94 94 93 93 93 94 95 94 94 96 95 95 95 95 97 97 98
90 97 96 94 90 94 93 92 92 97 97 96 96 96 94 94 96 99 97 97 95 96 96 91 90 92 94 95 94 94 94 94 95 94 94 95 96 96 95 95 95 96 96 96
88 92 89 86 90 92 93 90 94 99 98 100 99 99 99 99 99 98 98 98 96 98 97 95 94 95 96 95 95 94 95 95 95 96 95 95 95 95 94 95 96 94 94 95
92 92 91 95 92 92 93 92 98 100 99 98 99 99 99 99 99 98 99 99 98 98 97 96 95 94 95 95 95 95 96 96 95 94 96 95 95 95 94 93 94 96 96 96